Wetterdaten: Dienstag, 20.12.2016
Datum Zeit Temp. A. Feuchte A. Luftdruck Regen Wind Richtung Richtung Sonnenschein ET UV Solar Taupunkt Windchill Windben Empfang
20.12.2016 00:00 -0,8 C 96 % 1028,5 hPa 0,0 l/m 12,0 km/h (2 Bft) NO 46 0 min 0,000 mm 0,0 UV-I 0 W/m -1,4 C -5,9 C 16,1 km/h (3 Bft) 95,24 %
20.12.2016 00:02 -0,8 C 96 % 1028,5 hPa 0,0 l/m 15,7 km/h (3 Bft) O 82 0 min 0,000 mm 0,0 UV-I 0 W/m -1,4 C -8,4 C 24,1 km/h (4 Bft) 100,00 %
20.12.2016 00:04 -0,8 C 96 % 1028,5 hPa 0,0 l/m 16,5 km/h (3 Bft) O-NO 58 0 min 0,000 mm 0,0 UV-I 0 W/m -1,4 C -8,8 C 20,9 km/h (4 Bft) 100,00 %
20.12.2016 00:06 -0,8 C 96 % 1028,5 hPa 0,0 l/m 14,1 km/h (3 Bft) O-NO 75 0 min 0,000 mm 0,0 UV-I 0 W/m -1,4 C -7,4 C 20,9 km/h (4 Bft) 100,00 %
20.12.2016 00:08 -0,8 C 96 % 1028,4 hPa 0,0 l/m 15,7 km/h (3 Bft) NO 52 0 min 0,000 mm 0,0 UV-I 0 W/m -1,4 C -8,4 C 22,5 km/h (4 Bft) 100,00 %
20.12.2016 00:10 -0,8 C 96 % 1028,4 hPa 0,0 l/m 16,2 km/h (3 Bft) O-NO 74 0 min 0,000 mm 0,0 UV-I 0 W/m -1,4 C -8,7 C 25,7 km/h (4 Bft) 97,87 %
20.12.2016 00:12 -0,8 C 96 % 1028,4 hPa 0,0 l/m 16,1 km/h (3 Bft) O 90 0 min 0,000 mm 0,0 UV-I 0 W/m -1,4 C -8,6 C 25,7 km/h (4 Bft) 100,00 %
20.12.2016 00:14 -0,8 C 96 % 1028,4 hPa 0,0 l/m 16,0 km/h (3 Bft) O-NO 74 0 min 0,000 mm 0,0 UV-I 0 W/m -1,4 C -8,6 C 24,1 km/h (4 Bft) 97,73 %
20.12.2016 00:16 -0,8 C 96 % 1028,3 hPa 0,0 l/m 13,6 km/h (3 Bft) NO 54 0 min 0,000 mm 0,0 UV-I 0 W/m -1,4 C -7,0 C 20,9 km/h (4 Bft) 100,00 %
20.12.2016 00:18 -0,8 C 96 % 1028,4 hPa 0,0 l/m 14,8 km/h (3 Bft) O-NO 62 0 min 0,000 mm 0,0 UV-I 0 W/m -1,4 C -7,8 C 25,7 km/h (4 Bft) 98,00 %
20.12.2016 00:20 -0,8 C 96 % 1028,3 hPa 0,0 l/m 13,7 km/h (3 Bft) O-SO 103 0 min 0,000 mm 0,0 UV-I 0 W/m -1,4 C -7,1 C 22,5 km/h (4 Bft) 100,00 %
20.12.2016 00:22 -0,8 C 96 % 1028,4 hPa 0,0 l/m 17,4 km/h (3 Bft) O-NO 68 0 min 0,000 mm 0,0 UV-I 0 W/m -1,4 C -9,3 C 22,5 km/h (4 Bft) 100,00 %
20.12.2016 00:24 -0,8 C 96 % 1028,4 hPa 0,0 l/m 21,4 km/h (4 Bft) O 94 0 min 0,000 mm 0,0 UV-I 0 W/m -1,4 C -11,3 C 32,2 km/h (5 Bft) 98,00 %
20.12.2016 00:26 -0,9 C 96 % 1028,3 hPa 0,0 l/m 18,3 km/h (3 Bft) O-NO 72 0 min 0,000 mm 0,0 UV-I 0 W/m -1,5 C -9,9 C 27,4 km/h (4 Bft) 97,37 %
20.12.2016 00:28 -0,9 C 96 % 1028,3 hPa 0,0 l/m 14,2 km/h (3 Bft) O 91 0 min 0,000 mm 0,0 UV-I 0 W/m -1,5 C -7,6 C 20,9 km/h (4 Bft) 100,00 %
20.12.2016 00:30 -0,8 C 96 % 1028,3 hPa 0,0 l/m 19,2 km/h (3 Bft) O-NO 62 0 min 0,000 mm 0,0 UV-I 0 W/m -1,4 C -10,3 C 22,5 km/h (4 Bft) 98,57 %
20.12.2016 00:32 -0,8 C 96 % 1028,2 hPa 0,0 l/m 15,4 km/h (3 Bft) O-NO 61 0 min 0,000 mm 0,0 UV-I 0 W/m -1,4 C -8,2 C 29,0 km/h (5 Bft) 100,00 %
20.12.2016 00:34 -0,9 C 96 % 1028,3 hPa 0,0 l/m 19,9 km/h (4 Bft) O 86 0 min 0,000 mm 0,0 UV-I 0 W/m -1,5 C -10,7 C 27,4 km/h (4 Bft) 100,00 %
20.12.2016 00:36 -0,9 C 96 % 1028,2 hPa 0,0 l/m 17,2 km/h (3 Bft) O-NO 76 0 min 0,000 mm 0,0 UV-I 0 W/m -1,5 C -9,4 C 22,5 km/h (4 Bft) 97,62 %
20.12.2016 00:38 -0,9 C 96 % 1028,3 hPa 0,0 l/m 18,1 km/h (3 Bft) O-NO 69 0 min 0,000 mm 0,0 UV-I 0 W/m -1,5 C -9,8 C 24,1 km/h (4 Bft) 100,00 %
20.12.2016 00:40 -0,9 C 96 % 1028,3 hPa 0,0 l/m 19,8 km/h (3 Bft) O 81 0 min 0,000 mm 0,0 UV-I 0 W/m -1,5 C -10,7 C 25,7 km/h (4 Bft) 100,00 %
20.12.2016 00:42 -0,9 C 96 % 1028,2 hPa 0,0 l/m 16,1 km/h (3 Bft) O 90 0 min 0,000 mm 0,0 UV-I 0 W/m -1,5 C -8,7 C 22,5 km/h (4 Bft) 100,00 %
20.12.2016 00:44 -0,9 C 96 % 1028,3 hPa 0,0 l/m 13,7 km/h (3 Bft) O-NO 65 0 min 0,000 mm 0,0 UV-I 0 W/m -1,5 C -7,2 C 17,7 km/h (3 Bft) 98,21 %
20.12.2016 00:46 -0,9 C 96 % 1028,3 hPa 0,0 l/m 16,0 km/h (3 Bft) O-NO 63 0 min 0,000 mm 0,0 UV-I 0 W/m -1,5 C -8,7 C 20,9 km/h (4 Bft) 97,44 %
20.12.2016 00:48 -0,9 C 96 % 1028,3 hPa 0,0 l/m 16,2 km/h (3 Bft) O-NO 74 0 min 0,000 mm 0,0 UV-I 0 W/m -1,5 C -8,8 C 22,5 km/h (4 Bft) 97,73 %
20.12.2016 00:50 -0,9 C 96 % 1028,3 hPa 0,0 l/m 15,0 km/h (3 Bft) O-NO 74 0 min 0,000 mm 0,0 UV-I 0 W/m -1,5 C -8,1 C 19,3 km/h (3 Bft) 97,73 %
20.12.2016 00:52 -0,9 C 96 % 1028,3 hPa 0,0 l/m 15,1 km/h (3 Bft) O 82 0 min 0,000 mm 0,0 UV-I 0 W/m -1,5 C -8,1 C 19,3 km/h (3 Bft) 100,00 %
20.12.2016 00:54 -0,9 C 96 % 1028,2 hPa 0,0 l/m 15,8 km/h (3 Bft) O-NO 64 0 min 0,000 mm 0,0 UV-I 0 W/m -1,5 C -8,6 C 22,5 km/h (4 Bft) 97,37 %
20.12.2016 00:56 -0,9 C 96 % 1028,1 hPa 0,0 l/m 19,7 km/h (3 Bft) NO 40 0 min 0,000 mm 0,0 UV-I 0 W/m -1,5 C -10,6 C 27,4 km/h (4 Bft) 100,00 %
20.12.2016 00:58 -0,9 C 96 % 1028,1 hPa 0,0 l/m 17,7 km/h (3 Bft) O-NO 69 0 min 0,000 mm 0,0 UV-I 0 W/m -1,5 C -9,6 C 22,5 km/h (4 Bft) 100,00 %
20.12.2016 01:00 -0,9 C 96 % 1028,1 hPa 0,0 l/m 18,9 km/h (3 Bft) O 80 0 min 0,000 mm 0,0 UV-I 0 W/m -1,5 C -10,3 C 25,7 km/h (4 Bft) 100,00 %
20.12.2016 01:02 -0,9 C 96 % 1028,2 hPa 0,0 l/m 15,1 km/h (3 Bft) O-NO 61 0 min 0,000 mm 0,0 UV-I 0 W/m -1,5 C -8,1 C 22,5 km/h (4 Bft) 100,00 %
20.12.2016 01:04 -0,9 C 96 % 1028,2 hPa 0,0 l/m 15,0 km/h (3 Bft) O 80 0 min 0,000 mm 0,0 UV-I 0 W/m -1,5 C -8,1 C 20,9 km/h (4 Bft) 98,11 %
20.12.2016 01:06 -0,9 C 96 % 1028,2 hPa 0,0 l/m 16,1 km/h (3 Bft) NO 41 0 min 0,000 mm 0,0 UV-I 0 W/m -1,5 C -8,7 C 22,5 km/h (4 Bft) 100,00 %
20.12.2016 01:08 -0,9 C 96 % 1028,2 hPa 0,0 l/m 17,4 km/h (3 Bft) O-NO 69 0 min 0,000 mm 0,0 UV-I 0 W/m -1,5 C -9,5 C 24,1 km/h (4 Bft) 100,00 %
20.12.2016 01:10 -0,9 C 96 % 1028,2 hPa 0,0 l/m 16,6 km/h (3 Bft) O-NO 73 0 min 0,000 mm 0,0 UV-I 0 W/m -1,5 C -9,0 C 25,7 km/h (4 Bft) 100,00 %
20.12.2016 01:12 -0,9 C 96 % 1028,2 hPa 0,0 l/m 18,9 km/h (3 Bft) O 80 0 min 0,000 mm 0,0 UV-I 0 W/m -1,5 C -10,3 C 24,1 km/h (4 Bft) 98,00 %
20.12.2016 01:14 -0,9 C 96 % 1028,2 hPa 0,0 l/m 19,2 km/h (3 Bft) O 81 0 min 0,000 mm 0,0 UV-I 0 W/m -1,5 C -10,4 C 27,4 km/h (4 Bft) 100,00 %
20.12.2016 01:16 -0,9 C 96 % 1028,3 hPa 0,0 l/m 12,6 km/h (3 Bft) O 82 0 min 0,000 mm 0,0 UV-I 0 W/m -1,5 C -6,5 C 17,7 km/h (3 Bft) 97,62 %
20.12.2016 01:18 -0,9 C 96 % 1028,3 hPa 0,0 l/m 18,5 km/h (3 Bft) O-NO 61 0 min 0,000 mm 0,0 UV-I 0 W/m -1,5 C -10,0 C 24,1 km/h (4 Bft) 98,18 %
20.12.2016 01:20 -0,9 C 96 % 1028,3 hPa 0,0 l/m 15,4 km/h (3 Bft) O-NO 60 0 min 0,000 mm 0,0 UV-I 0 W/m -1,5 C -8,3 C 19,3 km/h (3 Bft) 100,00 %
20.12.2016 01:22 -0,9 C 96 % 1028,3 hPa 0,0 l/m 19,8 km/h (3 Bft) O-NO 78 0 min 0,000 mm 0,0 UV-I 0 W/m -1,5 C -10,7 C 25,7 km/h (4 Bft) 100,00 %
20.12.2016 01:24 -0,9 C 96 % 1028,3 hPa 0,0 l/m 23,1 km/h (4 Bft) O-NO 78 0 min 0,000 mm 0,0 UV-I 0 W/m -1,5 C -12,2 C 32,2 km/h (5 Bft) 100,00 %
20.12.2016 01:26 -1,0 C 96 % 1028,3 hPa 0,0 l/m 21,1 km/h (4 Bft) O-NO 75 0 min 0,000 mm 0,0 UV-I 0 W/m -1,6 C -11,4 C 33,8 km/h (5 Bft) 100,00 %
20.12.2016 01:28 -1,0 C 96 % 1028,3 hPa 0,0 l/m 22,5 km/h (4 Bft) O 92 0 min 0,000 mm 0,0 UV-I 0 W/m -1,6 C -12,1 C 30,6 km/h (5 Bft) 98,00 %
20.12.2016 01:30 -1,0 C 96 % 1028,3 hPa 0,0 l/m 20,8 km/h (4 Bft) O-NO 70 0 min 0,000 mm 0,0 UV-I 0 W/m -1,6 C -11,3 C 30,6 km/h (5 Bft) 96,23 %
20.12.2016 01:32 -1,1 C 96 % 1028,4 hPa 0,0 l/m 25,1 km/h (4 Bft) O-NO 63 0 min 0,000 mm 0,0 UV-I 0 W/m -1,7 C -13,2 C 33,8 km/h (5 Bft) 98,00 %
20.12.2016 01:34 -1,1 C 96 % 1028,3 hPa 0,0 l/m 26,9 km/h (4 Bft) O-NO 64 0 min 0,000 mm 0,0 UV-I 0 W/m -1,7 C -13,9 C 33,8 km/h (5 Bft) 95,45 %
20.12.2016 01:36 -1,1 C 96 % 1028,3 hPa 0,0 l/m 24,6 km/h (4 Bft) O-NO 63 0 min 0,000 mm 0,0 UV-I 0 W/m -1,7 C -13,1 C 33,8 km/h (5 Bft) 97,56 %
20.12.2016 01:38 -1,1 C 96 % 1028,3 hPa 0,0 l/m 21,8 km/h (4 Bft) O 87 0 min 0,000 mm 0,0 UV-I 0 W/m -1,7 C -11,9 C 30,6 km/h (5 Bft) 94,34 %
20.12.2016 01:40 -1,1 C 96 % 1028,4 hPa 0,0 l/m 21,6 km/h (4 Bft) NO 37 0 min 0,000 mm 0,0 UV-I 0 W/m -1,7 C -11,8 C 30,6 km/h (5 Bft) 95,12 %
20.12.2016 01:42 -1,1 C 96 % 1028,4 hPa 0,0 l/m 21,8 km/h (4 Bft) O-NO 70 0 min 0,000 mm 0,0 UV-I 0 W/m -1,7 C -11,9 C 32,2 km/h (5 Bft) 98,11 %
20.12.2016 01:44 -1,1 C 96 % 1028,4 hPa 0,0 l/m 20,4 km/h (4 Bft) O 90 0 min 0,000 mm 0,0 UV-I 0 W/m -1,7 C -11,2 C 27,4 km/h (4 Bft) 94,74 %
20.12.2016 01:46 -1,1 C 96 % 1028,3 hPa 0,0 l/m 22,1 km/h (4 Bft) O 80 0 min 0,000 mm 0,0 UV-I 0 W/m -1,7 C -12,0 C 30,6 km/h (5 Bft) 93,62 %
20.12.2016 01:48 -1,1 C 96 % 1028,3 hPa 0,0 l/m 24,4 km/h (4 Bft) O-NO 68 0 min 0,000 mm 0,0 UV-I 0 W/m -1,7 C -13,0 C 32,2 km/h (5 Bft) 98,21 %
20.12.2016 01:50 -1,1 C 96 % 1028,2 hPa 0,0 l/m 23,3 km/h (4 Bft) O-NO 67 0 min 0,000 mm 0,0 UV-I 0 W/m -1,7 C -12,5 C 30,6 km/h (5 Bft) 96,30 %
20.12.2016 01:52 -1,1 C 96 % 1028,3 hPa 0,0 l/m 18,3 km/h (3 Bft) O 88 0 min 0,000 mm 0,0 UV-I 0 W/m -1,7 C -10,2 C 25,7 km/h (4 Bft) 96,36 %
20.12.2016 01:54 -1,1 C 96 % 1028,3 hPa 0,0 l/m 19,8 km/h (3 Bft) O-NO 57 0 min 0,000 mm 0,0 UV-I 0 W/m -1,7 C -11,0 C 30,6 km/h (5 Bft) 98,04 %
20.12.2016 01:56 -1,1 C 96 % 1028,3 hPa 0,0 l/m 21,8 km/h (4 Bft) O-NO 65 0 min 0,000 mm 0,0 UV-I 0 W/m -1,7 C -11,9 C 32,2 km/h (5 Bft) 95,74 %
20.12.2016 01:58 -1,1 C 96 % 1028,3 hPa 0,0 l/m 19,6 km/h (3 Bft) O-NO 71 0 min 0,000 mm 0,0 UV-I 0 W/m -1,7 C -10,9 C 27,4 km/h (4 Bft) 95,74 %
20.12.2016 02:00 -1,1 C 96 % 1028,3 hPa 0,0 l/m 20,2 km/h (4 Bft) O-NO 60 0 min 0,000 mm 0,0 UV-I 0 W/m -1,7 C -11,1 C 25,7 km/h (4 Bft) 96,00 %
20.12.2016 02:02 -1,1 C 96 % 1028,3 hPa 0,0 l/m 19,1 km/h (3 Bft) O-NO 76 0 min 0,000 mm 0,0 UV-I 0 W/m -1,7 C -10,6 C 25,7 km/h (4 Bft) 96,15 %
20.12.2016 02:04 -1,0 C 96 % 1028,4 hPa 0,0 l/m 18,1 km/h (3 Bft) NO 51 0 min 0,000 mm 0,0 UV-I 0 W/m -1,6 C -10,0 C 27,4 km/h (4 Bft) 100,00 %
20.12.2016 02:06 -1,0 C 96 % 1028,4 hPa 0,0 l/m 14,2 km/h (3 Bft) O-NO 73 0 min 0,000 mm 0,0 UV-I 0 W/m -1,6 C -7,7 C 24,1 km/h (4 Bft) 98,21 %
20.12.2016 02:08 -1,0 C 96 % 1028,4 hPa 0,0 l/m 21,7 km/h (4 Bft) O-NO 66 0 min 0,000 mm 0,0 UV-I 0 W/m -1,6 C -11,7 C 32,2 km/h (5 Bft) 100,00 %
20.12.2016 02:10 -1,1 C 96 % 1028,4 hPa 0,0 l/m 27,4 km/h (4 Bft) O 81 0 min 0,000 mm 0,0 UV-I 0 W/m -1,7 C -14,1 C 45,1 km/h (6 Bft) 100,00 %
20.12.2016 02:12 -1,1 C 96 % 1028,4 hPa 0,0 l/m 23,7 km/h (4 Bft) O 80 0 min 0,000 mm 0,0 UV-I 0 W/m -1,7 C -12,7 C 32,2 km/h (5 Bft) 100,00 %
20.12.2016 02:14 -1,1 C 96 % 1028,4 hPa 0,0 l/m 26,2 km/h (4 Bft) O-NO 67 0 min 0,000 mm 0,0 UV-I 0 W/m -1,7 C -13,7 C 33,8 km/h (5 Bft) 95,74 %
20.12.2016 02:16 -1,1 C 96 % 1028,4 hPa 0,0 l/m 22,1 km/h (4 Bft) O-NO 76 0 min 0,000 mm 0,0 UV-I 0 W/m -1,7 C -12,0 C 30,6 km/h (5 Bft) 97,56 %
20.12.2016 02:18 -1,1 C 96 % 1028,4 hPa 0,0 l/m 20,4 km/h (4 Bft) NO 52 0 min 0,000 mm 0,0 UV-I 0 W/m -1,7 C -11,2 C 30,6 km/h (5 Bft) 98,21 %
20.12.2016 02:20 -1,1 C 96 % 1028,5 hPa 0,0 l/m 18,0 km/h (3 Bft) NO 48 0 min 0,000 mm 0,0 UV-I 0 W/m -1,7 C -10,0 C 25,7 km/h (4 Bft) 100,00 %
20.12.2016 02:22 -1,1 C 96 % 1028,5 hPa 0,0 l/m 17,1 km/h (3 Bft) O-NO 69 0 min 0,000 mm 0,0 UV-I 0 W/m -1,7 C -9,6 C 24,1 km/h (4 Bft) 98,21 %
20.12.2016 02:24 -1,1 C 96 % 1028,5 hPa 0,0 l/m 15,2 km/h (3 Bft) O-NO 65 0 min 0,000 mm 0,0 UV-I 0 W/m -1,7 C -8,4 C 20,9 km/h (4 Bft) 97,87 %
20.12.2016 02:26 -1,1 C 96 % 1028,5 hPa 0,0 l/m 18,1 km/h (3 Bft) O-NO 59 0 min 0,000 mm 0,0 UV-I 0 W/m -1,7 C -10,1 C 24,1 km/h (4 Bft) 100,00 %
20.12.2016 02:28 -1,1 C 96 % 1028,4 hPa 0,0 l/m 23,6 km/h (4 Bft) NO 56 0 min 0,000 mm 0,0 UV-I 0 W/m -1,7 C -12,7 C 30,6 km/h (5 Bft) 97,37 %
20.12.2016 02:30 -1,1 C 95 % 1028,4 hPa 0,0 l/m 23,6 km/h (4 Bft) O-NO 67 0 min 0,000 mm 0,0 UV-I 0 W/m -1,8 C -12,7 C 29,0 km/h (5 Bft) 100,00 %
20.12.2016 02:32 -1,1 C 96 % 1028,4 hPa 0,0 l/m 22,5 km/h (4 Bft) O 94 0 min 0,000 mm 0,0 UV-I 0 W/m -1,7 C -12,2 C 27,4 km/h (4 Bft) 100,00 %
20.12.2016 02:34 -1,1 C 96 % 1028,4 hPa 0,0 l/m 22,7 km/h (4 Bft) O 90 0 min 0,000 mm 0,0 UV-I 0 W/m -1,7 C -12,3 C 35,4 km/h (5 Bft) 100,00 %
20.12.2016 02:36 -1,1 C 96 % 1028,4 hPa 0,0 l/m 21,4 km/h (4 Bft) O 90 0 min 0,000 mm 0,0 UV-I 0 W/m -1,7 C -11,7 C 35,4 km/h (5 Bft) 100,00 %
20.12.2016 02:38 -1,1 C 95 % 1028,4 hPa 0,0 l/m 19,5 km/h (3 Bft) O-NO 77 0 min 0,000 mm 0,0 UV-I 0 W/m -1,8 C -10,8 C 30,6 km/h (5 Bft) 100,00 %
20.12.2016 02:40 -1,1 C 95 % 1028,3 hPa 0,0 l/m 23,4 km/h (4 Bft) NO 40 0 min 0,000 mm 0,0 UV-I 0 W/m -1,8 C -12,6 C 33,8 km/h (5 Bft) 97,44 %
20.12.2016 02:42 -1,1 C 95 % 1028,4 hPa 0,0 l/m 21,4 km/h (4 Bft) O-NO 63 0 min 0,000 mm 0,0 UV-I 0 W/m -1,8 C -11,7 C 32,2 km/h (5 Bft) 100,00 %
20.12.2016 02:44 -1,1 C 95 % 1028,3 hPa 0,0 l/m 21,0 km/h (4 Bft) O-NO 70 0 min 0,000 mm 0,0 UV-I 0 W/m -1,8 C -11,5 C 29,0 km/h (5 Bft) 100,00 %
20.12.2016 02:46 -1,1 C 95 % 1028,4 hPa 0,0 l/m 15,1 km/h (3 Bft) O-NO 69 0 min 0,000 mm 0,0 UV-I 0 W/m -1,8 C -8,4 C 22,5 km/h (4 Bft) 98,21 %
20.12.2016 02:48 -1,1 C 95 % 1028,3 hPa 0,0 l/m 21,0 km/h (4 Bft) O-NO 61 0 min 0,000 mm 0,0 UV-I 0 W/m -1,8 C -11,5 C 29,0 km/h (5 Bft) 100,00 %
20.12.2016 02:50 -1,1 C 95 % 1028,3 hPa 0,0 l/m 19,6 km/h (3 Bft) O-NO 76 0 min 0,000 mm 0,0 UV-I 0 W/m -1,8 C -10,9 C 27,4 km/h (4 Bft) 100,00 %
20.12.2016 02:52 -1,1 C 95 % 1028,3 hPa 0,0 l/m 21,5 km/h (4 Bft) O-NO 60 0 min 0,000 mm 0,0 UV-I 0 W/m -1,8 C -11,8 C 27,4 km/h (4 Bft) 100,00 %
20.12.2016 02:54 -1,1 C 95 % 1028,2 hPa 0,0 l/m 26,2 km/h (4 Bft) NO 51 0 min 0,000 mm 0,0 UV-I 0 W/m -1,8 C -13,7 C 33,8 km/h (5 Bft) 100,00 %
20.12.2016 02:56 -1,1 C 95 % 1028,3 hPa 0,0 l/m 24,3 km/h (4 Bft) NO 40 0 min 0,000 mm 0,0 UV-I 0 W/m -1,8 C -12,9 C 32,2 km/h (5 Bft) 100,00 %
20.12.2016 02:58 -1,1 C 95 % 1028,3 hPa 0,0 l/m 21,5 km/h (4 Bft) O-NO 64 0 min 0,000 mm 0,0 UV-I 0 W/m -1,8 C -11,8 C 30,6 km/h (5 Bft) 100,00 %
20.12.2016 03:00 -1,1 C 95 % 1028,3 hPa 0,0 l/m 16,7 km/h (3 Bft) O-NO 73 0 min 0,000 mm 0,0 UV-I 0 W/m -1,8 C -9,3 C 22,5 km/h (4 Bft) 100,00 %
20.12.2016 03:02 -1,1 C 95 % 1028,3 hPa 0,0 l/m 16,4 km/h (3 Bft) NO 50 0 min 0,000 mm 0,0 UV-I 0 W/m -1,8 C -9,2 C 22,5 km/h (4 Bft) 100,00 %
20.12.2016 03:04 -1,1 C 95 % 1028,3 hPa 0,0 l/m 19,4 km/h (3 Bft) NO 54 0 min 0,000 mm 0,0 UV-I 0 W/m -1,8 C -10,8 C 25,7 km/h (4 Bft) 97,56 %
20.12.2016 03:06 -1,1 C 95 % 1028,3 hPa 0,0 l/m 19,0 km/h (3 Bft) NO 46 0 min 0,000 mm 0,0 UV-I 0 W/m -1,8 C -10,6 C 24,1 km/h (4 Bft) 100,00 %
20.12.2016 03:08 -1,1 C 95 % 1028,3 hPa 0,0 l/m 20,2 km/h (4 Bft) NO 46 0 min 0,000 mm 0,0 UV-I 0 W/m -1,8 C -11,1 C 27,4 km/h (4 Bft) 100,00 %
20.12.2016 03:10 -1,1 C 95 % 1028,3 hPa 0,0 l/m 23,8 km/h (4 Bft) O-NO 72 0 min 0,000 mm 0,0 UV-I 0 W/m -1,8 C -12,7 C 32,2 km/h (5 Bft) 100,00 %
20.12.2016 03:12 -1,1 C 95 % 1028,3 hPa 0,0 l/m 20,8 km/h (4 Bft) O-NO 63 0 min 0,000 mm 0,0 UV-I 0 W/m -1,8 C -11,4 C 29,0 km/h (5 Bft) 100,00 %
20.12.2016 03:14 -1,1 C 95 % 1028,3 hPa 0,0 l/m 21,0 km/h (4 Bft) N-NO 17 0 min 0,000 mm 0,0 UV-I 0 W/m -1,8 C -11,5 C 30,6 km/h (5 Bft) 100,00 %
20.12.2016 03:16 -1,1 C 95 % 1028,2 hPa 0,0 l/m 22,9 km/h (4 Bft) NO 53 0 min 0,000 mm 0,0 UV-I 0 W/m -1,8 C -12,4 C 29,0 km/h (5 Bft) 100,00 %
20.12.2016 03:18 -1,1 C 95 % 1028,2 hPa 0,0 l/m 18,8 km/h (3 Bft) O-NO 66 0 min 0,000 mm 0,0 UV-I 0 W/m -1,8 C -10,5 C 24,1 km/h (4 Bft) 100,00 %
20.12.2016 03:20 -1,2 C 95 % 1028,2 hPa 0,0 l/m 19,7 km/h (3 Bft) O-NO 70 0 min 0,000 mm 0,0 UV-I 0 W/m -1,9 C -11,0 C 25,7 km/h (4 Bft) 100,00 %
20.12.2016 03:22 -1,2 C 95 % 1028,2 hPa 0,0 l/m 20,4 km/h (4 Bft) O-NO 63 0 min 0,000 mm 0,0 UV-I 0 W/m -1,9 C -11,4 C 30,6 km/h (5 Bft) 100,00 %
20.12.2016 03:24 -1,2 C 95 % 1028,1 hPa 0,0 l/m 19,9 km/h (4 Bft) O-NO 61 0 min 0,000 mm 0,0 UV-I 0 W/m -1,9 C -11,1 C 25,7 km/h (4 Bft) 100,00 %
20.12.2016 03:26 -1,2 C 95 % 1028,1 hPa 0,0 l/m 21,9 km/h (4 Bft) NO 52 0 min 0,000 mm 0,0 UV-I 0 W/m -1,9 C -12,1 C 29,0 km/h (5 Bft) 100,00 %
20.12.2016 03:28 -1,2 C 95 % 1028,1 hPa 0,0 l/m 20,0 km/h (4 Bft) O-NO 77 0 min 0,000 mm 0,0 UV-I 0 W/m -1,9 C -11,2 C 30,6 km/h (5 Bft) 100,00 %
20.12.2016 03:30 -1,2 C 95 % 1028,1 hPa 0,0 l/m 22,1 km/h (4 Bft) O-NO 69 0 min 0,000 mm 0,0 UV-I 0 W/m -1,9 C -12,1 C 30,6 km/h (5 Bft) 100,00 %
20.12.2016 03:32 -1,2 C 95 % 1028,1 hPa 0,0 l/m 23,8 km/h (4 Bft) O-NO 70 0 min 0,000 mm 0,0 UV-I 0 W/m -1,9 C -12,9 C 35,4 km/h (5 Bft) 100,00 %
20.12.2016 03:34 -1,3 C 95 % 1028,1 hPa 0,0 l/m 22,4 km/h (4 Bft) O-NO 69 0 min 0,000 mm 0,0 UV-I 0 W/m -2,0 C -12,4 C 29,0 km/h (5 Bft) 97,56 %
20.12.2016 03:36 -1,3 C 95 % 1028,0 hPa 0,0 l/m 22,4 km/h (4 Bft) NO 38 0 min 0,000 mm 0,0 UV-I 0 W/m -2,0 C -12,4 C 32,2 km/h (5 Bft) 98,11 %
20.12.2016 03:38 -1,3 C 95 % 1028,0 hPa 0,0 l/m 24,1 km/h (4 Bft) O-NO 71 0 min 0,000 mm 0,0 UV-I 0 W/m -2,0 C -13,1 C 38,6 km/h (5 Bft) 95,74 %
20.12.2016 03:40 -1,3 C 95 % 1027,9 hPa 0,0 l/m 24,6 km/h (4 Bft) O 85 0 min 0,000 mm 0,0 UV-I 0 W/m -2,0 C -13,3 C 33,8 km/h (5 Bft) 97,87 %
20.12.2016 03:42 -1,3 C 95 % 1028,0 hPa 0,0 l/m 27,0 km/h (4 Bft) O 81 0 min 0,000 mm 0,0 UV-I 0 W/m -2,0 C -14,2 C 38,6 km/h (5 Bft) 97,56 %
20.12.2016 03:44 -1,3 C 95 % 1028,0 hPa 0,0 l/m 23,9 km/h (4 Bft) O-NO 70 0 min 0,000 mm 0,0 UV-I 0 W/m -2,0 C -13,0 C 33,8 km/h (5 Bft) 96,00 %
20.12.2016 03:46 -1,3 C 95 % 1027,9 hPa 0,0 l/m 26,7 km/h (4 Bft) O-NO 58 0 min 0,000 mm 0,0 UV-I 0 W/m -2,0 C -14,1 C 37,0 km/h (5 Bft) 98,00 %
20.12.2016 03:48 -1,3 C 95 % 1027,9 hPa 0,0 l/m 28,5 km/h (4 Bft) O 86 0 min 0,000 mm 0,0 UV-I 0 W/m -2,0 C -14,7 C 37,0 km/h (5 Bft) 97,56 %
20.12.2016 03:50 -1,3 C 95 % 1027,9 hPa 0,0 l/m 28,7 km/h (4 Bft) O-NO 74 0 min 0,000 mm 0,0 UV-I 0 W/m -2,0 C -14,8 C 37,0 km/h (5 Bft) 98,11 %
20.12.2016 03:52 -1,3 C 95 % 1027,9 hPa 0,0 l/m 24,9 km/h (4 Bft) O 84 0 min 0,000 mm 0,0 UV-I 0 W/m -2,0 C -13,4 C 32,2 km/h (5 Bft) 98,00 %
20.12.2016 03:54 -1,3 C 95 % 1027,9 hPa 0,0 l/m 24,1 km/h (4 Bft) O-NO 57 0 min 0,000 mm 0,0 UV-I 0 W/m -2,0 C -13,1 C 35,4 km/h (5 Bft) 97,22 %
20.12.2016 03:56 -1,3 C 95 % 1027,9 hPa 0,0 l/m 18,5 km/h (3 Bft) O-NO 73 0 min 0,000 mm 0,0 UV-I 0 W/m -2,0 C -10,6 C 29,0 km/h (5 Bft) 95,92 %
20.12.2016 03:58 -1,4 C 95 % 1027,9 hPa 0,0 l/m 26,1 km/h (4 Bft) O-NO 69 0 min 0,000 mm 0,0 UV-I 0 W/m -2,1 C -14,0 C 35,4 km/h (5 Bft) 97,62 %
20.12.2016 04:00 -1,4 C 95 % 1027,9 hPa 0,0 l/m 23,7 km/h (4 Bft) NO 50 0 min 0,000 mm 0,0 UV-I 0 W/m -2,1 C -13,1 C 32,2 km/h (5 Bft) 98,21 %
20.12.2016 04:02 -1,3 C 95 % 1027,9 hPa 0,0 l/m 22,4 km/h (4 Bft) O-NO 58 0 min 0,000 mm 0,0 UV-I 0 W/m -2,0 C -12,4 C 30,6 km/h (5 Bft) 97,06 %
20.12.2016 04:04 -1,3 C 95 % 1027,9 hPa 0,0 l/m 24,3 km/h (4 Bft) O 88 0 min 0,000 mm 0,0 UV-I 0 W/m -2,0 C -13,2 C 33,8 km/h (5 Bft) 95,45 %
20.12.2016 04:06 -1,4 C 95 % 1027,9 hPa 0,0 l/m 26,1 km/h (4 Bft) O-NO 68 0 min 0,000 mm 0,0 UV-I 0 W/m -2,1 C -14,0 C 40,2 km/h (6 Bft) 97,37 %
20.12.2016 04:08 -1,3 C 95 % 1027,9 hPa 0,0 l/m 22,8 km/h (4 Bft) O 89 0 min 0,000 mm 0,0 UV-I 0 W/m -2,0 C -12,6 C 32,2 km/h (5 Bft) 98,11 %
20.12.2016 04:10 -1,3 C 95 % 1027,9 hPa 0,0 l/m 25,5 km/h (4 Bft) O-NO 74 0 min 0,000 mm 0,0 UV-I 0 W/m -2,0 C -13,7 C 32,2 km/h (5 Bft) 98,11 %
20.12.2016 04:12 -1,3 C 95 % 1027,8 hPa 0,0 l/m 24,6 km/h (4 Bft) NO 41 0 min 0,000 mm 0,0 UV-I 0 W/m -2,0 C -13,3 C 35,4 km/h (5 Bft) 100,00 %
20.12.2016 04:14 -1,3 C 95 % 1027,9 hPa 0,0 l/m 25,5 km/h (4 Bft) NO 50 0 min 0,000 mm 0,0 UV-I 0 W/m -2,0 C -13,7 C 32,2 km/h (5 Bft) 100,00 %
20.12.2016 04:16 -1,3 C 95 % 1027,9 hPa 0,0 l/m 24,8 km/h (4 Bft) O-NO 59 0 min 0,000 mm 0,0 UV-I 0 W/m -2,0 C -13,4 C 33,8 km/h (5 Bft) 97,37 %
20.12.2016 04:18 -1,3 C 95 % 1027,8 hPa 0,0 l/m 25,6 km/h (4 Bft) NO 55 0 min 0,000 mm 0,0 UV-I 0 W/m -2,0 C -13,7 C 38,6 km/h (5 Bft) 100,00 %
20.12.2016 04:20 -1,3 C 95 % 1027,8 hPa 0,0 l/m 24,9 km/h (4 Bft) NO 44 0 min 0,000 mm 0,0 UV-I 0 W/m -2,0 C -13,4 C 37,0 km/h (5 Bft) 100,00 %
20.12.2016 04:22 -1,3 C 95 % 1027,8 hPa 0,0 l/m 23,0 km/h (4 Bft) O-NO 61 0 min 0,000 mm 0,0 UV-I 0 W/m -2,0 C -12,7 C 33,8 km/h (5 Bft) 100,00 %
20.12.2016 04:24 -1,3 C 95 % 1027,8 hPa 0,0 l/m 19,7 km/h (3 Bft) O-NO 61 0 min 0,000 mm 0,0 UV-I 0 W/m -2,0 C -11,2 C 24,1 km/h (4 Bft) 98,00 %
20.12.2016 04:26 -1,3 C 95 % 1027,8 hPa 0,0 l/m 23,4 km/h (4 Bft) O-NO 63 0 min 0,000 mm 0,0 UV-I 0 W/m -2,0 C -12,8 C 35,4 km/h (5 Bft) 100,00 %
20.12.2016 04:28 -1,3 C 95 % 1027,7 hPa 0,0 l/m 27,4 km/h (4 Bft) O-NO 57 0 min 0,000 mm 0,0 UV-I 0 W/m -2,0 C -14,4 C 38,6 km/h (5 Bft) 100,00 %
20.12.2016 04:30 -1,3 C 95 % 1027,7 hPa 0,0 l/m 26,6 km/h (4 Bft) O 81 0 min 0,000 mm 0,0 UV-I 0 W/m -2,0 C -14,1 C 37,0 km/h (5 Bft) 100,00 %
20.12.2016 04:32 -1,3 C 95 % 1027,7 hPa 0,0 l/m 25,9 km/h (4 Bft) O 80 0 min 0,000 mm 0,0 UV-I 0 W/m -2,0 C -13,8 C 33,8 km/h (5 Bft) 100,00 %
20.12.2016 04:34 -1,3 C 95 % 1027,7 hPa 0,0 l/m 21,0 km/h (4 Bft) O-NO 68 0 min 0,000 mm 0,0 UV-I 0 W/m -2,0 C -11,8 C 33,8 km/h (5 Bft) 97,56 %
20.12.2016 04:36 -1,3 C 95 % 1027,7 hPa 0,0 l/m 23,1 km/h (4 Bft) O-NO 67 0 min 0,000 mm 0,0 UV-I 0 W/m -2,0 C -12,7 C 32,2 km/h (5 Bft) 100,00 %
20.12.2016 04:38 -1,3 C 95 % 1027,8 hPa 0,0 l/m 21,7 km/h (4 Bft) O-NO 71 0 min 0,000 mm 0,0 UV-I 0 W/m -2,0 C -12,1 C 30,6 km/h (5 Bft) 100,00 %
20.12.2016 04:40 -1,3 C 95 % 1027,8 hPa 0,0 l/m 17,4 km/h (3 Bft) O-NO 61 0 min 0,000 mm 0,0 UV-I 0 W/m -2,0 C -10,0 C 27,4 km/h (4 Bft) 100,00 %
20.12.2016 04:42 -1,3 C 95 % 1027,7 hPa 0,0 l/m 20,4 km/h (4 Bft) O 79 0 min 0,000 mm 0,0 UV-I 0 W/m -2,0 C -11,5 C 27,4 km/h (4 Bft) 100,00 %
20.12.2016 04:44 -1,3 C 95 % 1027,8 hPa 0,0 l/m 20,5 km/h (4 Bft) O 82 0 min 0,000 mm 0,0 UV-I 0 W/m -2,0 C -11,6 C 27,4 km/h (4 Bft) 98,00 %
20.12.2016 04:46 -1,3 C 95 % 1027,8 hPa 0,0 l/m 21,5 km/h (4 Bft) O-NO 78 0 min 0,000 mm 0,0 UV-I 0 W/m -2,0 C -12,0 C 29,0 km/h (5 Bft) 100,00 %
20.12.2016 04:48 -1,3 C 94 % 1027,8 hPa 0,0 l/m 21,5 km/h (4 Bft) O-SO 105 0 min 0,000 mm 0,0 UV-I 0 W/m -2,1 C -12,0 C 27,4 km/h (4 Bft) 100,00 %
20.12.2016 04:50 -1,3 C 94 % 1027,7 hPa 0,0 l/m 17,3 km/h (3 Bft) O-NO 73 0 min 0,000 mm 0,0 UV-I 0 W/m -2,1 C -9,9 C 25,7 km/h (4 Bft) 100,00 %
20.12.2016 04:52 -1,3 C 95 % 1027,7 hPa 0,0 l/m 19,0 km/h (3 Bft) NO 51 0 min 0,000 mm 0,0 UV-I 0 W/m -2,0 C -10,8 C 29,0 km/h (5 Bft) 98,00 %
20.12.2016 04:54 -1,3 C 94 % 1027,7 hPa 0,0 l/m 22,0 km/h (4 Bft) O-NO 62 0 min 0,000 mm 0,0 UV-I 0 W/m -2,1 C -12,2 C 27,4 km/h (4 Bft) 100,00 %
20.12.2016 04:56 -1,4 C 94 % 1027,7 hPa 0,0 l/m 24,5 km/h (4 Bft) O-NO 64 0 min 0,000 mm 0,0 UV-I 0 W/m -2,2 C -13,4 C 32,2 km/h (5 Bft) 100,00 %
20.12.2016 04:58 -1,4 C 94 % 1027,7 hPa 0,0 l/m 18,2 km/h (3 Bft) O-NO 60 0 min 0,000 mm 0,0 UV-I 0 W/m -2,2 C -10,5 C 29,0 km/h (5 Bft) 96,15 %
20.12.2016 05:00 -1,4 C 94 % 1027,7 hPa 0,0 l/m 17,8 km/h (3 Bft) O 87 0 min 0,000 mm 0,0 UV-I 0 W/m -2,2 C -10,3 C 24,1 km/h (4 Bft) 100,00 %
20.12.2016 05:02 -1,3 C 94 % 1027,7 hPa 0,0 l/m 19,4 km/h (3 Bft) O 80 0 min 0,000 mm 0,0 UV-I 0 W/m -2,1 C -11,0 C 24,1 km/h (4 Bft) 100,00 %
20.12.2016 05:04 -1,3 C 94 % 1027,7 hPa 0,0 l/m 23,1 km/h (4 Bft) O-NO 57 0 min 0,000 mm 0,0 UV-I 0 W/m -2,1 C -12,7 C 29,0 km/h (5 Bft) 97,56 %
20.12.2016 05:06 -1,4 C 95 % 1027,7 hPa 0,0 l/m 20,8 km/h (4 Bft) O 92 0 min 0,000 mm 0,0 UV-I 0 W/m -2,1 C -11,8 C 33,8 km/h (5 Bft) 100,00 %
20.12.2016 05:08 -1,4 C 94 % 1027,6 hPa 0,0 l/m 22,1 km/h (4 Bft) O-NO 77 0 min 0,000 mm 0,0 UV-I 0 W/m -2,2 C -12,4 C 25,7 km/h (4 Bft) 100,00 %
20.12.2016 05:10 -1,4 C 94 % 1027,6 hPa 0,0 l/m 25,7 km/h (4 Bft) O-NO 63 0 min 0,000 mm 0,0 UV-I 0 W/m -2,2 C -13,9 C 37,0 km/h (5 Bft) 100,00 %
20.12.2016 05:12 -1,4 C 94 % 1027,6 hPa 0,0 l/m 24,9 km/h (4 Bft) O 94 0 min 0,000 mm 0,0 UV-I 0 W/m -2,2 C -13,6 C 33,8 km/h (5 Bft) 97,73 %
20.12.2016 05:14 -1,4 C 94 % 1027,5 hPa 0,0 l/m 24,8 km/h (4 Bft) O-NO 67 0 min 0,000 mm 0,0 UV-I 0 W/m -2,2 C -13,5 C 32,2 km/h (5 Bft) 95,12 %
20.12.2016 05:16 -1,4 C 94 % 1027,5 hPa 0,0 l/m 25,2 km/h (4 Bft) O-NO 63 0 min 0,000 mm 0,0 UV-I 0 W/m -2,2 C -13,7 C 32,2 km/h (5 Bft) 100,00 %
20.12.2016 05:20 -1,5 C 94 % 1027,5 hPa 0,0 l/m 24,1 km/h (4 Bft) O-NO 67 0 min 0,000 mm 0,0 UV-I 0 W/m -2,3 C -13,4 C 32,2 km/h (5 Bft) 100,00 %
20.12.2016 05:24 -1,5 C 94 % 1027,5 hPa 0,0 l/m 24,3 km/h (4 Bft) O-NO 64 0 min 0,000 mm 0,0 UV-I 0 W/m -2,3 C -13,5 C 30,6 km/h (5 Bft) 100,00 %
20.12.2016 05:26 -1,5 C 94 % 1027,6 hPa 0,0 l/m 19,9 km/h (4 Bft) O-NO 77 0 min 0,000 mm 0,0 UV-I 0 W/m -2,3 C -11,5 C 24,1 km/h (4 Bft) 100,00 %
20.12.2016 05:28 -1,6 C 94 % 1027,6 hPa 0,0 l/m 24,1 km/h (4 Bft) O-NO 58 0 min 0,000 mm 0,0 UV-I 0 W/m -2,4 C -13,5 C 30,6 km/h (5 Bft) 98,00 %
20.12.2016 05:30 -1,6 C 94 % 1027,6 hPa 0,0 l/m 26,5 km/h (4 Bft) O-NO 63 0 min 0,000 mm 0,0 UV-I 0 W/m -2,4 C -14,5 C 35,4 km/h (5 Bft) 97,44 %
20.12.2016 05:32 -1,6 C 94 % 1027,6 hPa 0,0 l/m 18,6 km/h (3 Bft) O-NO 74 0 min 0,000 mm 0,0 UV-I 0 W/m -2,4 C -11,0 C 22,5 km/h (4 Bft) 100,00 %
20.12.2016 05:34 -1,6 C 94 % 1027,7 hPa 0,0 l/m 23,2 km/h (4 Bft) O 84 0 min 0,000 mm 0,0 UV-I 0 W/m -2,4 C -13,2 C 37,0 km/h (5 Bft) 100,00 %
20.12.2016 05:36 -1,6 C 94 % 1027,7 hPa 0,0 l/m 25,8 km/h (4 Bft) NO 54 0 min 0,000 mm 0,0 UV-I 0 W/m -2,4 C -14,2 C 35,4 km/h (5 Bft) 100,00 %
20.12.2016 05:38 -1,6 C 94 % 1027,7 hPa 0,0 l/m 23,8 km/h (4 Bft) O-NO 66 0 min 0,000 mm 0,0 UV-I 0 W/m -2,4 C -13,4 C 33,8 km/h (5 Bft) 98,44 %
20.12.2016 05:40 -1,6 C 94 % 1027,6 hPa 0,0 l/m 25,6 km/h (4 Bft) NO 53 0 min 0,000 mm 0,0 UV-I 0 W/m -2,4 C -14,1 C 33,8 km/h (5 Bft) 97,62 %
20.12.2016 05:42 -1,6 C 94 % 1027,7 hPa 0,0 l/m 22,4 km/h (4 Bft) O-NO 60 0 min 0,000 mm 0,0 UV-I 0 W/m -2,4 C -12,8 C 29,0 km/h (5 Bft) 96,36 %
20.12.2016 05:44 -1,6 C 94 % 1027,6 hPa 0,0 l/m 23,5 km/h (4 Bft) NO 44 0 min 0,000 mm 0,0 UV-I 0 W/m -2,4 C -13,3 C 33,8 km/h (5 Bft) 97,78 %
20.12.2016 05:46 -1,6 C 94 % 1027,5 hPa 0,0 l/m 24,3 km/h (4 Bft) O-NO 64 0 min 0,000 mm 0,0 UV-I 0 W/m -2,4 C -13,6 C 35,4 km/h (5 Bft) 97,73 %
20.12.2016 05:48 -1,6 C 94 % 1027,6 hPa 0,0 l/m 27,7 km/h (4 Bft) NO 34 0 min 0,000 mm 0,0 UV-I 0 W/m -2,4 C -14,9 C 40,2 km/h (6 Bft) 98,11 %
20.12.2016 05:50 -1,6 C 94 % 1027,6 hPa 0,0 l/m 27,2 km/h (4 Bft) O-NO 69 0 min 0,000 mm 0,0 UV-I 0 W/m -2,4 C -14,7 C 35,4 km/h (5 Bft) 97,56 %
20.12.2016 05:52 -1,7 C 94 % 1027,6 hPa 0,0 l/m 25,7 km/h (4 Bft) O-NO 71 0 min 0,000 mm 0,0 UV-I 0 W/m -2,5 C -14,3 C 35,4 km/h (5 Bft) 98,11 %
20.12.2016 05:54 -1,6 C 94 % 1027,5 hPa 0,0 l/m 23,9 km/h (4 Bft) O-NO 71 0 min 0,000 mm 0,0 UV-I 0 W/m -2,4 C -13,4 C 33,8 km/h (5 Bft) 95,12 %
20.12.2016 05:56 -1,7 C 94 % 1027,6 hPa 0,0 l/m 21,2 km/h (4 Bft) O-NO 57 0 min 0,000 mm 0,0 UV-I 0 W/m -2,5 C -12,4 C 29,0 km/h (5 Bft) 97,73 %
20.12.2016 05:58 -1,6 C 94 % 1027,6 hPa 0,0 l/m 25,7 km/h (4 Bft) NO 49 0 min 0,000 mm 0,0 UV-I 0 W/m -2,4 C -14,2 C 33,8 km/h (5 Bft) 94,64 %
20.12.2016 06:00 -1,6 C 95 % 1027,6 hPa 0,0 l/m 19,9 km/h (4 Bft) O-NO 61 0 min 0,000 mm 0,0 UV-I 0 W/m -2,3 C -11,6 C 25,7 km/h (4 Bft) 97,56 %
20.12.2016 06:02 -1,6 C 95 % 1027,6 hPa 0,0 l/m 21,0 km/h (4 Bft) O-NO 77 0 min 0,000 mm 0,0 UV-I 0 W/m -2,3 C -12,2 C 29,0 km/h (5 Bft) 97,56 %
20.12.2016 06:04 -1,7 C 95 % 1027,6 hPa 0,0 l/m 23,6 km/h (4 Bft) O 85 0 min 0,000 mm 0,0 UV-I 0 W/m -2,4 C -13,5 C 32,2 km/h (5 Bft) 98,31 %
20.12.2016 06:06 -1,6 C 95 % 1027,6 hPa 0,0 l/m 23,8 km/h (4 Bft) NO 49 0 min 0,000 mm 0,0 UV-I 0 W/m -2,3 C -13,4 C 33,8 km/h (5 Bft) 97,37 %
20.12.2016 06:08 -1,7 C 95 % 1027,6 hPa 0,0 l/m 23,7 km/h (4 Bft) O-NO 72 0 min 0,000 mm 0,0 UV-I 0 W/m -2,4 C -13,5 C 30,6 km/h (5 Bft) 98,21 %
20.12.2016 06:10 -1,7 C 95 % 1027,6 hPa 0,0 l/m 21,3 km/h (4 Bft) O-NO 61 0 min 0,000 mm 0,0 UV-I 0 W/m -2,4 C -12,4 C 29,0 km/h (5 Bft) 97,73 %
20.12.2016 06:12 -1,7 C 95 % 1027,5 hPa 0,0 l/m 25,1 km/h (4 Bft) NO 46 0 min 0,000 mm 0,0 UV-I 0 W/m -2,4 C -14,1 C 35,4 km/h (5 Bft) 97,73 %
20.12.2016 06:14 -1,7 C 95 % 1027,5 hPa 0,0 l/m 22,6 km/h (4 Bft) NO 46 0 min 0,000 mm 0,0 UV-I 0 W/m -2,4 C -13,0 C 30,6 km/h (5 Bft) 100,00 %
20.12.2016 06:16 -1,7 C 95 % 1027,5 hPa 0,0 l/m 20,3 km/h (4 Bft) O-NO 62 0 min 0,000 mm 0,0 UV-I 0 W/m -2,4 C -12,0 C 29,0 km/h (5 Bft) 97,37 %
20.12.2016 06:18 -1,7 C 95 % 1027,5 hPa 0,0 l/m 22,3 km/h (4 Bft) O-NO 67 0 min 0,000 mm 0,0 UV-I 0 W/m -2,4 C -12,9 C 35,4 km/h (5 Bft) 98,11 %
20.12.2016 06:20 -1,7 C 95 % 1027,4 hPa 0,0 l/m 19,4 km/h (3 Bft) O-NO 66 0 min 0,000 mm 0,0 UV-I 0 W/m -2,4 C -11,5 C 27,4 km/h (4 Bft) 100,00 %
20.12.2016 06:22 -1,7 C 95 % 1027,5 hPa 0,0 l/m 20,8 km/h (4 Bft) NO 55 0 min 0,000 mm 0,0 UV-I 0 W/m -2,4 C -12,2 C 29,0 km/h (5 Bft) 100,00 %
20.12.2016 06:24 -1,7 C 95 % 1027,4 hPa 0,0 l/m 22,6 km/h (4 Bft) O-NO 65 0 min 0,000 mm 0,0 UV-I 0 W/m -2,4 C -13,0 C 30,6 km/h (5 Bft) 100,00 %
20.12.2016 06:26 -1,7 C 95 % 1027,4 hPa 0,0 l/m 20,4 km/h (4 Bft) O-NO 65 0 min 0,000 mm 0,0 UV-I 0 W/m -2,4 C -12,0 C 25,7 km/h (4 Bft) 97,87 %
20.12.2016 06:28 -1,7 C 95 % 1027,5 hPa 0,0 l/m 17,3 km/h (3 Bft) O-NO 68 0 min 0,000 mm 0,0 UV-I 0 W/m -2,4 C -10,4 C 25,7 km/h (4 Bft) 100,00 %
20.12.2016 06:30 -1,7 C 95 % 1027,4 hPa 0,0 l/m 19,7 km/h (3 Bft) NO 55 0 min 0,000 mm 0,0 UV-I 0 W/m -2,4 C -11,7 C 29,0 km/h (5 Bft) 100,00 %
20.12.2016 06:32 -1,7 C 95 % 1027,5 hPa 0,0 l/m 17,0 km/h (3 Bft) N-NO 24 0 min 0,000 mm 0,0 UV-I 0 W/m -2,4 C -10,2 C 24,1 km/h (4 Bft) 97,56 %
20.12.2016 06:34 -1,7 C 95 % 1027,4 hPa 0,0 l/m 21,6 km/h (4 Bft) O-NO 71 0 min 0,000 mm 0,0 UV-I 0 W/m -2,4 C -12,6 C 30,6 km/h (5 Bft) 98,11 %
20.12.2016 06:36 -1,7 C 95 % 1027,4 hPa 0,0 l/m 23,2 km/h (4 Bft) NO 46 0 min 0,000 mm 0,0 UV-I 0 W/m -2,4 C -13,3 C 30,6 km/h (5 Bft) 100,00 %
20.12.2016 06:38 -1,7 C 95 % 1027,4 hPa 0,0 l/m 20,0 km/h (4 Bft) O-NO 66 0 min 0,000 mm 0,0 UV-I 0 W/m -2,4 C -11,8 C 29,0 km/h (5 Bft) 100,00 %
20.12.2016 06:40 -1,7 C 95 % 1027,4 hPa 0,0 l/m 20,0 km/h (4 Bft) O-NO 75 0 min 0,000 mm 0,0 UV-I 0 W/m -2,4 C -11,8 C 27,4 km/h (4 Bft) 100,00 %
20.12.2016 06:42 -1,7 C 95 % 1027,4 hPa 0,0 l/m 23,1 km/h (4 Bft) O-NO 73 0 min 0,000 mm 0,0 UV-I 0 W/m -2,4 C -13,2 C 32,2 km/h (5 Bft) 100,00 %
20.12.2016 06:44 -1,7 C 95 % 1027,4 hPa 0,0 l/m 21,4 km/h (4 Bft) O-NO 61 0 min 0,000 mm 0,0 UV-I 0 W/m -2,4 C -12,5 C 29,0 km/h (5 Bft) 100,00 %
20.12.2016 06:46 -1,7 C 95 % 1027,4 hPa 0,0 l/m 26,0 km/h (4 Bft) O-NO 58 0 min 0,000 mm 0,0 UV-I 0 W/m -2,4 C -14,4 C 32,2 km/h (5 Bft) 100,00 %
20.12.2016 06:48 -1,7 C 95 % 1027,4 hPa 0,0 l/m 24,0 km/h (4 Bft) O-NO 58 0 min 0,000 mm 0,0 UV-I 0 W/m -2,4 C -13,6 C 32,2 km/h (5 Bft) 100,00 %
20.12.2016 06:50 -1,7 C 95 % 1027,4 hPa 0,0 l/m 16,7 km/h (3 Bft) NO 54 0 min 0,000 mm 0,0 UV-I 0 W/m -2,4 C -10,1 C 24,1 km/h (4 Bft) 100,00 %
20.12.2016 06:52 -1,7 C 95 % 1027,4 hPa 0,0 l/m 14,5 km/h (3 Bft) O-NO 71 0 min 0,000 mm 0,0 UV-I 0 W/m -2,4 C -8,7 C 22,5 km/h (4 Bft) 100,00 %
20.12.2016 06:54 -1,7 C 95 % 1027,4 hPa 0,0 l/m 14,9 km/h (3 Bft) NO 42 0 min 0,000 mm 0,0 UV-I 0 W/m -2,4 C -9,0 C 25,7 km/h (4 Bft) 100,00 %
20.12.2016 06:56 -1,7 C 95 % 1027,4 hPa 0,0 l/m 18,6 km/h (3 Bft) O-NO 71 0 min 0,000 mm 0,0 UV-I 0 W/m -2,4 C -11,1 C 29,0 km/h (5 Bft) 100,00 %
20.12.2016 06:58 -1,7 C 95 % 1027,4 hPa 0,0 l/m 20,0 km/h (4 Bft) O-NO 57 0 min 0,000 mm 0,0 UV-I 0 W/m -2,4 C -11,8 C 29,0 km/h (5 Bft) 100,00 %
20.12.2016 07:00 -1,7 C 95 % 1027,4 hPa 0,0 l/m 17,2 km/h (3 Bft) O-NO 75 0 min 0,000 mm 0,0 UV-I 0 W/m -2,4 C -10,4 C 22,5 km/h (4 Bft) 100,00 %
20.12.2016 07:02 -1,7 C 95 % 1027,4 hPa 0,0 l/m 22,6 km/h (4 Bft) O-NO 61 0 min 0,000 mm 0,0 UV-I 0 W/m -2,4 C -13,0 C 32,2 km/h (5 Bft) 100,00 %
20.12.2016 07:04 -1,7 C 95 % 1027,4 hPa 0,0 l/m 21,1 km/h (4 Bft) O 79 0 min 0,000 mm 0,0 UV-I 0 W/m -2,4 C -12,4 C 27,4 km/h (4 Bft) 100,00 %
20.12.2016 07:06 -1,7 C 95 % 1027,4 hPa 0,0 l/m 17,2 km/h (3 Bft) O-NO 63 0 min 0,000 mm 0,0 UV-I 0 W/m -2,4 C -10,4 C 25,7 km/h (4 Bft) 100,00 %
20.12.2016 07:08 -1,7 C 95 % 1027,4 hPa 0,0 l/m 24,6 km/h (4 Bft) O-NO 76 0 min 0,000 mm 0,0 UV-I 0 W/m -2,4 C -13,9 C 32,2 km/h (5 Bft) 97,44 %
20.12.2016 07:10 -1,8 C 95 % 1027,4 hPa 0,0 l/m 25,7 km/h (4 Bft) O-NO 65 0 min 0,000 mm 0,0 UV-I 0 W/m -2,5 C -14,4 C 33,8 km/h (5 Bft) 100,00 %
20.12.2016 07:12 -1,8 C 95 % 1027,3 hPa 0,0 l/m 22,0 km/h (4 Bft) NO 54 0 min 0,000 mm 0,0 UV-I 0 W/m -2,5 C -12,9 C 30,6 km/h (5 Bft) 100,00 %
20.12.2016 07:14 -1,8 C 95 % 1027,3 hPa 0,0 l/m 24,3 km/h (4 Bft) NO 51 0 min 0,000 mm 0,0 UV-I 0 W/m -2,5 C -13,9 C 37,0 km/h (5 Bft) 100,00 %
20.12.2016 07:16 -1,8 C 95 % 1027,3 hPa 0,0 l/m 24,1 km/h (4 Bft) NO 55 0 min 0,000 mm 0,0 UV-I 0 W/m -2,5 C -13,8 C 33,8 km/h (5 Bft) 96,92 %
20.12.2016 07:18 -1,8 C 95 % 1027,3 hPa 0,0 l/m 23,9 km/h (4 Bft) NO 50 0 min 0,000 mm 0,0 UV-I 0 W/m -2,5 C -13,7 C 33,8 km/h (5 Bft) 100,00 %
20.12.2016 07:20 -1,8 C 95 % 1027,3 hPa 0,0 l/m 25,2 km/h (4 Bft) O 96 0 min 0,000 mm 0,0 UV-I 0 W/m -2,5 C -14,2 C 35,4 km/h (5 Bft) 100,00 %
20.12.2016 07:22 -1,7 C 95 % 1027,4 hPa 0,0 l/m 21,6 km/h (4 Bft) O 80 0 min 0,000 mm 0,0 UV-I 0 W/m -2,4 C -12,6 C 32,2 km/h (5 Bft) 100,00 %
20.12.2016 07:24 -1,7 C 95 % 1027,4 hPa 0,0 l/m 22,4 km/h (4 Bft) NO 47 0 min 0,000 mm 0,0 UV-I 0 W/m -2,4 C -12,9 C 29,0 km/h (5 Bft) 97,56 %
20.12.2016 07:26 -1,8 C 95 % 1027,4 hPa 0,0 l/m 28,0 km/h (4 Bft) NO 36 0 min 0,000 mm 0,0 UV-I 0 W/m -2,5 C -15,3 C 38,6 km/h (5 Bft) 100,00 %
20.12.2016 07:28 -1,7 C 95 % 1027,4 hPa 0,0 l/m 28,1 km/h (4 Bft) NO 52 0 min 0,000 mm 0,0 UV-I 0 W/m -2,4 C -15,2 C 43,5 km/h (6 Bft) 100,00 %
20.12.2016 07:30 -1,7 C 95 % 1027,4 hPa 0,0 l/m 26,7 km/h (4 Bft) O-NO 74 0 min 0,000 mm 0,0 UV-I 0 W/m -2,4 C -14,7 C 35,4 km/h (5 Bft) 100,00 %
20.12.2016 07:32 -1,7 C 95 % 1027,4 hPa 0,0 l/m 23,1 km/h (4 Bft) O-NO 69 0 min 0,000 mm 0,0 UV-I 0 W/m -2,4 C -13,2 C 32,2 km/h (5 Bft) 100,00 %
20.12.2016 07:34 -1,7 C 95 % 1027,4 hPa 0,0 l/m 25,4 km/h (4 Bft) NO 41 0 min 0,000 mm 0,0 UV-I 0 W/m -2,4 C -14,2 C 35,4 km/h (5 Bft) 100,00 %
20.12.2016 07:36 -1,7 C 95 % 1027,4 hPa 0,0 l/m 26,5 km/h (4 Bft) O-NO 60 0 min 0,000 mm 0,0 UV-I 0 W/m -2,4 C -14,6 C 32,2 km/h (5 Bft) 100,00 %
20.12.2016 07:38 -1,7 C 95 % 1027,4 hPa 0,0 l/m 25,8 km/h (4 Bft) O-NO 74 0 min 0,000 mm 0,0 UV-I 0 W/m -2,4 C -14,3 C 35,4 km/h (5 Bft) 93,62 %
20.12.2016 07:40 -1,7 C 95 % 1027,4 hPa 0,0 l/m 23,6 km/h (4 Bft) O 80 0 min 0,000 mm 0,0 UV-I 0 W/m -2,4 C -13,5 C 35,4 km/h (5 Bft) 100,00 %
20.12.2016 07:42 -1,7 C 95 % 1027,5 hPa 0,0 l/m 23,7 km/h (4 Bft) O-NO 67 0 min 0,000 mm 0,0 UV-I 0 W/m -2,4 C -13,5 C 30,6 km/h (5 Bft) 94,23 %
20.12.2016 07:44 -1,7 C 95 % 1027,4 hPa 0,0 l/m 22,5 km/h (4 Bft) NO 52 0 min 0,000 mm 0,0 UV-I 0 W/m -2,4 C -13,0 C 32,2 km/h (5 Bft) 97,62 %
20.12.2016 07:46 -1,7 C 95 % 1027,4 hPa 0,0 l/m 25,6 km/h (4 Bft) O-NO 65 0 min 0,000 mm 0,0 UV-I 0 W/m -2,4 C -14,3 C 37,0 km/h (5 Bft) 100,00 %
20.12.2016 07:48 -1,7 C 95 % 1027,4 hPa 0,0 l/m 22,4 km/h (4 Bft) O-NO 63 0 min 0,000 mm 0,0 UV-I 0 W/m -2,4 C -12,9 C 27,4 km/h (4 Bft) 95,95 %
20.12.2016 07:50 -1,7 C 95 % 1027,4 hPa 0,0 l/m 19,3 km/h (3 Bft) O-NO 64 0 min 0,000 mm 0,0 UV-I 4 W/m -2,4 C -11,5 C 30,6 km/h (5 Bft) 97,37 %
20.12.2016 07:52 -1,7 C 95 % 1027,4 hPa 0,0 l/m 21,9 km/h (4 Bft) O-NO 61 0 min 0,000 mm 0,0 UV-I 2 W/m -2,4 C -12,7 C 33,8 km/h (5 Bft) 95,74 %
20.12.2016 07:54 -1,7 C 95 % 1027,4 hPa 0,0 l/m 19,1 km/h (3 Bft) O-NO 71 0 min 0,000 mm 0,0 UV-I 3 W/m -2,4 C -11,4 C 25,7 km/h (4 Bft) 98,00 %
20.12.2016 07:56 -1,7 C 95 % 1027,3 hPa 0,0 l/m 18,0 km/h (3 Bft) O-NO 70 0 min 0,000 mm 0,0 UV-I 5 W/m -2,4 C -10,8 C 24,1 km/h (4 Bft) 96,00 %
20.12.2016 07:58 -1,7 C 95 % 1027,4 hPa 0,0 l/m 21,5 km/h (4 Bft) O-NO 74 0 min 0,000 mm 0,0 UV-I 5 W/m -2,4 C -12,5 C 35,4 km/h (5 Bft) 95,12 %
20.12.2016 08:00 -1,7 C 95 % 1027,3 hPa 0,0 l/m 29,8 km/h (5 Bft) O-NO 61 0 min 0,000 mm 0,0 UV-I 5 W/m -2,4 C -15,7 C 38,6 km/h (5 Bft) 98,11 %
20.12.2016 08:02 -1,7 C 95 % 1027,3 hPa 0,0 l/m 25,9 km/h (4 Bft) O-NO 62 0 min 0,000 mm 0,0 UV-I 5 W/m -2,4 C -14,4 C 37,0 km/h (5 Bft) 97,56 %
20.12.2016 08:04 -1,7 C 95 % 1027,3 hPa 0,0 l/m 25,1 km/h (4 Bft) NO 49 0 min 0,000 mm 0,0 UV-I 5 W/m -2,4 C -14,1 C 35,4 km/h (5 Bft) 98,00 %
20.12.2016 08:06 -1,7 C 95 % 1027,3 hPa 0,0 l/m 27,0 km/h (4 Bft) O-NO 74 0 min 0,000 mm 0,0 UV-I 7 W/m -2,4 C -14,8 C 40,2 km/h (6 Bft) 97,56 %
20.12.2016 08:08 -1,7 C 95 % 1027,4 hPa 0,0 l/m 22,7 km/h (4 Bft) O 80 0 min 0,000 mm 0,0 UV-I 6 W/m -2,4 C -13,1 C 30,6 km/h (5 Bft) 97,87 %
20.12.2016 08:10 -1,8 C 95 % 1027,4 hPa 0,0 l/m 28,6 km/h (4 Bft) NO 39 0 min 0,000 mm 0,0 UV-I 7 W/m -2,5 C -15,5 C 40,2 km/h (6 Bft) 97,37 %
20.12.2016 08:12 -1,8 C 95 % 1027,3 hPa 0,0 l/m 25,0 km/h (4 Bft) O-NO 58 0 min 0,000 mm 0,0 UV-I 7 W/m -2,5 C -14,2 C 33,8 km/h (5 Bft) 96,23 %
20.12.2016 08:14 -1,8 C 95 % 1027,4 hPa 0,0 l/m 28,1 km/h (4 Bft) O-NO 61 0 min 0,000 mm 0,0 UV-I 7 W/m -2,5 C -15,3 C 38,6 km/h (5 Bft) 96,43 %
20.12.2016 08:16 -1,8 C 95 % 1027,4 hPa 0,0 l/m 26,4 km/h (4 Bft) O-NO 69 0 min 0,000 mm 0,0 UV-I 7 W/m -2,5 C -14,7 C 37,0 km/h (5 Bft) 97,44 %
20.12.2016 08:18 -1,8 C 95 % 1027,3 hPa 0,0 l/m 27,2 km/h (4 Bft) O-NO 77 0 min 0,000 mm 0,0 UV-I 8 W/m -2,5 C -15,0 C 33,8 km/h (5 Bft) 100,00 %
20.12.2016 08:20 -1,8 C 95 % 1027,3 hPa 0,0 l/m 28,7 km/h (4 Bft) O 89 0 min 0,000 mm 0,0 UV-I 9 W/m -2,5 C -15,5 C 37,0 km/h (5 Bft) 100,00 %
20.12.2016 08:22 -1,8 C 95 % 1027,3 hPa 0,0 l/m 29,5 km/h (5 Bft) O-NO 59 0 min 0,000 mm 0,0 UV-I 8 W/m -2,5 C -15,8 C 37,0 km/h (5 Bft) 98,00 %
20.12.2016 08:24 -1,8 C 95 % 1027,4 hPa 0,0 l/m 25,7 km/h (4 Bft) NO 56 0 min 0,000 mm 0,0 UV-I 9 W/m -2,5 C -14,4 C 32,2 km/h (5 Bft) 100,00 %
20.12.2016 08:26 -1,8 C 95 % 1027,4 hPa 0,0 l/m 24,0 km/h (4 Bft) O-NO 76 0 min 0,000 mm 0,0 UV-I 10 W/m -2,5 C -13,8 C 32,2 km/h (5 Bft) 98,11 %
20.12.2016 08:28 -1,8 C 95 % 1027,3 hPa 0,0 l/m 27,7 km/h (4 Bft) NO 55 0 min 0,000 mm 0,0 UV-I 10 W/m -2,5 C -15,2 C 40,2 km/h (6 Bft) 100,00 %
20.12.2016 08:30 -1,8 C 95 % 1027,4 hPa 0,0 l/m 31,6 km/h (5 Bft) NO 49 0 min 0,000 mm 0,0 UV-I 10 W/m -2,5 C -16,4 C 45,1 km/h (6 Bft) 100,00 %
20.12.2016 08:32 -1,8 C 95 % 1027,4 hPa 0,0 l/m 26,7 km/h (4 Bft) NO 40 0 min 0,000 mm 0,0 UV-I 11 W/m -2,5 C -14,8 C 35,4 km/h (5 Bft) 97,73 %
20.12.2016 08:34 -1,8 C 95 % 1027,4 hPa 0,0 l/m 30,7 km/h (5 Bft) O-NO 63 0 min 0,000 mm 0,0 UV-I 12 W/m -2,5 C -16,2 C 40,2 km/h (6 Bft) 100,00 %
20.12.2016 08:36 -1,8 C 95 % 1027,4 hPa 0,0 l/m 29,6 km/h (5 Bft) O-NO 62 0 min 0,000 mm 0,0 UV-I 12 W/m -2,5 C -15,8 C 38,6 km/h (5 Bft) 100,00 %
20.12.2016 08:38 -1,8 C 95 % 1027,4 hPa 0,0 l/m 28,3 km/h (4 Bft) O 87 0 min 0,000 mm 0,0 UV-I 13 W/m -2,5 C -15,4 C 41,8 km/h (6 Bft) 100,00 %
20.12.2016 08:40 -1,8 C 95 % 1027,5 hPa 0,0 l/m 24,9 km/h (4 Bft) O-NO 57 0 min 0,000 mm 0,0 UV-I 12 W/m -2,5 C -14,1 C 33,8 km/h (5 Bft) 100,00 %
20.12.2016 08:42 -1,8 C 95 % 1027,5 hPa 0,0 l/m 23,9 km/h (4 Bft) NO 51 0 min 0,000 mm 0,0 UV-I 13 W/m -2,5 C -13,7 C 35,4 km/h (5 Bft) 100,00 %
20.12.2016 08:44 -1,8 C 95 % 1027,4 hPa 0,0 l/m 24,1 km/h (4 Bft) NO 46 0 min 0,000 mm 0,0 UV-I 15 W/m -2,5 C -13,8 C 30,6 km/h (5 Bft) 100,00 %
20.12.2016 08:46 -1,8 C 95 % 1027,5 hPa 0,0 l/m 24,1 km/h (4 Bft) O-NO 71 0 min 0,000 mm 0,0 UV-I 16 W/m -2,5 C -13,8 C 30,6 km/h (5 Bft) 100,00 %
20.12.2016 08:48 -1,8 C 95 % 1027,4 hPa 0,0 l/m 27,4 km/h (4 Bft) O-NO 60 0 min 0,000 mm 0,0 UV-I 16 W/m -2,5 C -15,1 C 38,6 km/h (5 Bft) 98,11 %
20.12.2016 08:50 -1,8 C 95 % 1027,5 hPa 0,0 l/m 27,9 km/h (4 Bft) O-NO 75 0 min 0,000 mm 0,0 UV-I 21 W/m -2,5 C -15,2 C 35,4 km/h (5 Bft) 100,00 %
20.12.2016 08:52 -1,8 C 95 % 1027,4 hPa 0,0 l/m 26,2 km/h (4 Bft) O-NO 63 0 min 0,000 mm 0,0 UV-I 21 W/m -2,5 C -14,6 C 41,8 km/h (6 Bft) 100,00 %
20.12.2016 08:54 -1,8 C 95 % 1027,4 hPa 0,0 l/m 23,2 km/h (4 Bft) O 90 0 min 0,000 mm 0,0 UV-I 16 W/m -2,5 C -13,4 C 29,0 km/h (5 Bft) 100,00 %
20.12.2016 08:56 -1,8 C 95 % 1027,4 hPa 0,0 l/m 22,2 km/h (4 Bft) O-NO 76 0 min 0,000 mm 0,0 UV-I 19 W/m -2,5 C -13,0 C 32,2 km/h (5 Bft) 100,00 %
20.12.2016 08:58 -1,8 C 95 % 1027,4 hPa 0,0 l/m 22,2 km/h (4 Bft) NO 45 0 min 0,000 mm 0,0 UV-I 22 W/m -2,5 C -13,0 C 27,4 km/h (4 Bft) 100,00 %
20.12.2016 09:00 -1,8 C 95 % 1027,4 hPa 0,0 l/m 20,2 km/h (4 Bft) O-NO 70 0 min 0,000 mm 0,0 UV-I 20 W/m -2,5 C -12,1 C 25,7 km/h (4 Bft) 100,00 %
20.12.2016 09:02 -1,8 C 95 % 1027,4 hPa 0,0 l/m 21,7 km/h (4 Bft) O-NO 65 0 min 0,000 mm 0,0 UV-I 19 W/m -2,5 C -12,8 C 32,2 km/h (5 Bft) 100,00 %
20.12.2016 09:04 -1,8 C 95 % 1027,3 hPa 0,0 l/m 28,3 km/h (4 Bft) O 84 0 min 0,000 mm 0,0 UV-I 20 W/m -2,5 C -15,4 C 40,2 km/h (6 Bft) 100,00 %
20.12.2016 09:06 -1,8 C 95 % 1027,3 hPa 0,0 l/m 28,4 km/h (4 Bft) NO 40 0 min 0,000 mm 0,0 UV-I 21 W/m -2,5 C -15,4 C 41,8 km/h (6 Bft) 100,00 %
20.12.2016 09:08 -1,9 C 95 % 1027,4 hPa 0,0 l/m 26,0 km/h (4 Bft) O-NO 78 0 min 0,000 mm 0,0 UV-I 23 W/m -2,6 C -14,7 C 40,2 km/h (6 Bft) 97,37 %
20.12.2016 09:10 -1,9 C 95 % 1027,4 hPa 0,0 l/m 26,8 km/h (4 Bft) O-NO 63 0 min 0,000 mm 0,0 UV-I 21 W/m -2,6 C -15,0 C 33,8 km/h (5 Bft) 100,00 %
20.12.2016 09:12 -1,9 C 95 % 1027,3 hPa 0,0 l/m 28,2 km/h (4 Bft) O-NO 63 0 min 0,000 mm 0,0 UV-I 23 W/m -2,6 C -15,5 C 35,4 km/h (5 Bft) 100,00 %
20.12.2016 09:14 -1,9 C 95 % 1027,3 hPa 0,0 l/m 33,5 km/h (5 Bft) O-NO 65 0 min 0,000 mm 0,0 UV-I 22 W/m -2,6 C -17,1 C 38,6 km/h (5 Bft) 98,21 %
20.12.2016 09:16 -1,9 C 95 % 1027,3 hPa 0,0 l/m 26,7 km/h (4 Bft) NO 52 0 min 0,000 mm 0,0 UV-I 24 W/m -2,6 C -14,9 C 37,0 km/h (5 Bft) 97,73 %
20.12.2016 09:18 -1,9 C 95 % 1027,2 hPa 0,0 l/m 22,5 km/h (4 Bft) O-NO 75 0 min 0,000 mm 0,0 UV-I 23 W/m -2,6 C -13,3 C 29,0 km/h (5 Bft) 98,00 %
20.12.2016 09:20 -1,9 C 95 % 1027,3 hPa 0,0 l/m 23,5 km/h (4 Bft) NO 53 0 min 0,000 mm 0,0 UV-I 25 W/m -2,6 C -13,7 C 33,8 km/h (5 Bft) 100,00 %
20.12.2016 09:22 -1,9 C 95 % 1027,3 hPa 0,0 l/m 23,9 km/h (4 Bft) N-NO 33 0 min 0,000 mm 0,0 UV-I 25 W/m -2,6 C -13,8 C 32,2 km/h (5 Bft) 98,00 %
20.12.2016 09:24 -1,9 C 95 % 1027,3 hPa 0,0 l/m 27,5 km/h (4 Bft) NO 48 0 min 0,000 mm 0,0 UV-I 26 W/m -2,6 C -15,2 C 35,4 km/h (5 Bft) 100,00 %
20.12.2016 09:26 -1,9 C 95 % 1027,3 hPa 0,0 l/m 23,9 km/h (4 Bft) O-NO 58 0 min 0,000 mm 0,0 UV-I 25 W/m -2,6 C -13,8 C 35,4 km/h (5 Bft) 100,00 %
20.12.2016 09:28 -1,9 C 95 % 1027,4 hPa 0,0 l/m 25,3 km/h (4 Bft) O-NO 58 0 min 0,000 mm 0,0 UV-I 24 W/m -2,6 C -14,4 C 37,0 km/h (5 Bft) 100,00 %
20.12.2016 09:30 -1,9 C 95 % 1027,4 hPa 0,0 l/m 23,4 km/h (4 Bft) O-NO 60 0 min 0,000 mm 0,0 UV-I 25 W/m -2,6 C -13,6 C 29,0 km/h (5 Bft) 100,00 %
20.12.2016 09:32 -1,9 C 95 % 1027,4 hPa 0,0 l/m 28,7 km/h (4 Bft) O-NO 68 0 min 0,000 mm 0,0 UV-I 27 W/m -2,6 C -15,6 C 35,4 km/h (5 Bft) 100,00 %
20.12.2016 09:34 -1,9 C 95 % 1027,4 hPa 0,0 l/m 26,7 km/h (4 Bft) O-NO 67 0 min 0,000 mm 0,0 UV-I 27 W/m -2,6 C -14,9 C 33,8 km/h (5 Bft) 100,00 %
20.12.2016 09:36 -1,9 C 95 % 1027,4 hPa 0,0 l/m 29,8 km/h (5 Bft) O-NO 65 0 min 0,000 mm 0,0 UV-I 27 W/m -2,6 C -16,0 C 40,2 km/h (6 Bft) 100,00 %
20.12.2016 09:38 -1,9 C 95 % 1027,4 hPa 0,0 l/m 29,4 km/h (5 Bft) NO 54 0 min 0,000 mm 0,0 UV-I 27 W/m -2,6 C -15,9 C 38,6 km/h (5 Bft) 98,00 %
20.12.2016 09:40 -1,9 C 95 % 1027,4 hPa 0,0 l/m 28,3 km/h (4 Bft) O-NO 71 0 min 0,000 mm 0,0 UV-I 28 W/m -2,6 C -15,5 C 38,6 km/h (5 Bft) 100,00 %
20.12.2016 09:42 -1,9 C 95 % 1027,5 hPa 0,0 l/m 28,0 km/h (4 Bft) O 90 0 min 0,000 mm 0,0 UV-I 29 W/m -2,6 C -15,4 C 37,0 km/h (5 Bft) 100,00 %
20.12.2016 09:44 -1,9 C 95 % 1027,5 hPa 0,0 l/m 22,0 km/h (4 Bft) NO 45 0 min 0,000 mm 0,0 UV-I 26 W/m -2,6 C -13,0 C 29,0 km/h (5 Bft) 100,00 %
20.12.2016 09:46 -1,9 C 96 % 1027,4 hPa 0,0 l/m 21,9 km/h (4 Bft) O-NO 63 0 min 0,000 mm 0,0 UV-I 26 W/m -2,5 C -13,0 C 32,2 km/h (5 Bft) 96,43 %
20.12.2016 09:48 -1,9 C 96 % 1027,4 hPa 0,0 l/m 22,9 km/h (4 Bft) O-NO 63 0 min 0,000 mm 0,0 UV-I 26 W/m -2,5 C -13,4 C 30,6 km/h (5 Bft) 97,37 %
20.12.2016 09:50 -1,9 C 96 % 1027,4 hPa 0,0 l/m 27,4 km/h (4 Bft) O-NO 61 0 min 0,000 mm 0,0 UV-I 30 W/m -2,5 C -15,2 C 37,0 km/h (5 Bft) 94,74 %
20.12.2016 09:52 -1,9 C 96 % 1027,4 hPa 0,0 l/m 27,2 km/h (4 Bft) O-NO 63 0 min 0,000 mm 0,0 UV-I 30 W/m -2,5 C -15,1 C 32,2 km/h (5 Bft) 97,56 %
20.12.2016 09:54 -1,9 C 96 % 1027,3 hPa 0,0 l/m 26,2 km/h (4 Bft) O-NO 65 0 min 0,000 mm 0,0 UV-I 28 W/m -2,5 C -14,8 C 43,5 km/h (6 Bft) 96,00 %
20.12.2016 09:56 -1,9 C 96 % 1027,3 hPa 0,0 l/m 27,9 km/h (4 Bft) N-NO 30 0 min 0,000 mm 0,0 UV-I 28 W/m -2,5 C -15,4 C 37,0 km/h (5 Bft) 95,12 %
20.12.2016 09:58 -2,0 C 95 % 1027,3 hPa 0,0 l/m 30,1 km/h (5 Bft) O-NO 69 0 min 0,000 mm 0,0 UV-I 28 W/m -2,7 C -16,3 C 41,8 km/h (6 Bft) 96,43 %
20.12.2016 10:00 -2,0 C 95 % 1027,3 hPa 0,0 l/m 28,9 km/h (5 Bft) O 80 0 min 0,025 mm 0,0 UV-I 29 W/m -2,7 C -15,9 C 43,5 km/h (6 Bft) 95,12 %
20.12.2016 10:02 -2,0 C 96 % 1027,3 hPa 0,0 l/m 26,0 km/h (4 Bft) O 82 0 min 0,000 mm 0,0 UV-I 31 W/m -2,6 C -14,8 C 33,8 km/h (5 Bft) 97,73 %
20.12.2016 10:04 -2,0 C 96 % 1027,3 hPa 0,0 l/m 28,0 km/h (4 Bft) O-NO 76 0 min 0,000 mm 0,0 UV-I 30 W/m -2,6 C -15,5 C 37,0 km/h (5 Bft) 98,00 %
20.12.2016 10:06 -2,0 C 96 % 1027,3 hPa 0,0 l/m 25,6 km/h (4 Bft) O-NO 61 0 min 0,000 mm 0,0 UV-I 29 W/m -2,6 C -14,7 C 38,6 km/h (5 Bft) 97,87 %
20.12.2016 10:08 -2,0 C 96 % 1027,3 hPa 0,0 l/m 28,2 km/h (4 Bft) NO 43 0 min 0,000 mm 0,0 UV-I 31 W/m -2,6 C -15,6 C 43,5 km/h (6 Bft) 97,73 %
20.12.2016 10:10 -2,0 C 96 % 1027,3 hPa 0,0 l/m 28,4 km/h (4 Bft) O-NO 60 0 min 0,000 mm 0,0 UV-I 30 W/m -2,6 C -15,7 C 37,0 km/h (5 Bft) 97,73 %
20.12.2016 10:12 -2,0 C 96 % 1027,3 hPa 0,0 l/m 21,8 km/h (4 Bft) O-NO 65 0 min 0,000 mm 0,0 UV-I 30 W/m -2,6 C -13,1 C 33,8 km/h (5 Bft) 98,21 %
20.12.2016 10:14 -2,0 C 96 % 1027,3 hPa 0,0 l/m 26,7 km/h (4 Bft) N-NO 33 0 min 0,000 mm 0,0 UV-I 27 W/m -2,6 C -15,1 C 37,0 km/h (5 Bft) 94,74 %
20.12.2016 10:16 -2,0 C 96 % 1027,3 hPa 0,0 l/m 22,3 km/h (4 Bft) O-NO 64 0 min 0,000 mm 0,0 UV-I 31 W/m -2,6 C -13,3 C 29,0 km/h (5 Bft) 92,86 %
20.12.2016 10:18 -2,0 C 96 % 1027,3 hPa 0,0 l/m 23,2 km/h (4 Bft) NO 55 0 min 0,000 mm 0,0 UV-I 31 W/m -2,6 C -13,7 C 37,0 km/h (5 Bft) 94,87 %
20.12.2016 10:20 -2,0 C 96 % 1027,2 hPa 0,0 l/m 31,0 km/h (5 Bft) O-NO 59 0 min 0,000 mm 0,0 UV-I 32 W/m -2,6 C -16,5 C 40,2 km/h (6 Bft) 100,00 %
20.12.2016 10:22 -2,1 C 96 % 1027,2 hPa 0,0 l/m 26,9 km/h (4 Bft) O-NO 74 0 min 0,000 mm 0,0 UV-I 32 W/m -2,6 C -15,3 C 35,4 km/h (5 Bft) 100,00 %
20.12.2016 10:24 -2,1 C 96 % 1027,1 hPa 0,0 l/m 28,0 km/h (4 Bft) O 84 0 min 0,000 mm 0,0 UV-I 31 W/m -2,6 C -15,7 C 35,4 km/h (5 Bft) 100,00 %
20.12.2016 10:26 -2,1 C 96 % 1027,2 hPa 0,0 l/m 29,6 km/h (5 Bft) O-NO 64 0 min 0,000 mm 0,0 UV-I 31 W/m -2,6 C -16,2 C 41,8 km/h (6 Bft) 100,00 %
20.12.2016 10:28 -2,1 C 96 % 1027,1 hPa 0,0 l/m 23,5 km/h (4 Bft) O-NO 59 0 min 0,000 mm 0,0 UV-I 32 W/m -2,6 C -13,9 C 32,2 km/h (5 Bft) 97,56 %
20.12.2016 10:30 -2,1 C 96 % 1027,2 hPa 0,0 l/m 26,8 km/h (4 Bft) O-NO 63 0 min 0,000 mm 0,0 UV-I 33 W/m -2,6 C -15,3 C 37,0 km/h (5 Bft) 100,00 %
20.12.2016 10:32 -2,1 C 96 % 1027,1 hPa 0,0 l/m 28,3 km/h (4 Bft) O-NO 66 0 min 0,000 mm 0,0 UV-I 36 W/m -2,6 C -15,8 C 35,4 km/h (5 Bft) 100,00 %
20.12.2016 10:34 -2,1 C 96 % 1027,2 hPa 0,0 l/m 26,4 km/h (4 Bft) O-NO 63 0 min 0,000 mm 0,0 UV-I 33 W/m -2,6 C -15,1 C 37,0 km/h (5 Bft) 100,00 %
20.12.2016 10:36 -2,1 C 96 % 1027,2 hPa 0,0 l/m 30,2 km/h (5 Bft) O-NO 75 0 min 0,000 mm 0,0 UV-I 36 W/m -2,6 C -16,4 C 41,8 km/h (6 Bft) 98,00 %
20.12.2016 10:38 -2,1 C 96 % 1027,1 hPa 0,0 l/m 25,9 km/h (4 Bft) O-NO 68 0 min 0,000 mm 0,0 UV-I 36 W/m -2,6 C -14,9 C 32,2 km/h (5 Bft) 100,00 %
20.12.2016 10:40 -2,1 C 96 % 1027,1 hPa 0,0 l/m 24,1 km/h (4 Bft) O-NO 57 0 min 0,000 mm 0,0 UV-I 36 W/m -2,6 C -14,2 C 33,8 km/h (5 Bft) 100,00 %
20.12.2016 10:42 -2,1 C 96 % 1027,1 hPa 0,0 l/m 24,3 km/h (4 Bft) O-NO 69 0 min 0,000 mm 0,0 UV-I 40 W/m -2,6 C -14,3 C 33,8 km/h (5 Bft) 100,00 %
20.12.2016 10:44 -2,1 C 96 % 1027,1 hPa 0,0 l/m 30,2 km/h (5 Bft) NO 42 0 min 0,000 mm 0,0 UV-I 41 W/m -2,6 C -16,4 C 40,2 km/h (6 Bft) 100,00 %
20.12.2016 10:46 -2,1 C 96 % 1027,1 hPa 0,0 l/m 23,6 km/h (4 Bft) O-NO 66 0 min 0,000 mm 0,0 UV-I 41 W/m -2,6 C -14,0 C 32,2 km/h (5 Bft) 100,00 %
20.12.2016 10:48 -2,1 C 96 % 1027,2 hPa 0,0 l/m 24,7 km/h (4 Bft) O 84 0 min 0,000 mm 0,0 UV-I 40 W/m -2,6 C -14,4 C 32,2 km/h (5 Bft) 100,00 %
20.12.2016 10:50 -2,1 C 96 % 1027,1 hPa 0,0 l/m 23,8 km/h (4 Bft) NO 44 0 min 0,000 mm 0,0 UV-I 38 W/m -2,6 C -14,1 C 32,2 km/h (5 Bft) 97,87 %
20.12.2016 10:52 -2,1 C 96 % 1027,0 hPa 0,0 l/m 28,0 km/h (4 Bft) NO 49 0 min 0,000 mm 0,0 UV-I 39 W/m -2,6 C -15,7 C 38,6 km/h (5 Bft) 100,00 %
20.12.2016 10:54 -2,1 C 96 % 1027,1 hPa 0,0 l/m 27,8 km/h (4 Bft) NO 51 0 min 0,000 mm 0,0 UV-I 40 W/m -2,6 C -15,6 C 32,2 km/h (5 Bft) 100,00 %
20.12.2016 10:56 -2,1 C 96 % 1027,0 hPa 0,0 l/m 23,3 km/h (4 Bft) O-NO 57 0 min 0,000 mm 0,0 UV-I 41 W/m -2,6 C -13,9 C 35,4 km/h (5 Bft) 100,00 %
20.12.2016 10:58 -2,1 C 96 % 1027,0 hPa 0,0 l/m 28,7 km/h (4 Bft) NO 38 0 min 0,000 mm 0,0 UV-I 42 W/m -2,6 C -15,9 C 37,0 km/h (5 Bft) 98,18 %
20.12.2016 11:00 -2,1 C 96 % 1027,0 hPa 0,0 l/m 22,5 km/h (4 Bft) O-NO 76 0 min 0,026 mm 0,0 UV-I 43 W/m -2,6 C -13,5 C 33,8 km/h (5 Bft) 97,62 %
20.12.2016 11:02 -2,1 C 96 % 1027,0 hPa 0,0 l/m 28,2 km/h (4 Bft) O-NO 74 0 min 0,000 mm 0,0 UV-I 43 W/m -2,6 C -15,8 C 38,6 km/h (5 Bft) 100,00 %
20.12.2016 11:04 -2,1 C 96 % 1027,0 hPa 0,0 l/m 23,9 km/h (4 Bft) NO 36 0 min 0,000 mm 0,0 UV-I 44 W/m -2,6 C -14,1 C 32,2 km/h (5 Bft) 100,00 %
20.12.2016 11:06 -2,1 C 96 % 1027,0 hPa 0,0 l/m 26,9 km/h (4 Bft) O 79 0 min 0,000 mm 0,0 UV-I 43 W/m -2,6 C -15,3 C 40,2 km/h (6 Bft) 96,00 %
20.12.2016 11:08 -2,1 C 96 % 1027,0 hPa 0,0 l/m 23,3 km/h (4 Bft) O-NO 59 0 min 0,000 mm 0,0 UV-I 42 W/m -2,6 C -13,9 C 33,8 km/h (5 Bft) 100,00 %
20.12.2016 11:10 -2,1 C 96 % 1026,9 hPa 0,0 l/m 25,2 km/h (4 Bft) O-NO 59 0 min 0,000 mm 0,0 UV-I 42 W/m -2,6 C -14,6 C 33,8 km/h (5 Bft) 100,00 %
20.12.2016 11:12 -2,1 C 96 % 1026,9 hPa 0,0 l/m 27,5 km/h (4 Bft) O-NO 65 0 min 0,000 mm 0,0 UV-I 46 W/m -2,6 C -15,5 C 41,8 km/h (6 Bft) 100,00 %
20.12.2016 11:14 -2,1 C 96 % 1026,9 hPa 0,0 l/m 26,4 km/h (4 Bft) NO 49 0 min 0,000 mm 0,0 UV-I 44 W/m -2,6 C -15,1 C 33,8 km/h (5 Bft) 97,56 %
20.12.2016 11:16 -2,1 C 96 % 1026,8 hPa 0,0 l/m 24,9 km/h (4 Bft) O-NO 60 0 min 0,000 mm 0,0 UV-I 43 W/m -2,6 C -14,5 C 38,6 km/h (5 Bft) 100,00 %
20.12.2016 11:18 -2,1 C 96 % 1026,8 hPa 0,0 l/m 24,4 km/h (4 Bft) NO 36 0 min 0,000 mm 0,0 UV-I 42 W/m -2,6 C -14,3 C 37,0 km/h (5 Bft) 100,00 %
20.12.2016 11:20 -2,1 C 96 % 1026,8 hPa 0,0 l/m 25,2 km/h (4 Bft) NO 44 0 min 0,000 mm 0,0 UV-I 42 W/m -2,6 C -14,6 C 32,2 km/h (5 Bft) 100,00 %
20.12.2016 11:22 -2,1 C 96 % 1026,8 hPa 0,0 l/m 25,3 km/h (4 Bft) O-NO 65 0 min 0,000 mm 0,0 UV-I 41 W/m -2,6 C -14,7 C 37,0 km/h (5 Bft) 100,00 %
20.12.2016 11:24 -2,1 C 96 % 1026,8 hPa 0,0 l/m 27,4 km/h (4 Bft) NO 44 0 min 0,000 mm 0,0 UV-I 50 W/m -2,6 C -15,5 C 38,6 km/h (5 Bft) 97,56 %
20.12.2016 11:26 -2,1 C 96 % 1026,8 hPa 0,0 l/m 25,0 km/h (4 Bft) O-NO 65 0 min 0,000 mm 0,0 UV-I 64 W/m -2,6 C -14,6 C 40,2 km/h (6 Bft) 100,00 %
20.12.2016 11:28 -2,1 C 96 % 1026,6 hPa 0,0 l/m 22,8 km/h (4 Bft) NO 46 0 min 0,000 mm 0,0 UV-I 68 W/m -2,6 C -13,6 C 33,8 km/h (5 Bft) 100,00 %
20.12.2016 11:30 -2,1 C 96 % 1026,6 hPa 0,0 l/m 24,7 km/h (4 Bft) O-NO 57 0 min 0,000 mm 0,0 UV-I 66 W/m -2,6 C -14,4 C 35,4 km/h (5 Bft) 96,00 %
20.12.2016 11:32 -2,1 C 96 % 1026,6 hPa 0,0 l/m 24,9 km/h (4 Bft) O-NO 62 0 min 0,000 mm 0,0 UV-I 54 W/m -2,6 C -14,5 C 32,2 km/h (5 Bft) 100,00 %
20.12.2016 11:34 -2,1 C 96 % 1026,6 hPa 0,0 l/m 26,0 km/h (4 Bft) O-NO 65 0 min 0,000 mm 0,0 UV-I 61 W/m -2,6 C -15,0 C 35,4 km/h (5 Bft) 100,00 %
20.12.2016 11:36 -2,1 C 96 % 1026,6 hPa 0,0 l/m 20,7 km/h (4 Bft) NO 51 0 min 0,000 mm 0,0 UV-I 63 W/m -2,6 C -12,7 C 25,7 km/h (4 Bft) 100,00 %
20.12.2016 11:38 -2,1 C 96 % 1026,5 hPa 0,0 l/m 18,4 km/h (3 Bft) O-NO 76 0 min 0,000 mm 0,0 UV-I 59 W/m -2,6 C -11,5 C 27,4 km/h (4 Bft) 97,56 %
20.12.2016 11:40 -2,0 C 96 % 1026,5 hPa 0,0 l/m 20,4 km/h (4 Bft) NO 55 0 min 0,000 mm 0,0 UV-I 55 W/m -2,6 C -12,4 C 29,0 km/h (5 Bft) 97,62 %
20.12.2016 11:42 -2,0 C 96 % 1026,5 hPa 0,0 l/m 21,5 km/h (4 Bft) O-NO 58 0 min 0,000 mm 0,0 UV-I 55 W/m -2,6 C -12,9 C 30,6 km/h (5 Bft) 98,28 %
20.12.2016 11:44 -2,1 C 96 % 1026,5 hPa 0,0 l/m 20,2 km/h (4 Bft) O-NO 59 0 min 0,000 mm 0,0 UV-I 56 W/m -2,6 C -12,4 C 27,4 km/h (4 Bft) 100,00 %
20.12.2016 11:46 -2,0 C 96 % 1026,5 hPa 0,0 l/m 19,6 km/h (3 Bft) O-NO 60 0 min 0,000 mm 0,0 UV-I 60 W/m -2,6 C -12,0 C 27,4 km/h (4 Bft) 100,00 %
20.12.2016 11:48 -2,0 C 96 % 1026,4 hPa 0,0 l/m 23,4 km/h (4 Bft) NO 46 0 min 0,000 mm 0,0 UV-I 61 W/m -2,6 C -13,8 C 32,2 km/h (5 Bft) 93,62 %
20.12.2016 11:50 -2,1 C 96 % 1026,5 hPa 0,0 l/m 25,9 km/h (4 Bft) O-NO 59 0 min 0,000 mm 0,0 UV-I 59 W/m -2,6 C -14,9 C 33,8 km/h (5 Bft) 97,56 %
20.12.2016 11:52 -2,1 C 96 % 1026,4 hPa 0,0 l/m 21,6 km/h (4 Bft) O-NO 57 0 min 0,000 mm 0,0 UV-I 60 W/m -2,6 C -13,1 C 32,2 km/h (5 Bft) 96,00 %
20.12.2016 11:54 -2,1 C 96 % 1026,4 hPa 0,0 l/m 23,7 km/h (4 Bft) O-NO 69 0 min 0,000 mm 0,0 UV-I 62 W/m -2,6 C -14,0 C 32,2 km/h (5 Bft) 94,00 %
20.12.2016 11:56 -2,1 C 96 % 1026,3 hPa 0,0 l/m 30,4 km/h (5 Bft) NO 49 0 min 0,000 mm 0,0 UV-I 68 W/m -2,6 C -16,5 C 41,8 km/h (6 Bft) 95,45 %
20.12.2016 11:58 -2,1 C 96 % 1026,4 hPa 0,0 l/m 22,2 km/h (4 Bft) O 84 0 min 0,000 mm 0,0 UV-I 68 W/m -2,6 C -13,4 C 30,6 km/h (5 Bft) 95,12 %
20.12.2016 12:00 -2,1 C 96 % 1026,3 hPa 0,0 l/m 23,6 km/h (4 Bft) O-NO 68 0 min 0,025 mm 0,0 UV-I 68 W/m -2,6 C -14,0 C 32,2 km/h (5 Bft) 94,34 %
20.12.2016 12:02 -2,1 C 96 % 1026,3 hPa 0,0 l/m 23,5 km/h (4 Bft) NO 56 0 min 0,000 mm 0,0 UV-I 75 W/m -2,6 C -13,9 C 30,6 km/h (5 Bft) 94,00 %
20.12.2016 12:04 -2,1 C 96 % 1026,3 hPa 0,0 l/m 24,5 km/h (4 Bft) O-NO 63 0 min 0,000 mm 0,0 UV-I 80 W/m -2,6 C -14,4 C 35,4 km/h (5 Bft) 97,56 %
20.12.2016 12:06 -2,1 C 96 % 1026,3 hPa 0,0 l/m 22,8 km/h (4 Bft) O-NO 61 0 min 0,000 mm 0,0 UV-I 80 W/m -2,6 C -13,6 C 29,0 km/h (5 Bft) 97,87 %
20.12.2016 12:08 -2,1 C 96 % 1026,3 hPa 0,0 l/m 23,9 km/h (4 Bft) O 79 0 min 0,000 mm 0,0 UV-I 96 W/m -2,6 C -14,1 C 29,0 km/h (5 Bft) 96,00 %
20.12.2016 12:10 -2,1 C 96 % 1026,4 hPa 0,0 l/m 25,0 km/h (4 Bft) O-NO 77 0 min 0,000 mm 0,0 UV-I 96 W/m -2,6 C -14,6 C 35,4 km/h (5 Bft) 97,56 %
20.12.2016 12:12 -2,1 C 96 % 1026,3 hPa 0,0 l/m 25,4 km/h (4 Bft) NO 56 0 min 0,000 mm 0,0 UV-I 102 W/m -2,6 C -14,7 C 30,6 km/h (5 Bft) 95,12 %
20.12.2016 12:14 -2,1 C 96 % 1026,2 hPa 0,0 l/m 26,3 km/h (4 Bft) O-NO 71 0 min 0,000 mm 0,0 UV-I 103 W/m -2,6 C -15,1 C 32,2 km/h (5 Bft) 96,61 %
20.12.2016 12:16 -2,1 C 96 % 1026,2 hPa 0,0 l/m 27,0 km/h (4 Bft) O-NO 59 0 min 0,000 mm 0,0 UV-I 99 W/m -2,6 C -15,3 C 33,8 km/h (5 Bft) 97,73 %
20.12.2016 12:18 -2,1 C 96 % 1026,2 hPa 0,0 l/m 27,8 km/h (4 Bft) O-NO 60 0 min 0,000 mm 0,0 UV-I 93 W/m -2,6 C -15,6 C 37,0 km/h (5 Bft) 91,49 %
20.12.2016 12:20 -2,1 C 96 % 1026,2 hPa 0,0 l/m 27,9 km/h (4 Bft) O-NO 71 0 min 0,000 mm 0,0 UV-I 105 W/m -2,6 C -15,6 C 38,6 km/h (5 Bft) 95,74 %
20.12.2016 12:22 -2,1 C 96 % 1026,2 hPa 0,0 l/m 22,2 km/h (4 Bft) O-NO 72 0 min 0,000 mm 0,0 UV-I 102 W/m -2,6 C -13,4 C 33,8 km/h (5 Bft) 97,87 %
20.12.2016 12:24 -2,1 C 96 % 1026,2 hPa 0,0 l/m 23,1 km/h (4 Bft) O-NO 63 0 min 0,000 mm 0,0 UV-I 104 W/m -2,6 C -13,8 C 38,6 km/h (5 Bft) 98,00 %
20.12.2016 12:26 -2,1 C 96 % 1026,1 hPa 0,0 l/m 26,0 km/h (4 Bft) O-NO 70 0 min 0,000 mm 0,0 UV-I 83 W/m -2,6 C -15,0 C 37,0 km/h (5 Bft) 97,62 %
20.12.2016 12:28 -2,0 C 95 % 1026,1 hPa 0,0 l/m 25,6 km/h (4 Bft) O-NO 65 0 min 0,000 mm 0,0 UV-I 86 W/m -2,7 C -14,7 C 33,8 km/h (5 Bft) 100,00 %
20.12.2016 12:30 -2,0 C 95 % 1026,1 hPa 0,0 l/m 25,0 km/h (4 Bft) O 91 0 min 0,000 mm 0,0 UV-I 89 W/m -2,7 C -14,4 C 32,2 km/h (5 Bft) 100,00 %
20.12.2016 12:32 -2,0 C 95 % 1026,1 hPa 0,0 l/m 25,8 km/h (4 Bft) O-NO 57 0 min 0,000 mm 0,0 UV-I 87 W/m -2,7 C -14,7 C 40,2 km/h (6 Bft) 100,00 %
20.12.2016 12:34 -2,0 C 96 % 1026,1 hPa 0,0 l/m 27,0 km/h (4 Bft) O-NO 57 0 min 0,000 mm 0,0 UV-I 102 W/m -2,6 C -15,2 C 40,2 km/h (6 Bft) 97,87 %
20.12.2016 12:36 -2,0 C 96 % 1026,1 hPa 0,0 l/m 24,7 km/h (4 Bft) NO 52 0 min 0,000 mm 0,0 UV-I 91 W/m -2,6 C -14,3 C 32,2 km/h (5 Bft) 95,74 %
20.12.2016 12:38 -2,0 C 96 % 1026,0 hPa 0,0 l/m 23,6 km/h (4 Bft) NO 43 0 min 0,000 mm 0,0 UV-I 98 W/m -2,6 C -13,9 C 35,4 km/h (5 Bft) 100,00 %
20.12.2016 12:40 -2,0 C 95 % 1026,0 hPa 0,0 l/m 30,8 km/h (5 Bft) O-NO 74 0 min 0,000 mm 0,0 UV-I 111 W/m -2,7 C -16,5 C 40,2 km/h (6 Bft) 100,00 %
20.12.2016 12:42 -2,0 C 95 % 1025,9 hPa 0,0 l/m 29,9 km/h (5 Bft) O-NO 76 0 min 0,000 mm 0,0 UV-I 112 W/m -2,7 C -16,2 C 37,0 km/h (5 Bft) 94,74 %
20.12.2016 12:44 -2,0 C 95 % 1025,8 hPa 0,0 l/m 26,5 km/h (4 Bft) NO 52 0 min 0,000 mm 0,0 UV-I 99 W/m -2,7 C -15,0 C 33,8 km/h (5 Bft) 98,21 %
20.12.2016 12:46 -2,0 C 95 % 1025,9 hPa 0,0 l/m 28,3 km/h (4 Bft) O-NO 59 0 min 0,000 mm 0,0 UV-I 102 W/m -2,7 C -15,7 C 40,2 km/h (6 Bft) 98,11 %
20.12.2016 12:48 -2,0 C 95 % 1025,9 hPa 0,0 l/m 29,7 km/h (5 Bft) NO 56 0 min 0,000 mm 0,0 UV-I 116 W/m -2,7 C -16,1 C 41,8 km/h (6 Bft) 100,00 %
20.12.2016 12:50 -2,0 C 95 % 1025,9 hPa 0,0 l/m 26,0 km/h (4 Bft) NO 53 0 min 0,000 mm 0,0 UV-I 107 W/m -2,7 C -14,8 C 37,0 km/h (5 Bft) 100,00 %
20.12.2016 12:52 -2,0 C 95 % 1025,8 hPa 0,0 l/m 28,6 km/h (4 Bft) O-NO 59 0 min 0,000 mm 0,0 UV-I 86 W/m -2,7 C -15,8 C 38,6 km/h (5 Bft) 95,45 %
20.12.2016 12:54 -2,1 C 95 % 1025,8 hPa 0,0 l/m 28,1 km/h (4 Bft) NO 56 0 min 0,000 mm 0,0 UV-I 81 W/m -2,8 C -15,7 C 37,0 km/h (5 Bft) 100,00 %
20.12.2016 12:56 -2,1 C 95 % 1025,8 hPa 0,0 l/m 23,5 km/h (4 Bft) O-NO 71 0 min 0,000 mm 0,0 UV-I 95 W/m -2,8 C -13,9 C 35,4 km/h (5 Bft) 97,56 %
20.12.2016 12:58 -2,0 C 95 % 1025,8 hPa 0,0 l/m 23,2 km/h (4 Bft) O-NO 71 0 min 0,000 mm 0,0 UV-I 94 W/m -2,7 C -13,7 C 30,6 km/h (5 Bft) 97,62 %
20.12.2016 13:00 -2,0 C 95 % 1025,8 hPa 0,0 l/m 27,3 km/h (4 Bft) O-NO 63 0 min 0,026 mm 0,0 UV-I 89 W/m -2,7 C -15,3 C 41,8 km/h (6 Bft) 100,00 %
20.12.2016 13:02 -2,0 C 95 % 1025,8 hPa 0,0 l/m 26,6 km/h (4 Bft) O-NO 75 0 min 0,000 mm 0,0 UV-I 78 W/m -2,7 C -15,0 C 40,2 km/h (6 Bft) 100,00 %
20.12.2016 13:04 -2,1 C 95 % 1025,7 hPa 0,0 l/m 28,4 km/h (4 Bft) O-NO 63 0 min 0,000 mm 0,0 UV-I 85 W/m -2,8 C -15,8 C 43,5 km/h (6 Bft) 97,44 %
20.12.2016 13:06 -2,1 C 95 % 1025,8 hPa 0,0 l/m 26,7 km/h (4 Bft) O 84 0 min 0,000 mm 0,0 UV-I 79 W/m -2,8 C -15,2 C 38,6 km/h (5 Bft) 100,00 %
20.12.2016 13:08 -2,1 C 95 % 1025,8 hPa 0,0 l/m 25,1 km/h (4 Bft) O-NO 63 0 min 0,000 mm 0,0 UV-I 76 W/m -2,8 C -14,6 C 32,2 km/h (5 Bft) 100,00 %
20.12.2016 13:10 -2,1 C 95 % 1025,8 hPa 0,0 l/m 22,3 km/h (4 Bft) NO 51 0 min 0,000 mm 0,0 UV-I 82 W/m -2,8 C -13,4 C 29,0 km/h (5 Bft) 100,00 %
20.12.2016 13:12 -2,0 C 95 % 1025,8 hPa 0,0 l/m 21,5 km/h (4 Bft) O-NO 74 0 min 0,000 mm 0,0 UV-I 77 W/m -2,7 C -12,9 C 32,2 km/h (5 Bft) 100,00 %
20.12.2016 13:14 -2,0 C 95 % 1025,7 hPa 0,0 l/m 28,9 km/h (5 Bft) O-NO 71 0 min 0,000 mm 0,0 UV-I 80 W/m -2,7 C -15,9 C 37,0 km/h (5 Bft) 98,11 %
20.12.2016 13:16 -2,1 C 95 % 1025,7 hPa 0,0 l/m 24,1 km/h (4 Bft) O-NO 71 0 min 0,000 mm 0,0 UV-I 82 W/m -2,8 C -14,2 C 30,6 km/h (5 Bft) 100,00 %
20.12.2016 13:18 -2,1 C 95 % 1025,7 hPa 0,0 l/m 22,6 km/h (4 Bft) NO 46 0 min 0,000 mm 0,0 UV-I 81 W/m -2,8 C -13,6 C 35,4 km/h (5 Bft) 100,00 %
20.12.2016 13:20 -2,1 C 95 % 1025,6 hPa 0,0 l/m 27,0 km/h (4 Bft) O-NO 59 0 min 0,000 mm 0,0 UV-I 75 W/m -2,8 C -15,3 C 33,8 km/h (5 Bft) 98,00 %
20.12.2016 13:22 -2,1 C 95 % 1025,7 hPa 0,0 l/m 25,8 km/h (4 Bft) O-NO 64 0 min 0,000 mm 0,0 UV-I 81 W/m -2,8 C -14,9 C 35,4 km/h (5 Bft) 100,00 %
20.12.2016 13:24 -2,1 C 95 % 1025,7 hPa 0,0 l/m 24,7 km/h (4 Bft) NO 53 0 min 0,000 mm 0,0 UV-I 79 W/m -2,8 C -14,4 C 32,2 km/h (5 Bft) 100,00 %
20.12.2016 13:26 -2,1 C 95 % 1025,7 hPa 0,0 l/m 22,4 km/h (4 Bft) O-NO 58 0 min 0,000 mm 0,0 UV-I 74 W/m -2,8 C -13,5 C 30,6 km/h (5 Bft) 100,00 %
20.12.2016 13:28 -2,1 C 95 % 1025,6 hPa 0,0 l/m 23,0 km/h (4 Bft) NO 49 0 min 0,000 mm 0,0 UV-I 76 W/m -2,8 C -13,7 C 29,0 km/h (5 Bft) 97,14 %
20.12.2016 13:30 -2,0 C 95 % 1025,6 hPa 0,0 l/m 20,9 km/h (4 Bft) O 98 0 min 0,000 mm 0,0 UV-I 88 W/m -2,7 C -12,7 C 27,4 km/h (4 Bft) 100,00 %
20.12.2016 13:32 -2,0 C 95 % 1025,6 hPa 0,0 l/m 23,2 km/h (4 Bft) O-NO 69 0 min 0,000 mm 0,0 UV-I 96 W/m -2,7 C -13,7 C 30,6 km/h (5 Bft) 100,00 %
20.12.2016 13:34 -2,0 C 95 % 1025,6 hPa 0,0 l/m 19,2 km/h (3 Bft) O-NO 78 0 min 0,000 mm 0,0 UV-I 74 W/m -2,7 C -11,8 C 25,7 km/h (4 Bft) 100,00 %
20.12.2016 13:36 -2,0 C 95 % 1025,5 hPa 0,0 l/m 24,6 km/h (4 Bft) O-NO 65 0 min 0,000 mm 0,0 UV-I 85 W/m -2,7 C -14,3 C 32,2 km/h (5 Bft) 98,21 %
20.12.2016 13:38 -2,0 C 95 % 1025,5 hPa 0,0 l/m 23,1 km/h (4 Bft) O-NO 69 0 min 0,000 mm 0,0 UV-I 95 W/m -2,7 C -13,6 C 30,6 km/h (5 Bft) 100,00 %
20.12.2016 13:40 -2,0 C 95 % 1025,5 hPa 0,0 l/m 20,2 km/h (4 Bft) NO 51 0 min 0,000 mm 0,0 UV-I 81 W/m -2,7 C -12,3 C 29,0 km/h (5 Bft) 98,00 %
20.12.2016 13:42 -2,0 C 95 % 1025,5 hPa 0,0 l/m 20,8 km/h (4 Bft) O-NO 74 0 min 0,000 mm 0,0 UV-I 80 W/m -2,7 C -12,6 C 27,4 km/h (4 Bft) 100,00 %
20.12.2016 13:44 -2,1 C 95 % 1025,5 hPa 0,0 l/m 26,5 km/h (4 Bft) NO 55 0 min 0,000 mm 0,0 UV-I 72 W/m -2,8 C -15,1 C 37,0 km/h (5 Bft) 95,65 %
20.12.2016 13:46 -2,1 C 95 % 1025,5 hPa 0,0 l/m 23,9 km/h (4 Bft) O-NO 60 0 min 0,000 mm 0,0 UV-I 78 W/m -2,8 C -14,1 C 30,6 km/h (5 Bft) 100,00 %
20.12.2016 13:48 -2,1 C 95 % 1025,5 hPa 0,0 l/m 24,7 km/h (4 Bft) O 100 0 min 0,000 mm 0,0 UV-I 67 W/m -2,8 C -14,4 C 32,2 km/h (5 Bft) 97,87 %
20.12.2016 13:50 -2,1 C 95 % 1025,5 hPa 0,0 l/m 20,3 km/h (4 Bft) NO 41 0 min 0,000 mm 0,0 UV-I 71 W/m -2,8 C -12,5 C 29,0 km/h (5 Bft) 98,11 %
20.12.2016 13:52 -2,1 C 95 % 1025,5 hPa 0,0 l/m 20,3 km/h (4 Bft) NO 49 0 min 0,000 mm 0,0 UV-I 64 W/m -2,8 C -12,5 C 29,0 km/h (5 Bft) 95,12 %
20.12.2016 13:54 -2,0 C 95 % 1025,5 hPa 0,0 l/m 20,8 km/h (4 Bft) O-NO 57 0 min 0,000 mm 0,0 UV-I 63 W/m -2,7 C -12,6 C 33,8 km/h (5 Bft) 98,11 %
20.12.2016 13:56 -2,1 C 95 % 1025,6 hPa 0,0 l/m 24,4 km/h (4 Bft) O-NO 58 0 min 0,000 mm 0,0 UV-I 62 W/m -2,8 C -14,3 C 33,8 km/h (5 Bft) 97,56 %
20.12.2016 13:58 -2,1 C 95 % 1025,5 hPa 0,0 l/m 24,5 km/h (4 Bft) O 84 0 min 0,000 mm 0,0 UV-I 65 W/m -2,8 C -14,4 C 33,8 km/h (5 Bft) 97,73 %
20.12.2016 14:00 -2,1 C 95 % 1025,5 hPa 0,0 l/m 21,0 km/h (4 Bft) NO 54 0 min 0,025 mm 0,0 UV-I 64 W/m -2,8 C -12,8 C 27,4 km/h (4 Bft) 94,34 %
20.12.2016 14:02 -2,1 C 95 % 1025,5 hPa 0,0 l/m 23,5 km/h (4 Bft) O-NO 78 0 min 0,000 mm 0,0 UV-I 61 W/m -2,8 C -13,9 C 32,2 km/h (5 Bft) 95,74 %
20.12.2016 14:04 -2,1 C 95 % 1025,5 hPa 0,0 l/m 24,3 km/h (4 Bft) O-NO 74 0 min 0,000 mm 0,0 UV-I 60 W/m -2,8 C -14,3 C 32,2 km/h (5 Bft) 97,56 %
20.12.2016 14:06 -2,1 C 95 % 1025,5 hPa 0,0 l/m 20,4 km/h (4 Bft) O-NO 61 0 min 0,000 mm 0,0 UV-I 54 W/m -2,8 C -12,5 C 30,6 km/h (5 Bft) 98,11 %
20.12.2016 14:08 -2,1 C 95 % 1025,4 hPa 0,0 l/m 25,3 km/h (4 Bft) O-NO 64 0 min 0,000 mm 0,0 UV-I 51 W/m -2,8 C -14,7 C 32,2 km/h (5 Bft) 97,56 %
20.12.2016 14:10 -2,1 C 95 % 1025,4 hPa 0,0 l/m 24,7 km/h (4 Bft) O-NO 58 0 min 0,000 mm 0,0 UV-I 53 W/m -2,8 C -14,4 C 33,8 km/h (5 Bft) 95,12 %
20.12.2016 14:13 -2,1 C 95 % 1025,4 hPa 0,0 l/m 21,7 km/h (4 Bft) O-NO 62 0 min 0,000 mm 0,0 UV-I 54 W/m -2,8 C -13,2 C 32,2 km/h (5 Bft) 97,37 %
20.12.2016 14:14 -2,1 C 95 % 1025,4 hPa 0,0 l/m 21,6 km/h (4 Bft) O-NO 76 0 min 0,000 mm 0,0 UV-I 51 W/m -2,8 C -13,1 C 25,7 km/h (4 Bft) 100,00 %
20.12.2016 14:16 -2,1 C 95 % 1025,4 hPa 0,0 l/m 21,0 km/h (4 Bft) O-NO 68 0 min 0,000 mm 0,0 UV-I 51 W/m -2,8 C -12,8 C 30,6 km/h (5 Bft) 95,45 %
20.12.2016 14:18 -2,1 C 95 % 1025,4 hPa 0,0 l/m 19,0 km/h (3 Bft) NO 49 0 min 0,000 mm 0,0 UV-I 49 W/m -2,8 C -11,8 C 25,7 km/h (4 Bft) 97,92 %
20.12.2016 14:20 -2,1 C 95 % 1025,4 hPa 0,0 l/m 24,1 km/h (4 Bft) O-NO 74 0 min 0,000 mm 0,0 UV-I 51 W/m -2,8 C -14,2 C 32,2 km/h (5 Bft) 93,88 %
20.12.2016 14:22 -2,1 C 95 % 1025,4 hPa 0,0 l/m 19,4 km/h (3 Bft) O-NO 78 0 min 0,000 mm 0,0 UV-I 46 W/m -2,8 C -12,0 C 25,7 km/h (4 Bft) 94,87 %
20.12.2016 14:24 -2,1 C 95 % 1025,4 hPa 0,0 l/m 21,8 km/h (4 Bft) O 84 0 min 0,000 mm 0,0 UV-I 44 W/m -2,8 C -13,2 C 30,6 km/h (5 Bft) 98,21 %
20.12.2016 14:26 -2,1 C 95 % 1025,4 hPa 0,0 l/m 23,4 km/h (4 Bft) NO 42 0 min 0,000 mm 0,0 UV-I 45 W/m -2,8 C -13,9 C 30,6 km/h (5 Bft) 100,00 %
20.12.2016 14:28 -2,1 C 95 % 1025,4 hPa 0,0 l/m 22,2 km/h (4 Bft) O 79 0 min 0,000 mm 0,0 UV-I 42 W/m -2,8 C -13,4 C 32,2 km/h (5 Bft) 100,00 %
20.12.2016 14:30 -2,1 C 95 % 1025,5 hPa 0,0 l/m 19,5 km/h (3 Bft) O-NO 69 0 min 0,000 mm 0,0 UV-I 40 W/m -2,8 C -12,1 C 27,4 km/h (4 Bft) 97,56 %
20.12.2016 14:32 -2,1 C 95 % 1025,5 hPa 0,0 l/m 20,1 km/h (4 Bft) O-NO 64 0 min 0,000 mm 0,0 UV-I 40 W/m -2,8 C -12,4 C 30,6 km/h (5 Bft) 97,87 %
20.12.2016 14:34 -2,1 C 95 % 1025,5 hPa 0,0 l/m 16,6 km/h (3 Bft) O-NO 75 0 min 0,000 mm 0,0 UV-I 36 W/m -2,8 C -10,5 C 24,1 km/h (4 Bft) 100,00 %
20.12.2016 14:36 -2,1 C 95 % 1025,5 hPa 0,0 l/m 18,4 km/h (3 Bft) O-NO 61 0 min 0,000 mm 0,0 UV-I 36 W/m -2,8 C -11,5 C 25,7 km/h (4 Bft) 100,00 %
20.12.2016 14:38 -2,0 C 95 % 1025,5 hPa 0,0 l/m 21,3 km/h (4 Bft) O 84 0 min 0,000 mm 0,0 UV-I 36 W/m -2,7 C -12,8 C 35,4 km/h (5 Bft) 100,00 %
20.12.2016 14:40 -2,0 C 95 % 1025,5 hPa 0,0 l/m 21,2 km/h (4 Bft) O-NO 58 0 min 0,000 mm 0,0 UV-I 35 W/m -2,7 C -12,8 C 29,0 km/h (5 Bft) 97,56 %
20.12.2016 14:42 -2,0 C 95 % 1025,5 hPa 0,0 l/m 22,1 km/h (4 Bft) O-NO 61 0 min 0,000 mm 0,0 UV-I 32 W/m -2,7 C -13,2 C 30,6 km/h (5 Bft) 100,00 %
20.12.2016 14:44 -2,0 C 95 % 1025,5 hPa 0,0 l/m 21,4 km/h (4 Bft) O 84 0 min 0,000 mm 0,0 UV-I 31 W/m -2,7 C -12,9 C 27,4 km/h (4 Bft) 100,00 %
20.12.2016 14:46 -2,0 C 95 % 1025,5 hPa 0,0 l/m 21,3 km/h (4 Bft) O-NO 69 0 min 0,000 mm 0,0 UV-I 32 W/m -2,7 C -12,8 C 29,0 km/h (5 Bft) 97,87 %
20.12.2016 14:48 -2,0 C 95 % 1025,5 hPa 0,0 l/m 19,6 km/h (3 Bft) O-NO 59 0 min 0,000 mm 0,0 UV-I 32 W/m -2,7 C -12,0 C 25,7 km/h (4 Bft) 98,00 %
20.12.2016 14:50 -2,0 C 95 % 1025,5 hPa 0,0 l/m 18,7 km/h (3 Bft) O-NO 76 0 min 0,000 mm 0,0 UV-I 31 W/m -2,7 C -11,6 C 27,4 km/h (4 Bft) 96,67 %
20.12.2016 14:52 -2,0 C 95 % 1025,5 hPa 0,0 l/m 20,3 km/h (4 Bft) O 98 0 min 0,000 mm 0,0 UV-I 30 W/m -2,7 C -12,4 C 29,0 km/h (5 Bft) 96,15 %
20.12.2016 14:54 -2,0 C 95 % 1025,5 hPa 0,0 l/m 18,9 km/h (3 Bft) O-NO 62 0 min 0,000 mm 0,0 UV-I 31 W/m -2,7 C -11,7 C 25,7 km/h (4 Bft) 100,00 %
20.12.2016 14:56 -2,0 C 95 % 1025,4 hPa 0,0 l/m 18,6 km/h (3 Bft) O-NO 67 0 min 0,000 mm 0,0 UV-I 30 W/m -2,7 C -11,5 C 24,1 km/h (4 Bft) 100,00 %
20.12.2016 14:58 -2,0 C 95 % 1025,5 hPa 0,0 l/m 17,1 km/h (3 Bft) NO 51 0 min 0,000 mm 0,0 UV-I 32 W/m -2,7 C -10,7 C 27,4 km/h (4 Bft) 100,00 %
20.12.2016 15:00 -2,0 C 95 % 1025,5 hPa 0,0 l/m 18,3 km/h (3 Bft) O-NO 57 0 min 0,025 mm 0,0 UV-I 32 W/m -2,7 C -11,3 C 24,1 km/h (4 Bft) 100,00 %
20.12.2016 15:02 -1,9 C 95 % 1025,5 hPa 0,0 l/m 18,3 km/h (3 Bft) NO 49 0 min 0,000 mm 0,0 UV-I 29 W/m -2,6 C -11,2 C 27,4 km/h (4 Bft) 97,37 %
20.12.2016 15:04 -1,9 C 95 % 1025,5 hPa 0,0 l/m 21,1 km/h (4 Bft) O 82 0 min 0,000 mm 0,0 UV-I 28 W/m -2,6 C -12,6 C 30,6 km/h (5 Bft) 100,00 %
20.12.2016 15:06 -1,9 C 95 % 1025,5 hPa 0,0 l/m 22,3 km/h (4 Bft) O-NO 77 0 min 0,000 mm 0,0 UV-I 28 W/m -2,6 C -13,2 C 29,0 km/h (5 Bft) 98,11 %
20.12.2016 15:08 -1,9 C 95 % 1025,5 hPa 0,0 l/m 20,3 km/h (4 Bft) O 98 0 min 0,000 mm 0,0 UV-I 30 W/m -2,6 C -12,2 C 29,0 km/h (5 Bft) 100,00 %
20.12.2016 15:10 -1,9 C 95 % 1025,5 hPa 0,0 l/m 16,8 km/h (3 Bft) NO 53 0 min 0,000 mm 0,0 UV-I 25 W/m -2,6 C -10,4 C 22,5 km/h (4 Bft) 100,00 %
20.12.2016 15:12 -1,9 C 95 % 1025,5 hPa 0,0 l/m 16,2 km/h (3 Bft) NO 53 0 min 0,000 mm 0,0 UV-I 27 W/m -2,6 C -10,0 C 24,1 km/h (4 Bft) 100,00 %
20.12.2016 15:14 -1,9 C 95 % 1025,5 hPa 0,0 l/m 17,9 km/h (3 Bft) O-NO 71 0 min 0,000 mm 0,0 UV-I 24 W/m -2,6 C -11,0 C 22,5 km/h (4 Bft) 97,56 %
20.12.2016 15:16 -1,9 C 95 % 1025,5 hPa 0,0 l/m 21,4 km/h (4 Bft) O-NO 61 0 min 0,000 mm 0,0 UV-I 24 W/m -2,6 C -12,8 C 30,6 km/h (5 Bft) 98,00 %
20.12.2016 15:18 -1,9 C 95 % 1025,5 hPa 0,0 l/m 18,2 km/h (3 Bft) O-NO 66 0 min 0,000 mm 0,0 UV-I 24 W/m -2,6 C -11,2 C 24,1 km/h (4 Bft) 100,00 %
20.12.2016 15:20 -1,9 C 95 % 1025,4 hPa 0,0 l/m 19,6 km/h (3 Bft) O-NO 61 0 min 0,000 mm 0,0 UV-I 25 W/m -2,6 C -11,9 C 25,7 km/h (4 Bft) 100,00 %
20.12.2016 15:22 -1,9 C 95 % 1025,4 hPa 0,0 l/m 20,3 km/h (4 Bft) O-SO 123 0 min 0,000 mm 0,0 UV-I 24 W/m -2,6 C -12,2 C 27,4 km/h (4 Bft) 97,37 %
20.12.2016 15:24 -1,9 C 95 % 1025,4 hPa 0,0 l/m 21,8 km/h (4 Bft) NO 56 0 min 0,000 mm 0,0 UV-I 25 W/m -2,6 C -12,9 C 29,0 km/h (5 Bft) 98,21 %
20.12.2016 15:26 -1,9 C 95 % 1025,4 hPa 0,0 l/m 20,8 km/h (4 Bft) O 86 0 min 0,000 mm 0,0 UV-I 23 W/m -2,6 C -12,5 C 27,4 km/h (4 Bft) 97,87 %
20.12.2016 15:28 -1,9 C 95 % 1025,4 hPa 0,0 l/m 18,4 km/h (3 Bft) NO 48 0 min 0,000 mm 0,0 UV-I 19 W/m -2,6 C -11,3 C 24,1 km/h (4 Bft) 100,00 %
20.12.2016 15:30 -1,9 C 95 % 1025,4 hPa 0,0 l/m 16,6 km/h (3 Bft) O-NO 61 0 min 0,000 mm 0,0 UV-I 18 W/m -2,6 C -10,3 C 22,5 km/h (4 Bft) 100,00 %
20.12.2016 15:32 -1,9 C 95 % 1025,4 hPa 0,0 l/m 18,0 km/h (3 Bft) O-NO 70 0 min 0,000 mm 0,0 UV-I 17 W/m -2,6 C -11,0 C 30,6 km/h (5 Bft) 100,00 %
20.12.2016 15:34 -1,9 C 95 % 1025,4 hPa 0,0 l/m 17,6 km/h (3 Bft) O-SO 108 0 min 0,000 mm 0,0 UV-I 17 W/m -2,6 C -10,8 C 25,7 km/h (4 Bft) 100,00 %
20.12.2016 15:36 -1,9 C 95 % 1025,4 hPa 0,0 l/m 20,3 km/h (4 Bft) O-NO 64 0 min 0,000 mm 0,0 UV-I 14 W/m -2,6 C -12,2 C 30,6 km/h (5 Bft) 97,73 %
20.12.2016 15:38 -1,9 C 95 % 1025,3 hPa 0,0 l/m 21,9 km/h (4 Bft) O 88 0 min 0,000 mm 0,0 UV-I 14 W/m -2,6 C -13,0 C 29,0 km/h (5 Bft) 100,00 %
20.12.2016 15:40 -1,9 C 95 % 1025,4 hPa 0,0 l/m 19,4 km/h (3 Bft) NO 55 0 min 0,000 mm 0,0 UV-I 12 W/m -2,6 C -11,8 C 27,4 km/h (4 Bft) 100,00 %
20.12.2016 15:43 -1,9 C 95 % 1025,4 hPa 0,0 l/m 24,1 km/h (4 Bft) O-NO 78 0 min 0,000 mm 0,0 UV-I 11 W/m -2,6 C -13,9 C 32,2 km/h (5 Bft) 97,37 %
20.12.2016 15:44 -1,9 C 95 % 1025,3 hPa 0,0 l/m 19,0 km/h (3 Bft) O-NO 75 0 min 0,000 mm 0,0 UV-I 11 W/m -2,6 C -11,6 C 24,1 km/h (4 Bft) 100,00 %
20.12.2016 15:46 -1,9 C 95 % 1025,3 hPa 0,0 l/m 25,9 km/h (4 Bft) O-NO 77 0 min 0,000 mm 0,0 UV-I 11 W/m -2,6 C -14,6 C 37,0 km/h (5 Bft) 100,00 %
20.12.2016 15:48 -1,9 C 95 % 1025,3 hPa 0,0 l/m 20,4 km/h (4 Bft) O 90 0 min 0,000 mm 0,0 UV-I 11 W/m -2,6 C -12,3 C 29,0 km/h (5 Bft) 97,56 %
20.12.2016 15:50 -1,9 C 95 % 1025,3 hPa 0,0 l/m 20,7 km/h (4 Bft) O-NO 78 0 min 0,000 mm 0,0 UV-I 10 W/m -2,6 C -12,4 C 27,4 km/h (4 Bft) 98,21 %
20.12.2016 15:52 -1,9 C 95 % 1025,3 hPa 0,0 l/m 16,3 km/h (3 Bft) O-NO 68 0 min 0,000 mm 0,0 UV-I 10 W/m -2,6 C -10,1 C 29,0 km/h (5 Bft) 100,00 %
20.12.2016 15:54 -1,9 C 95 % 1025,3 hPa 0,0 l/m 27,7 km/h (4 Bft) O-NO 70 0 min 0,000 mm 0,0 UV-I 9 W/m -2,6 C -15,3 C 35,4 km/h (5 Bft) 98,21 %
20.12.2016 15:56 -1,9 C 95 % 1025,3 hPa 0,0 l/m 24,7 km/h (4 Bft) O-NO 71 0 min 0,000 mm 0,0 UV-I 8 W/m -2,6 C -14,2 C 33,8 km/h (5 Bft) 94,29 %
20.12.2016 15:58 -1,9 C 95 % 1025,3 hPa 0,0 l/m 17,8 km/h (3 Bft) O-NO 76 0 min 0,000 mm 0,0 UV-I 7 W/m -2,6 C -10,9 C 32,2 km/h (5 Bft) 98,31 %
20.12.2016 16:00 -1,9 C 95 % 1025,3 hPa 0,0 l/m 17,3 km/h (3 Bft) O-NO 76 0 min 0,000 mm 0,0 UV-I 7 W/m -2,6 C -10,7 C 24,1 km/h (4 Bft) 97,56 %
20.12.2016 16:02 -1,9 C 95 % 1025,3 hPa 0,0 l/m 22,6 km/h (4 Bft) O 86 0 min 0,000 mm 0,0 UV-I 7 W/m -2,6 C -13,3 C 32,2 km/h (5 Bft) 97,87 %
20.12.2016 16:04 -1,9 C 95 % 1025,3 hPa 0,0 l/m 18,2 km/h (3 Bft) O 89 0 min 0,000 mm 0,0 UV-I 6 W/m -2,6 C -11,2 C 27,4 km/h (4 Bft) 96,23 %
20.12.2016 16:06 -1,9 C 95 % 1025,3 hPa 0,0 l/m 16,5 km/h (3 Bft) O-NO 64 0 min 0,000 mm 0,0 UV-I 5 W/m -2,6 C -10,2 C 24,1 km/h (4 Bft) 97,37 %
20.12.2016 16:08 -1,9 C 95 % 1025,3 hPa 0,0 l/m 15,0 km/h (3 Bft) NO 36 0 min 0,000 mm 0,0 UV-I 5 W/m -2,6 C -9,3 C 22,5 km/h (4 Bft) 96,00 %
20.12.2016 16:10 -1,9 C 95 % 1025,3 hPa 0,0 l/m 22,9 km/h (4 Bft) NO 53 0 min 0,000 mm 0,0 UV-I 5 W/m -2,6 C -13,4 C 30,6 km/h (5 Bft) 95,12 %
20.12.2016 16:12 -1,9 C 95 % 1025,3 hPa 0,0 l/m 26,1 km/h (4 Bft) O-NO 63 0 min 0,000 mm 0,0 UV-I 5 W/m -2,6 C -14,7 C 37,0 km/h (5 Bft) 98,21 %
20.12.2016 16:14 -1,9 C 95 % 1025,3 hPa 0,0 l/m 23,3 km/h (4 Bft) O-NO 67 0 min 0,000 mm 0,0 UV-I 5 W/m -2,6 C -13,6 C 29,0 km/h (5 Bft) 95,12 %
20.12.2016 16:16 -2,0 C 95 % 1025,4 hPa 0,0 l/m 24,2 km/h (4 Bft) O-SO 107 0 min 0,000 mm 0,0 UV-I 5 W/m -2,7 C -14,1 C 33,8 km/h (5 Bft) 98,00 %
20.12.2016 16:18 -2,0 C 95 % 1025,4 hPa 0,0 l/m 24,1 km/h (4 Bft) O 89 0 min 0,000 mm 0,0 UV-I 0 W/m -2,7 C -14,1 C 35,4 km/h (5 Bft) 97,78 %
20.12.2016 16:20 -2,0 C 96 % 1025,3 hPa 0,0 l/m 20,8 km/h (4 Bft) O 96 0 min 0,000 mm 0,0 UV-I 0 W/m -2,6 C -12,6 C 29,0 km/h (5 Bft) 96,15 %
20.12.2016 16:22 -2,0 C 96 % 1025,3 hPa 0,0 l/m 17,9 km/h (3 Bft) O-NO 77 0 min 0,000 mm 0,0 UV-I 0 W/m -2,6 C -11,1 C 22,5 km/h (4 Bft) 97,44 %
20.12.2016 16:24 -2,0 C 96 % 1025,3 hPa 0,0 l/m 19,3 km/h (3 Bft) O-NO 76 0 min 0,000 mm 0,0 UV-I 0 W/m -2,6 C -11,9 C 32,2 km/h (5 Bft) 98,21 %
20.12.2016 16:26 -2,0 C 96 % 1025,3 hPa 0,0 l/m 20,5 km/h (4 Bft) O-NO 67 0 min 0,000 mm 0,0 UV-I 0 W/m -2,6 C -12,5 C 30,6 km/h (5 Bft) 97,56 %
20.12.2016 16:28 -2,1 C 95 % 1025,3 hPa 0,0 l/m 22,3 km/h (4 Bft) O-NO 65 0 min 0,000 mm 0,0 UV-I 0 W/m -2,8 C -13,4 C 32,2 km/h (5 Bft) 95,12 %
20.12.2016 16:30 -2,1 C 95 % 1025,4 hPa 0,0 l/m 21,5 km/h (4 Bft) NO 52 0 min 0,000 mm 0,0 UV-I 0 W/m -2,8 C -13,1 C 33,8 km/h (5 Bft) 100,00 %
20.12.2016 16:32 -2,1 C 95 % 1025,4 hPa 0,0 l/m 19,2 km/h (3 Bft) O 96 0 min 0,000 mm 0,0 UV-I 0 W/m -2,8 C -11,9 C 27,4 km/h (4 Bft) 100,00 %
20.12.2016 16:34 -2,1 C 95 % 1025,4 hPa 0,0 l/m 16,3 km/h (3 Bft) NO 50 0 min 0,000 mm 0,0 UV-I 0 W/m -2,8 C -10,3 C 24,1 km/h (4 Bft) 98,11 %
20.12.2016 16:36 -2,1 C 95 % 1025,4 hPa 0,0 l/m 20,7 km/h (4 Bft) O-NO 69 0 min 0,000 mm 0,0 UV-I 0 W/m -2,8 C -12,7 C 29,0 km/h (5 Bft) 97,87 %
20.12.2016 16:38 -2,1 C 95 % 1025,3 hPa 0,0 l/m 19,1 km/h (3 Bft) O-NO 69 0 min 0,000 mm 0,0 UV-I 0 W/m -2,8 C -11,9 C 25,7 km/h (4 Bft) 100,00 %
20.12.2016 16:40 -2,1 C 96 % 1025,4 hPa 0,0 l/m 22,5 km/h (4 Bft) O-NO 59 0 min 0,000 mm 0,0 UV-I 0 W/m -2,6 C -13,5 C 32,2 km/h (5 Bft) 100,00 %
20.12.2016 16:42 -2,1 C 96 % 1025,4 hPa 0,0 l/m 20,1 km/h (4 Bft) O 86 0 min 0,000 mm 0,0 UV-I 0 W/m -2,6 C -12,4 C 27,4 km/h (4 Bft) 97,56 %
20.12.2016 16:44 -2,1 C 96 % 1025,3 hPa 0,0 l/m 18,0 km/h (3 Bft) NO 50 0 min 0,000 mm 0,0 UV-I 0 W/m -2,6 C -11,3 C 27,4 km/h (4 Bft) 96,23 %
20.12.2016 16:46 -2,1 C 96 % 1025,4 hPa 0,0 l/m 18,1 km/h (3 Bft) NO 54 0 min 0,000 mm 0,0 UV-I 0 W/m -2,6 C -11,4 C 25,7 km/h (4 Bft) 100,00 %
20.12.2016 16:48 -2,1 C 96 % 1025,3 hPa 0,0 l/m 20,0 km/h (4 Bft) O-NO 66 0 min 0,000 mm 0,0 UV-I 0 W/m -2,6 C -12,3 C 29,0 km/h (5 Bft) 100,00 %
20.12.2016 16:50 -2,2 C 96 % 1025,3 hPa 0,0 l/m 19,0 km/h (3 Bft) O-NO 75 0 min 0,000 mm 0,0 UV-I 0 W/m -2,7 C -12,0 C 24,1 km/h (4 Bft) 100,00 %
20.12.2016 16:52 -2,2 C 96 % 1025,3 hPa 0,0 l/m 23,2 km/h (4 Bft) NO 50 0 min 0,000 mm 0,0 UV-I 0 W/m -2,7 C -14,0 C 30,6 km/h (5 Bft) 98,36 %
20.12.2016 16:54 -2,2 C 96 % 1025,3 hPa 0,0 l/m 22,7 km/h (4 Bft) O-NO 62 0 min 0,000 mm 0,0 UV-I 0 W/m -2,7 C -13,7 C 30,6 km/h (5 Bft) 100,00 %
20.12.2016 16:56 -2,2 C 96 % 1025,3 hPa 0,0 l/m 18,8 km/h (3 Bft) O-NO 66 0 min 0,000 mm 0,0 UV-I 0 W/m -2,7 C -11,9 C 24,1 km/h (4 Bft) 100,00 %
20.12.2016 16:58 -2,2 C 96 % 1025,3 hPa 0,0 l/m 21,0 km/h (4 Bft) O-NO 70 0 min 0,000 mm 0,0 UV-I 0 W/m -2,7 C -13,0 C 29,0 km/h (5 Bft) 100,00 %
20.12.2016 17:00 -2,2 C 96 % 1025,3 hPa 0,0 l/m 23,4 km/h (4 Bft) O-NO 71 0 min 0,000 mm 0,0 UV-I 0 W/m -2,7 C -14,0 C 32,2 km/h (5 Bft) 98,21 %
20.12.2016 17:02 -2,2 C 96 % 1025,3 hPa 0,0 l/m 21,6 km/h (4 Bft) O-NO 71 0 min 0,000 mm 0,0 UV-I 0 W/m -2,7 C -13,2 C 29,0 km/h (5 Bft) 96,15 %
20.12.2016 17:04 -2,3 C 96 % 1025,3 hPa 0,0 l/m 26,6 km/h (4 Bft) O-NO 60 0 min 0,000 mm 0,0 UV-I 0 W/m -2,8 C -15,5 C 35,4 km/h (5 Bft) 100,00 %
20.12.2016 17:06 -2,3 C 96 % 1025,2 hPa 0,0 l/m 23,1 km/h (4 Bft) O-NO 70 0 min 0,000 mm 0,0 UV-I 0 W/m -2,8 C -14,0 C 33,8 km/h (5 Bft) 100,00 %
20.12.2016 17:08 -2,3 C 96 % 1025,3 hPa 0,0 l/m 21,7 km/h (4 Bft) O-NO 69 0 min 0,000 mm 0,0 UV-I 0 W/m -2,8 C -13,4 C 30,6 km/h (5 Bft) 98,00 %
20.12.2016 17:10 -2,3 C 96 % 1025,3 hPa 0,0 l/m 23,0 km/h (4 Bft) O-NO 74 0 min 0,000 mm 0,0 UV-I 0 W/m -2,8 C -14,0 C 32,2 km/h (5 Bft) 100,00 %
20.12.2016 17:12 -2,3 C 96 % 1025,3 hPa 0,0 l/m 25,6 km/h (4 Bft) O-NO 69 0 min 0,000 mm 0,0 UV-I 0 W/m -2,8 C -15,1 C 32,2 km/h (5 Bft) 100,00 %
20.12.2016 17:14 -2,3 C 96 % 1025,3 hPa 0,0 l/m 22,2 km/h (4 Bft) NO 55 0 min 0,000 mm 0,0 UV-I 0 W/m -2,8 C -13,6 C 32,2 km/h (5 Bft) 100,00 %
20.12.2016 17:16 -2,3 C 96 % 1025,3 hPa 0,0 l/m 21,7 km/h (4 Bft) O-NO 78 0 min 0,000 mm 0,0 UV-I 0 W/m -2,8 C -13,4 C 30,6 km/h (5 Bft) 98,00 %
20.12.2016 17:18 -2,3 C 96 % 1025,3 hPa 0,0 l/m 23,3 km/h (4 Bft) O-NO 65 0 min 0,000 mm 0,0 UV-I 0 W/m -2,8 C -14,1 C 33,8 km/h (5 Bft) 97,56 %
20.12.2016 17:20 -2,3 C 96 % 1025,3 hPa 0,0 l/m 25,8 km/h (4 Bft) NO 41 0 min 0,000 mm 0,0 UV-I 0 W/m -2,8 C -15,1 C 37,0 km/h (5 Bft) 98,00 %
20.12.2016 17:22 -2,3 C 96 % 1025,3 hPa 0,0 l/m 22,3 km/h (4 Bft) O-NO 60 0 min 0,000 mm 0,0 UV-I 0 W/m -2,8 C -13,7 C 30,6 km/h (5 Bft) 100,00 %
20.12.2016 17:24 -2,3 C 96 % 1025,2 hPa 0,0 l/m 22,4 km/h (4 Bft) O-NO 59 0 min 0,000 mm 0,0 UV-I 0 W/m -2,8 C -13,7 C 33,8 km/h (5 Bft) 100,00 %
20.12.2016 17:26 -2,3 C 96 % 1025,3 hPa 0,0 l/m 21,6 km/h (4 Bft) O-NO 63 0 min 0,000 mm 0,0 UV-I 0 W/m -2,8 C -13,4 C 29,0 km/h (5 Bft) 100,00 %
20.12.2016 17:28 -2,3 C 96 % 1025,2 hPa 0,0 l/m 18,8 km/h (3 Bft) NO 51 0 min 0,000 mm 0,0 UV-I 0 W/m -2,8 C -12,0 C 27,4 km/h (4 Bft) 100,00 %
20.12.2016 17:30 -2,3 C 96 % 1025,3 hPa 0,0 l/m 20,3 km/h (4 Bft) NO 48 0 min 0,000 mm 0,0 UV-I 0 W/m -2,8 C -12,8 C 27,4 km/h (4 Bft) 100,00 %
20.12.2016 17:32 -2,3 C 96 % 1025,2 hPa 0,0 l/m 23,8 km/h (4 Bft) O-NO 64 0 min 0,000 mm 0,0 UV-I 0 W/m -2,8 C -14,3 C 35,4 km/h (5 Bft) 100,00 %
20.12.2016 17:34 -2,3 C 96 % 1025,3 hPa 0,0 l/m 21,1 km/h (4 Bft) O-NO 59 0 min 0,000 mm 0,0 UV-I 0 W/m -2,8 C -13,1 C 33,8 km/h (5 Bft) 100,00 %
20.12.2016 17:36 -2,3 C 96 % 1025,2 hPa 0,0 l/m 20,4 km/h (4 Bft) O 82 0 min 0,000 mm 0,0 UV-I 0 W/m -2,8 C -12,8 C 30,6 km/h (5 Bft) 97,87 %
20.12.2016 17:38 -2,4 C 96 % 1025,2 hPa 0,0 l/m 21,1 km/h (4 Bft) O-NO 65 0 min 0,000 mm 0,0 UV-I 0 W/m -2,9 C -13,3 C 30,6 km/h (5 Bft) 100,00 %
20.12.2016 17:40 -2,4 C 96 % 1025,2 hPa 0,0 l/m 18,2 km/h (3 Bft) NO 47 0 min 0,000 mm 0,0 UV-I 0 W/m -2,9 C -11,8 C 27,4 km/h (4 Bft) 100,00 %
20.12.2016 17:42 -2,4 C 96 % 1025,1 hPa 0,0 l/m 22,8 km/h (4 Bft) O-NO 69 0 min 0,000 mm 0,0 UV-I 0 W/m -2,9 C -14,0 C 30,6 km/h (5 Bft) 100,00 %
20.12.2016 17:44 -2,4 C 96 % 1025,2 hPa 0,0 l/m 25,1 km/h (4 Bft) O-NO 69 0 min 0,000 mm 0,0 UV-I 0 W/m -2,9 C -15,0 C 32,2 km/h (5 Bft) 100,00 %
20.12.2016 17:46 -2,4 C 96 % 1025,1 hPa 0,0 l/m 24,7 km/h (4 Bft) NO 56 0 min 0,000 mm 0,0 UV-I 0 W/m -2,9 C -14,9 C 33,8 km/h (5 Bft) 98,11 %
20.12.2016 17:48 -2,4 C 96 % 1025,1 hPa 0,0 l/m 22,1 km/h (4 Bft) O-NO 72 0 min 0,000 mm 0,0 UV-I 0 W/m -2,9 C -13,7 C 30,6 km/h (5 Bft) 100,00 %
20.12.2016 17:50 -2,4 C 96 % 1025,1 hPa 0,0 l/m 22,6 km/h (4 Bft) O-NO 73 0 min 0,000 mm 0,0 UV-I 0 W/m -2,9 C -14,0 C 32,2 km/h (5 Bft) 100,00 %
20.12.2016 17:52 -2,4 C 96 % 1025,1 hPa 0,0 l/m 21,4 km/h (4 Bft) O 80 0 min 0,000 mm 0,0 UV-I 0 W/m -2,9 C -13,4 C 27,4 km/h (4 Bft) 97,87 %
20.12.2016 17:54 -2,4 C 96 % 1025,0 hPa 0,0 l/m 22,6 km/h (4 Bft) O-NO 68 0 min 0,000 mm 0,0 UV-I 0 W/m -2,9 C -14,0 C 29,0 km/h (5 Bft) 94,29 %
20.12.2016 17:56 -2,4 C 96 % 1025,0 hPa 0,0 l/m 26,0 km/h (4 Bft) O-NO 58 0 min 0,000 mm 0,0 UV-I 0 W/m -2,9 C -15,4 C 32,2 km/h (5 Bft) 100,00 %
20.12.2016 17:58 -2,4 C 96 % 1025,0 hPa 0,0 l/m 24,2 km/h (4 Bft) O-NO 71 0 min 0,000 mm 0,0 UV-I 0 W/m -2,9 C -14,6 C 30,6 km/h (5 Bft) 97,14 %
20.12.2016 18:00 -2,4 C 96 % 1025,1 hPa 0,0 l/m 21,6 km/h (4 Bft) O-NO 63 0 min 0,000 mm 0,0 UV-I 0 W/m -2,9 C -13,5 C 33,8 km/h (5 Bft) 98,11 %
20.12.2016 18:02 -2,4 C 96 % 1025,1 hPa 0,0 l/m 19,2 km/h (3 Bft) O-NO 73 0 min 0,000 mm 0,0 UV-I 0 W/m -2,9 C -12,3 C 27,4 km/h (4 Bft) 96,43 %
20.12.2016 18:04 -2,4 C 96 % 1025,1 hPa 0,0 l/m 19,8 km/h (3 Bft) O-SO 106 0 min 0,000 mm 0,0 UV-I 0 W/m -2,9 C -12,6 C 29,0 km/h (5 Bft) 97,56 %
20.12.2016 18:06 -2,4 C 96 % 1025,1 hPa 0,0 l/m 17,4 km/h (3 Bft) O-NO 67 0 min 0,000 mm 0,0 UV-I 0 W/m -2,9 C -11,3 C 22,5 km/h (4 Bft) 93,62 %
20.12.2016 18:08 -2,4 C 96 % 1025,1 hPa 0,0 l/m 19,0 km/h (3 Bft) O 90 0 min 0,000 mm 0,0 UV-I 0 W/m -2,9 C -12,2 C 29,0 km/h (5 Bft) 96,43 %
20.12.2016 18:10 -2,4 C 96 % 1025,2 hPa 0,0 l/m 18,1 km/h (3 Bft) NO 56 0 min 0,000 mm 0,0 UV-I 0 W/m -2,9 C -11,7 C 22,5 km/h (4 Bft) 95,45 %
20.12.2016 18:12 -2,4 C 96 % 1025,2 hPa 0,0 l/m 21,7 km/h (4 Bft) O-NO 68 0 min 0,000 mm 0,0 UV-I 0 W/m -2,9 C -13,6 C 29,0 km/h (5 Bft) 97,62 %
20.12.2016 18:14 -2,4 C 96 % 1025,2 hPa 0,0 l/m 21,6 km/h (4 Bft) NO 55 0 min 0,000 mm 0,0 UV-I 0 W/m -2,9 C -13,5 C 30,6 km/h (5 Bft) 98,08 %
20.12.2016 18:16 -2,4 C 96 % 1025,2 hPa 0,0 l/m 16,5 km/h (3 Bft) O-NO 57 0 min 0,000 mm 0,0 UV-I 0 W/m -2,9 C -10,8 C 24,1 km/h (4 Bft) 97,62 %
20.12.2016 18:18 -2,4 C 96 % 1025,2 hPa 0,0 l/m 20,1 km/h (4 Bft) O-NO 64 0 min 0,000 mm 0,0 UV-I 0 W/m -2,9 C -12,8 C 30,6 km/h (5 Bft) 98,00 %
20.12.2016 18:20 -2,4 C 96 % 1025,2 hPa 0,0 l/m 21,5 km/h (4 Bft) O-NO 66 0 min 0,000 mm 0,0 UV-I 0 W/m -2,9 C -13,5 C 29,0 km/h (5 Bft) 95,74 %
20.12.2016 18:22 -2,4 C 96 % 1025,2 hPa 0,0 l/m 20,5 km/h (4 Bft) O 84 0 min 0,000 mm 0,0 UV-I 0 W/m -2,9 C -13,0 C 30,6 km/h (5 Bft) 95,74 %
20.12.2016 18:24 -2,4 C 96 % 1025,2 hPa 0,0 l/m 21,2 km/h (4 Bft) O-NO 78 0 min 0,000 mm 0,0 UV-I 0 W/m -2,9 C -13,3 C 27,4 km/h (4 Bft) 97,73 %
20.12.2016 18:26 -2,4 C 96 % 1025,2 hPa 0,0 l/m 20,8 km/h (4 Bft) O-NO 68 0 min 0,000 mm 0,0 UV-I 0 W/m -2,9 C -13,1 C 32,2 km/h (5 Bft) 95,12 %
20.12.2016 18:28 -2,4 C 96 % 1025,2 hPa 0,0 l/m 19,0 km/h (3 Bft) O-NO 71 0 min 0,000 mm 0,0 UV-I 0 W/m -2,9 C -12,2 C 24,1 km/h (4 Bft) 97,56 %
20.12.2016 18:30 -2,4 C 96 % 1025,2 hPa 0,0 l/m 18,1 km/h (3 Bft) O-NO 63 0 min 0,000 mm 0,0 UV-I 0 W/m -2,9 C -11,7 C 27,4 km/h (4 Bft) 96,23 %
20.12.2016 18:32 -2,4 C 96 % 1025,2 hPa 0,0 l/m 17,5 km/h (3 Bft) O-NO 63 0 min 0,000 mm 0,0 UV-I 0 W/m -2,9 C -11,4 C 25,7 km/h (4 Bft) 98,11 %
20.12.2016 18:34 -2,4 C 96 % 1025,2 hPa 0,0 l/m 18,9 km/h (3 Bft) O-NO 74 0 min 0,000 mm 0,0 UV-I 0 W/m -2,9 C -12,2 C 25,7 km/h (4 Bft) 100,00 %
20.12.2016 18:36 -2,4 C 96 % 1025,1 hPa 0,0 l/m 19,1 km/h (3 Bft) O-NO 57 0 min 0,000 mm 0,0 UV-I 0 W/m -2,9 C -12,3 C 25,7 km/h (4 Bft) 100,00 %
20.12.2016 18:38 -2,4 C 96 % 1025,2 hPa 0,0 l/m 21,0 km/h (4 Bft) O-NO 70 0 min 0,000 mm 0,0 UV-I 0 W/m -2,9 C -13,2 C 29,0 km/h (5 Bft) 97,56 %
20.12.2016 18:40 -2,4 C 96 % 1025,2 hPa 0,0 l/m 20,2 km/h (4 Bft) O-NO 74 0 min 0,000 mm 0,0 UV-I 0 W/m -2,9 C -12,8 C 29,0 km/h (5 Bft) 96,23 %
20.12.2016 18:42 -2,4 C 96 % 1025,2 hPa 0,0 l/m 21,9 km/h (4 Bft) NO 50 0 min 0,000 mm 0,0 UV-I 0 W/m -2,9 C -13,6 C 30,6 km/h (5 Bft) 97,37 %
20.12.2016 18:44 -2,4 C 96 % 1025,2 hPa 0,0 l/m 22,7 km/h (4 Bft) NO 46 0 min 0,000 mm 0,0 UV-I 0 W/m -2,9 C -14,0 C 33,8 km/h (5 Bft) 100,00 %
20.12.2016 18:46 -2,4 C 96 % 1025,2 hPa 0,0 l/m 18,1 km/h (3 Bft) NO 51 0 min 0,000 mm 0,0 UV-I 0 W/m -2,9 C -11,7 C 24,1 km/h (4 Bft) 100,00 %
20.12.2016 18:48 -2,4 C 96 % 1025,2 hPa 0,0 l/m 18,8 km/h (3 Bft) O-NO 74 0 min 0,000 mm 0,0 UV-I 0 W/m -2,9 C -12,1 C 30,6 km/h (5 Bft) 100,00 %
20.12.2016 18:50 -2,4 C 96 % 1025,2 hPa 0,0 l/m 24,9 km/h (4 Bft) O 79 0 min 0,000 mm 0,0 UV-I 0 W/m -2,9 C -14,9 C 33,8 km/h (5 Bft) 97,87 %
20.12.2016 18:52 -2,4 C 96 % 1025,3 hPa 0,0 l/m 19,5 km/h (3 Bft) O-NO 63 0 min 0,000 mm 0,0 UV-I 0 W/m -2,9 C -12,5 C 27,4 km/h (4 Bft) 100,00 %
20.12.2016 18:54 -2,4 C 96 % 1025,3 hPa 0,0 l/m 17,2 km/h (3 Bft) O-NO 63 0 min 0,000 mm 0,0 UV-I 0 W/m -2,9 C -11,2 C 22,5 km/h (4 Bft) 100,00 %
20.12.2016 18:56 -2,4 C 96 % 1025,3 hPa 0,0 l/m 18,7 km/h (3 Bft) O-NO 69 0 min 0,000 mm 0,0 UV-I 0 W/m -2,9 C -12,1 C 24,1 km/h (4 Bft) 100,00 %
20.12.2016 18:58 -2,4 C 96 % 1025,3 hPa 0,0 l/m 19,9 km/h (4 Bft) NO 55 0 min 0,000 mm 0,0 UV-I 0 W/m -2,9 C -12,7 C 25,7 km/h (4 Bft) 100,00 %
20.12.2016 19:00 -2,4 C 96 % 1025,3 hPa 0,0 l/m 19,8 km/h (3 Bft) O-NO 66 0 min 0,000 mm 0,0 UV-I 0 W/m -2,9 C -12,6 C 29,0 km/h (5 Bft) 100,00 %
20.12.2016 19:02 -2,4 C 96 % 1025,2 hPa 0,0 l/m 20,6 km/h (4 Bft) NO 46 0 min 0,000 mm 0,0 UV-I 0 W/m -2,9 C -13,0 C 30,6 km/h (5 Bft) 97,87 %
20.12.2016 19:04 -2,4 C 96 % 1025,2 hPa 0,0 l/m 21,4 km/h (4 Bft) NO 49 0 min 0,000 mm 0,0 UV-I 0 W/m -2,9 C -13,4 C 25,7 km/h (4 Bft) 100,00 %
20.12.2016 19:06 -2,4 C 96 % 1025,2 hPa 0,0 l/m 21,3 km/h (4 Bft) O-NO 63 0 min 0,000 mm 0,0 UV-I 0 W/m -2,9 C -13,4 C 27,4 km/h (4 Bft) 100,00 %
20.12.2016 19:08 -2,4 C 96 % 1025,3 hPa 0,0 l/m 20,8 km/h (4 Bft) O-NO 63 0 min 0,000 mm 0,0 UV-I 0 W/m -2,9 C -13,1 C 25,7 km/h (4 Bft) 100,00 %
20.12.2016 19:10 -2,4 C 96 % 1025,2 hPa 0,0 l/m 18,2 km/h (3 Bft) O-NO 67 0 min 0,000 mm 0,0 UV-I 0 W/m -2,9 C -11,8 C 25,7 km/h (4 Bft) 100,00 %
20.12.2016 19:12 -2,4 C 96 % 1025,2 hPa 0,0 l/m 22,6 km/h (4 Bft) O-NO 78 0 min 0,000 mm 0,0 UV-I 0 W/m -2,9 C -14,0 C 30,6 km/h (5 Bft) 98,21 %
20.12.2016 19:14 -2,4 C 96 % 1025,3 hPa 0,0 l/m 22,3 km/h (4 Bft) NO 46 0 min 0,000 mm 0,0 UV-I 0 W/m -2,9 C -13,8 C 29,0 km/h (5 Bft) 97,56 %
20.12.2016 19:16 -2,4 C 96 % 1025,2 hPa 0,0 l/m 17,9 km/h (3 Bft) O-SO 109 0 min 0,000 mm 0,0 UV-I 0 W/m -2,9 C -11,6 C 29,0 km/h (5 Bft) 100,00 %
20.12.2016 19:18 -2,4 C 96 % 1025,3 hPa 0,0 l/m 17,7 km/h (3 Bft) O-NO 60 0 min 0,000 mm 0,0 UV-I 0 W/m -2,9 C -11,5 C 20,9 km/h (4 Bft) 100,00 %
20.12.2016 19:20 -2,4 C 96 % 1025,2 hPa 0,0 l/m 18,6 km/h (3 Bft) NO 34 0 min 0,000 mm 0,0 UV-I 0 W/m -2,9 C -12,0 C 24,1 km/h (4 Bft) 98,00 %
20.12.2016 19:22 -2,5 C 96 % 1025,2 hPa 0,0 l/m 18,7 km/h (3 Bft) NO 53 0 min 0,000 mm 0,0 UV-I 0 W/m -3,0 C -12,2 C 30,6 km/h (5 Bft) 97,37 %
20.12.2016 19:24 -2,5 C 96 % 1025,2 hPa 0,0 l/m 19,0 km/h (3 Bft) O 87 0 min 0,000 mm 0,0 UV-I 0 W/m -3,0 C -12,3 C 24,1 km/h (4 Bft) 100,00 %
20.12.2016 19:26 -2,5 C 96 % 1025,3 hPa 0,0 l/m 20,0 km/h (4 Bft) NO 53 0 min 0,000 mm 0,0 UV-I 0 W/m -3,0 C -12,9 C 30,6 km/h (5 Bft) 100,00 %
20.12.2016 19:28 -2,5 C 96 % 1025,2 hPa 0,0 l/m 22,5 km/h (4 Bft) O-NO 70 0 min 0,000 mm 0,0 UV-I 0 W/m -3,0 C -14,0 C 30,6 km/h (5 Bft) 100,00 %
20.12.2016 19:30 -2,5 C 96 % 1025,2 hPa 0,0 l/m 20,3 km/h (4 Bft) NO 45 0 min 0,000 mm 0,0 UV-I 0 W/m -3,0 C -13,0 C 27,4 km/h (4 Bft) 100,00 %
20.12.2016 19:32 -2,5 C 96 % 1025,2 hPa 0,0 l/m 20,6 km/h (4 Bft) O-NO 69 0 min 0,000 mm 0,0 UV-I 0 W/m -3,0 C -13,2 C 29,0 km/h (5 Bft) 97,87 %
20.12.2016 19:34 -2,5 C 96 % 1025,2 hPa 0,0 l/m 18,1 km/h (3 Bft) O-NO 59 0 min 0,000 mm 0,0 UV-I 0 W/m -3,0 C -11,9 C 30,6 km/h (5 Bft) 100,00 %
20.12.2016 19:36 -2,5 C 96 % 1025,3 hPa 0,0 l/m 22,2 km/h (4 Bft) O-NO 65 0 min 0,000 mm 0,0 UV-I 0 W/m -3,0 C -13,9 C 32,2 km/h (5 Bft) 100,00 %
20.12.2016 19:38 -2,5 C 96 % 1025,3 hPa 0,0 l/m 18,4 km/h (3 Bft) NO 56 0 min 0,000 mm 0,0 UV-I 0 W/m -3,0 C -12,0 C 24,1 km/h (4 Bft) 98,00 %
20.12.2016 19:40 -2,5 C 96 % 1025,3 hPa 0,0 l/m 19,8 km/h (3 Bft) O-NO 63 0 min 0,000 mm 0,0 UV-I 0 W/m -3,0 C -12,8 C 30,6 km/h (5 Bft) 100,00 %
20.12.2016 19:42 -2,5 C 96 % 1025,3 hPa 0,0 l/m 20,3 km/h (4 Bft) O-NO 70 0 min 0,000 mm 0,0 UV-I 0 W/m -3,0 C -13,0 C 29,0 km/h (5 Bft) 100,00 %
20.12.2016 19:44 -2,5 C 96 % 1025,2 hPa 0,0 l/m 20,3 km/h (4 Bft) NO 40 0 min 0,000 mm 0,0 UV-I 0 W/m -3,0 C -13,0 C 25,7 km/h (4 Bft) 98,11 %
20.12.2016 19:46 -2,5 C 96 % 1025,4 hPa 0,0 l/m 20,9 km/h (4 Bft) O-NO 62 0 min 0,000 mm 0,0 UV-I 0 W/m -3,0 C -13,3 C 27,4 km/h (4 Bft) 100,00 %
20.12.2016 19:48 -2,5 C 96 % 1025,3 hPa 0,0 l/m 19,6 km/h (3 Bft) O-NO 64 0 min 0,000 mm 0,0 UV-I 0 W/m -3,0 C -12,7 C 30,6 km/h (5 Bft) 95,74 %
20.12.2016 19:50 -2,5 C 96 % 1025,4 hPa 0,0 l/m 16,1 km/h (3 Bft) O-NO 64 0 min 0,000 mm 0,0 UV-I 0 W/m -3,0 C -10,7 C 25,7 km/h (4 Bft) 100,00 %
20.12.2016 19:52 -2,5 C 96 % 1025,4 hPa 0,0 l/m 15,3 km/h (3 Bft) O-NO 68 0 min 0,000 mm 0,0 UV-I 0 W/m -3,0 C -10,2 C 22,5 km/h (4 Bft) 100,00 %
20.12.2016 19:54 -2,6 C 96 % 1025,4 hPa 0,0 l/m 19,4 km/h (3 Bft) O-NO 61 0 min 0,000 mm 0,0 UV-I 0 W/m -3,1 C -12,7 C 25,7 km/h (4 Bft) 98,15 %
20.12.2016 19:56 -2,5 C 96 % 1025,4 hPa 0,0 l/m 15,0 km/h (3 Bft) NO 40 0 min 0,000 mm 0,0 UV-I 0 W/m -3,0 C -10,0 C 20,9 km/h (4 Bft) 97,73 %
20.12.2016 19:58 -2,6 C 96 % 1025,4 hPa 0,0 l/m 18,5 km/h (3 Bft) O-NO 69 0 min 0,000 mm 0,0 UV-I 0 W/m -3,1 C -12,2 C 24,1 km/h (4 Bft) 98,21 %
20.12.2016 20:00 -2,5 C 96 % 1025,4 hPa 0,0 l/m 16,2 km/h (3 Bft) O-NO 57 0 min 0,000 mm 0,0 UV-I 0 W/m -3,0 C -10,8 C 22,5 km/h (4 Bft) 97,14 %
20.12.2016 20:02 -2,5 C 96 % 1025,4 hPa 0,0 l/m 19,8 km/h (3 Bft) O-NO 63 0 min 0,000 mm 0,0 UV-I 0 W/m -3,0 C -12,8 C 27,4 km/h (4 Bft) 95,74 %
20.12.2016 20:04 -2,5 C 96 % 1025,5 hPa 0,0 l/m 19,3 km/h (3 Bft) O-NO 67 0 min 0,000 mm 0,0 UV-I 0 W/m -3,0 C -12,5 C 32,2 km/h (5 Bft) 96,23 %
20.12.2016 20:06 -2,6 C 96 % 1025,4 hPa 0,0 l/m 22,7 km/h (4 Bft) O-NO 64 0 min 0,000 mm 0,0 UV-I 0 W/m -3,1 C -14,3 C 27,4 km/h (4 Bft) 97,73 %
20.12.2016 20:08 -2,6 C 96 % 1025,4 hPa 0,0 l/m 16,6 km/h (3 Bft) O 84 0 min 0,000 mm 0,0 UV-I 0 W/m -3,1 C -11,1 C 24,1 km/h (4 Bft) 92,45 %
20.12.2016 20:10 -2,5 C 97 % 1025,4 hPa 0,0 l/m 16,3 km/h (3 Bft) NO 56 0 min 0,000 mm 0,0 UV-I 0 W/m -2,9 C -10,8 C 22,5 km/h (4 Bft) 95,12 %
20.12.2016 20:12 -2,5 C 97 % 1025,4 hPa 0,0 l/m 16,7 km/h (3 Bft) O-NO 58 0 min 0,000 mm 0,0 UV-I 0 W/m -2,9 C -11,1 C 22,5 km/h (4 Bft) 98,11 %
20.12.2016 20:14 -2,5 C 97 % 1025,5 hPa 0,0 l/m 19,0 km/h (3 Bft) O-NO 72 0 min 0,000 mm 0,0 UV-I 0 W/m -2,9 C -12,3 C 29,0 km/h (5 Bft) 97,73 %
20.12.2016 20:16 -2,5 C 97 % 1025,5 hPa 0,0 l/m 18,3 km/h (3 Bft) O-NO 73 0 min 0,000 mm 0,0 UV-I 0 W/m -2,9 C -12,0 C 25,7 km/h (4 Bft) 97,87 %
20.12.2016 20:18 -2,5 C 96 % 1025,5 hPa 0,0 l/m 18,3 km/h (3 Bft) NO 48 0 min 0,000 mm 0,0 UV-I 0 W/m -3,0 C -12,0 C 29,0 km/h (5 Bft) 95,83 %
20.12.2016 20:20 -2,5 C 96 % 1025,4 hPa 0,0 l/m 20,5 km/h (4 Bft) NO 55 0 min 0,000 mm 0,0 UV-I 0 W/m -3,0 C -13,1 C 27,4 km/h (4 Bft) 97,56 %
20.12.2016 20:22 -2,5 C 96 % 1025,4 hPa 0,0 l/m 23,1 km/h (4 Bft) NO 46 0 min 0,000 mm 0,0 UV-I 0 W/m -3,0 C -14,3 C 32,2 km/h (5 Bft) 97,87 %
20.12.2016 20:24 -2,5 C 96 % 1025,5 hPa 0,0 l/m 18,0 km/h (3 Bft) O-NO 67 0 min 0,000 mm 0,0 UV-I 0 W/m -3,0 C -11,8 C 25,7 km/h (4 Bft) 92,68 %
20.12.2016 20:26 -2,5 C 96 % 1025,6 hPa 0,0 l/m 17,5 km/h (3 Bft) NO 38 0 min 0,000 mm 0,0 UV-I 0 W/m -3,0 C -11,5 C 29,0 km/h (5 Bft) 94,55 %
20.12.2016 20:28 -2,6 C 96 % 1025,6 hPa 0,0 l/m 23,4 km/h (4 Bft) O-NO 78 0 min 0,000 mm 0,0 UV-I 0 W/m -3,1 C -14,6 C 29,0 km/h (5 Bft) 98,11 %
20.12.2016 20:30 -2,6 C 96 % 1025,6 hPa 0,0 l/m 18,1 km/h (3 Bft) O-NO 66 0 min 0,000 mm 0,0 UV-I 0 W/m -3,1 C -12,0 C 24,1 km/h (4 Bft) 95,74 %
20.12.2016 20:32 -2,6 C 96 % 1025,6 hPa 0,0 l/m 18,3 km/h (3 Bft) O-NO 77 0 min 0,000 mm 0,0 UV-I 0 W/m -3,1 C -12,1 C 25,7 km/h (4 Bft) 97,87 %
20.12.2016 20:34 -2,6 C 96 % 1025,6 hPa 0,0 l/m 17,2 km/h (3 Bft) O-NO 58 0 min 0,000 mm 0,0 UV-I 0 W/m -3,1 C -11,5 C 22,5 km/h (4 Bft) 97,56 %
20.12.2016 20:36 -2,5 C 96 % 1025,7 hPa 0,0 l/m 17,1 km/h (3 Bft) NO 53 0 min 0,000 mm 0,0 UV-I 0 W/m -3,0 C -11,3 C 27,4 km/h (4 Bft) 97,37 %
20.12.2016 20:38 -2,5 C 97 % 1025,7 hPa 0,0 l/m 18,6 km/h (3 Bft) NO 51 0 min 0,000 mm 0,0 UV-I 0 W/m -2,9 C -12,1 C 24,1 km/h (4 Bft) 98,21 %
20.12.2016 20:40 -2,5 C 97 % 1025,7 hPa 0,0 l/m 19,8 km/h (3 Bft) NO 54 0 min 0,000 mm 0,0 UV-I 0 W/m -2,9 C -12,8 C 27,4 km/h (4 Bft) 100,00 %
20.12.2016 20:42 -2,5 C 96 % 1025,7 hPa 0,0 l/m 19,6 km/h (3 Bft) O-NO 65 0 min 0,000 mm 0,0 UV-I 0 W/m -3,0 C -12,7 C 29,0 km/h (5 Bft) 100,00 %
20.12.2016 20:44 -2,5 C 96 % 1025,8 hPa 0,0 l/m 19,4 km/h (3 Bft) NO 55 0 min 0,000 mm 0,0 UV-I 0 W/m -3,0 C -12,6 C 25,7 km/h (4 Bft) 97,62 %
20.12.2016 20:46 -2,5 C 96 % 1025,8 hPa 0,0 l/m 17,7 km/h (3 Bft) NO 49 0 min 0,000 mm 0,0 UV-I 0 W/m -3,0 C -11,6 C 25,7 km/h (4 Bft) 97,87 %
20.12.2016 20:48 -2,5 C 96 % 1025,8 hPa 0,0 l/m 17,2 km/h (3 Bft) NO 53 0 min 0,000 mm 0,0 UV-I 0 W/m -3,0 C -11,4 C 27,4 km/h (4 Bft) 100,00 %
20.12.2016 20:50 -2,6 C 96 % 1025,8 hPa 0,0 l/m 20,8 km/h (4 Bft) NO 56 0 min 0,000 mm 0,0 UV-I 0 W/m -3,1 C -13,4 C 29,0 km/h (5 Bft) 97,73 %
20.12.2016 20:53 -2,6 C 96 % 1025,8 hPa 0,0 l/m 14,3 km/h (3 Bft) O-NO 69 0 min 0,000 mm 0,0 UV-I 0 W/m -3,1 C -9,7 C 20,9 km/h (4 Bft) 100,00 %
20.12.2016 20:54 -2,6 C 96 % 1025,8 hPa 0,0 l/m 17,5 km/h (3 Bft) NO 48 0 min 0,000 mm 0,0 UV-I 0 W/m -3,1 C -11,7 C 22,5 km/h (4 Bft) 100,00 %
20.12.2016 20:56 -2,6 C 96 % 1025,9 hPa 0,0 l/m 18,6 km/h (3 Bft) NO 44 0 min 0,000 mm 0,0 UV-I 0 W/m -3,1 C -12,3 C 25,7 km/h (4 Bft) 98,25 %
20.12.2016 20:58 -2,6 C 96 % 1025,9 hPa 0,0 l/m 17,3 km/h (3 Bft) O 83 0 min 0,000 mm 0,0 UV-I 0 W/m -3,1 C -11,5 C 24,1 km/h (4 Bft) 98,11 %
20.12.2016 21:00 -2,6 C 96 % 1025,9 hPa 0,0 l/m 18,3 km/h (3 Bft) O-NO 76 0 min 0,000 mm 0,0 UV-I 0 W/m -3,1 C -12,1 C 24,1 km/h (4 Bft) 100,00 %
20.12.2016 21:02 -2,6 C 96 % 1025,8 hPa 0,0 l/m 18,1 km/h (3 Bft) NO 52 0 min 0,000 mm 0,0 UV-I 0 W/m -3,1 C -12,0 C 27,4 km/h (4 Bft) 100,00 %
20.12.2016 21:04 -2,6 C 96 % 1025,8 hPa 0,0 l/m 18,2 km/h (3 Bft) NO 55 0 min 0,000 mm 0,0 UV-I 0 W/m -3,1 C -12,0 C 24,1 km/h (4 Bft) 96,43 %
20.12.2016 21:06 -2,6 C 96 % 1025,9 hPa 0,0 l/m 20,8 km/h (4 Bft) O-NO 77 0 min 0,000 mm 0,0 UV-I 0 W/m -3,1 C -13,4 C 25,7 km/h (4 Bft) 100,00 %
20.12.2016 21:08 -2,6 C 96 % 1026,0 hPa 0,0 l/m 18,6 km/h (3 Bft) O-NO 65 0 min 0,000 mm 0,0 UV-I 0 W/m -3,1 C -12,3 C 27,4 km/h (4 Bft) 96,23 %
20.12.2016 21:10 -2,6 C 96 % 1025,9 hPa 0,0 l/m 18,1 km/h (3 Bft) O-NO 62 0 min 0,000 mm 0,0 UV-I 0 W/m -3,1 C -12,0 C 22,5 km/h (4 Bft) 100,00 %
20.12.2016 21:12 -2,6 C 96 % 1025,9 hPa 0,0 l/m 16,7 km/h (3 Bft) O-NO 62 0 min 0,000 mm 0,0 UV-I 0 W/m -3,1 C -11,2 C 20,9 km/h (4 Bft) 100,00 %
20.12.2016 21:14 -2,6 C 96 % 1025,9 hPa 0,0 l/m 19,1 km/h (3 Bft) O-NO 62 0 min 0,000 mm 0,0 UV-I 0 W/m -3,1 C -12,5 C 25,7 km/h (4 Bft) 95,74 %
20.12.2016 21:16 -2,6 C 96 % 1026,0 hPa 0,0 l/m 20,7 km/h (4 Bft) NO 53 0 min 0,000 mm 0,0 UV-I 0 W/m -3,1 C -13,3 C 29,0 km/h (5 Bft) 100,00 %
20.12.2016 21:18 -2,6 C 96 % 1026,0 hPa 0,0 l/m 18,2 km/h (3 Bft) O 80 0 min 0,000 mm 0,0 UV-I 0 W/m -3,1 C -12,0 C 22,5 km/h (4 Bft) 98,11 %
20.12.2016 21:20 -2,6 C 96 % 1026,0 hPa 0,0 l/m 17,9 km/h (3 Bft) NO 47 0 min 0,000 mm 0,0 UV-I 0 W/m -3,1 C -11,9 C 22,5 km/h (4 Bft) 100,00 %
20.12.2016 21:22 -2,6 C 96 % 1026,0 hPa 0,0 l/m 16,8 km/h (3 Bft) NO 44 0 min 0,000 mm 0,0 UV-I 0 W/m -3,1 C -11,2 C 22,5 km/h (4 Bft) 100,00 %
20.12.2016 21:24 -2,6 C 96 % 1026,1 hPa 0,0 l/m 18,0 km/h (3 Bft) NO 53 0 min 0,000 mm 0,0 UV-I 0 W/m -3,1 C -11,9 C 24,1 km/h (4 Bft) 97,56 %
20.12.2016 21:26 -2,6 C 96 % 1026,1 hPa 0,0 l/m 18,5 km/h (3 Bft) NO 34 0 min 0,000 mm 0,0 UV-I 0 W/m -3,1 C -12,2 C 22,5 km/h (4 Bft) 100,00 %
20.12.2016 21:28 -2,6 C 96 % 1026,1 hPa 0,0 l/m 18,4 km/h (3 Bft) NO 53 0 min 0,000 mm 0,0 UV-I 0 W/m -3,1 C -12,2 C 27,4 km/h (4 Bft) 100,00 %
20.12.2016 21:30 -2,6 C 96 % 1026,1 hPa 0,0 l/m 16,5 km/h (3 Bft) O-NO 74 0 min 0,000 mm 0,0 UV-I 0 W/m -3,1 C -11,1 C 25,7 km/h (4 Bft) 100,00 %
20.12.2016 21:32 -2,6 C 96 % 1026,2 hPa 0,0 l/m 18,7 km/h (3 Bft) O 101 0 min 0,000 mm 0,0 UV-I 0 W/m -3,1 C -12,3 C 24,1 km/h (4 Bft) 100,00 %
20.12.2016 21:34 -2,6 C 96 % 1026,2 hPa 0,0 l/m 16,6 km/h (3 Bft) O-NO 76 0 min 0,000 mm 0,0 UV-I 0 W/m -3,1 C -11,1 C 24,1 km/h (4 Bft) 100,00 %
20.12.2016 21:36 -2,6 C 96 % 1026,2 hPa 0,0 l/m 19,5 km/h (3 Bft) O-NO 57 0 min 0,000 mm 0,0 UV-I 0 W/m -3,1 C -12,7 C 25,7 km/h (4 Bft) 100,00 %
20.12.2016 21:38 -2,6 C 96 % 1026,2 hPa 0,0 l/m 14,7 km/h (3 Bft) O-NO 75 0 min 0,000 mm 0,0 UV-I 0 W/m -3,1 C -9,9 C 19,3 km/h (3 Bft) 100,00 %
20.12.2016 21:40 -2,6 C 96 % 1026,2 hPa 0,0 l/m 17,0 km/h (3 Bft) O-NO 57 0 min 0,000 mm 0,0 UV-I 0 W/m -3,1 C -11,4 C 22,5 km/h (4 Bft) 97,37 %
20.12.2016 21:42 -2,6 C 96 % 1026,2 hPa 0,0 l/m 17,1 km/h (3 Bft) O-NO 61 0 min 0,000 mm 0,0 UV-I 0 W/m -3,1 C -11,4 C 24,1 km/h (4 Bft) 100,00 %
20.12.2016 21:44 -2,6 C 96 % 1026,1 hPa 0,0 l/m 16,0 km/h (3 Bft) O-NO 59 0 min 0,000 mm 0,0 UV-I 0 W/m -3,1 C -10,8 C 22,5 km/h (4 Bft) 97,87 %
20.12.2016 21:46 -2,6 C 96 % 1026,2 hPa 0,0 l/m 16,1 km/h (3 Bft) O-NO 75 0 min 0,000 mm 0,0 UV-I 0 W/m -3,1 C -10,8 C 24,1 km/h (4 Bft) 97,56 %
20.12.2016 21:48 -2,6 C 96 % 1026,2 hPa 0,0 l/m 13,9 km/h (3 Bft) O-NO 77 0 min 0,000 mm 0,0 UV-I 0 W/m -3,1 C -9,4 C 19,3 km/h (3 Bft) 98,21 %
20.12.2016 21:50 -2,6 C 96 % 1026,3 hPa 0,0 l/m 15,1 km/h (3 Bft) O-NO 63 0 min 0,000 mm 0,0 UV-I 0 W/m -3,1 C -10,2 C 20,9 km/h (4 Bft) 97,56 %
20.12.2016 21:52 -2,6 C 96 % 1026,3 hPa 0,0 l/m 12,6 km/h (3 Bft) O-NO 61 0 min 0,000 mm 0,0 UV-I 0 W/m -3,1 C -8,5 C 20,9 km/h (4 Bft) 100,00 %
20.12.2016 21:54 -2,6 C 96 % 1026,2 hPa 0,0 l/m 17,1 km/h (3 Bft) O-NO 67 0 min 0,000 mm 0,0 UV-I 0 W/m -3,1 C -11,4 C 24,1 km/h (4 Bft) 100,00 %
20.12.2016 21:56 -2,6 C 96 % 1026,2 hPa 0,0 l/m 14,4 km/h (3 Bft) O-NO 78 0 min 0,000 mm 0,0 UV-I 0 W/m -3,1 C -9,7 C 20,9 km/h (4 Bft) 100,00 %
20.12.2016 21:58 -2,6 C 96 % 1026,3 hPa 0,0 l/m 10,8 km/h (2 Bft) NO 49 0 min 0,000 mm 0,0 UV-I 0 W/m -3,1 C -7,0 C 16,1 km/h (3 Bft) 98,00 %
20.12.2016 22:00 -2,6 C 96 % 1026,2 hPa 0,0 l/m 16,0 km/h (3 Bft) O-NO 58 0 min 0,000 mm 0,0 UV-I 0 W/m -3,1 C -10,8 C 24,1 km/h (4 Bft) 100,00 %
20.12.2016 22:02 -2,6 C 96 % 1026,3 hPa 0,0 l/m 12,7 km/h (3 Bft) O-NO 67 0 min 0,000 mm 0,0 UV-I 0 W/m -3,1 C -8,5 C 19,3 km/h (3 Bft) 98,21 %
20.12.2016 22:04 -2,6 C 96 % 1026,3 hPa 0,0 l/m 13,7 km/h (3 Bft) O-NO 58 0 min 0,000 mm 0,0 UV-I 0 W/m -3,1 C -9,3 C 17,7 km/h (3 Bft) 100,00 %
20.12.2016 22:06 -2,6 C 96 % 1026,3 hPa 0,0 l/m 15,5 km/h (3 Bft) NO 55 0 min 0,000 mm 0,0 UV-I 0 W/m -3,1 C -10,5 C 20,9 km/h (4 Bft) 98,08 %
20.12.2016 22:08 -2,6 C 96 % 1026,3 hPa 0,0 l/m 12,7 km/h (3 Bft) O-NO 68 0 min 0,000 mm 0,0 UV-I 0 W/m -3,1 C -8,5 C 20,9 km/h (4 Bft) 96,43 %
20.12.2016 22:10 -2,6 C 96 % 1026,4 hPa 0,0 l/m 14,8 km/h (3 Bft) O-NO 67 0 min 0,000 mm 0,0 UV-I 0 W/m -3,1 C -10,0 C 20,9 km/h (4 Bft) 95,45 %
20.12.2016 22:12 -2,6 C 96 % 1026,4 hPa 0,0 l/m 13,5 km/h (3 Bft) NO 46 0 min 0,000 mm 0,0 UV-I 0 W/m -3,1 C -9,1 C 20,9 km/h (4 Bft) 97,78 %
20.12.2016 22:14 -2,6 C 96 % 1026,4 hPa 0,0 l/m 13,9 km/h (3 Bft) O 80 0 min 0,000 mm 0,0 UV-I 0 W/m -3,1 C -9,4 C 22,5 km/h (4 Bft) 95,74 %
20.12.2016 22:16 -2,6 C 96 % 1026,4 hPa 0,0 l/m 14,7 km/h (3 Bft) NO 46 0 min 0,000 mm 0,0 UV-I 0 W/m -3,1 C -9,9 C 20,9 km/h (4 Bft) 97,37 %
20.12.2016 22:18 -2,6 C 96 % 1026,4 hPa 0,0 l/m 15,7 km/h (3 Bft) O-NO 76 0 min 0,000 mm 0,0 UV-I 0 W/m -3,1 C -10,6 C 20,9 km/h (4 Bft) 96,61 %
20.12.2016 22:20 -2,6 C 96 % 1026,5 hPa 0,0 l/m 13,4 km/h (3 Bft) NO 51 0 min 0,000 mm 0,0 UV-I 0 W/m -3,1 C -9,0 C 20,9 km/h (4 Bft) 96,23 %
20.12.2016 22:22 -2,6 C 96 % 1026,6 hPa 0,0 l/m 11,2 km/h (2 Bft) NO 55 0 min 0,000 mm 0,0 UV-I 0 W/m -3,1 C -7,4 C 14,5 km/h (3 Bft) 97,37 %
20.12.2016 22:24 -2,6 C 96 % 1026,7 hPa 0,0 l/m 11,2 km/h (2 Bft) NO 48 0 min 0,000 mm 0,0 UV-I 0 W/m -3,1 C -7,4 C 17,7 km/h (3 Bft) 92,45 %
20.12.2016 22:26 -2,6 C 96 % 1026,7 hPa 0,0 l/m 13,5 km/h (3 Bft) O 92 0 min 0,000 mm 0,0 UV-I 0 W/m -3,1 C -9,1 C 24,1 km/h (4 Bft) 100,00 %
20.12.2016 22:28 -2,6 C 96 % 1026,7 hPa 0,0 l/m 8,6 km/h (2 Bft) NO 49 0 min 0,000 mm 0,0 UV-I 0 W/m -3,1 C -5,0 C 16,1 km/h (3 Bft) 96,00 %
20.12.2016 22:30 -2,6 C 96 % 1026,8 hPa 0,0 l/m 10,4 km/h (2 Bft) NO 51 0 min 0,000 mm 0,0 UV-I 0 W/m -3,1 C -6,7 C 17,7 km/h (3 Bft) 98,21 %
20.12.2016 22:32 -2,6 C 96 % 1026,8 hPa 0,0 l/m 11,9 km/h (2 Bft) NO 53 0 min 0,000 mm 0,0 UV-I 0 W/m -3,1 C -7,9 C 16,1 km/h (3 Bft) 97,37 %
20.12.2016 22:34 -2,6 C 96 % 1026,8 hPa 0,0 l/m 9,6 km/h (2 Bft) NO 55 0 min 0,000 mm 0,0 UV-I 0 W/m -3,1 C -6,0 C 14,5 km/h (3 Bft) 98,11 %
20.12.2016 22:36 -2,6 C 96 % 1026,8 hPa 0,0 l/m 11,4 km/h (2 Bft) O-NO 59 0 min 0,000 mm 0,0 UV-I 0 W/m -3,1 C -7,5 C 16,1 km/h (3 Bft) 95,45 %
20.12.2016 22:38 -2,6 C 96 % 1026,8 hPa 0,0 l/m 14,5 km/h (3 Bft) O 80 0 min 0,000 mm 0,0 UV-I 0 W/m -3,1 C -9,8 C 22,5 km/h (4 Bft) 96,30 %
20.12.2016 22:40 -2,6 C 96 % 1026,9 hPa 0,0 l/m 15,2 km/h (3 Bft) O-NO 69 0 min 0,000 mm 0,0 UV-I 0 W/m -3,1 C -10,3 C 19,3 km/h (3 Bft) 95,71 %
20.12.2016 22:42 -2,6 C 96 % 1026,9 hPa 0,0 l/m 17,4 km/h (3 Bft) O-NO 60 0 min 0,000 mm 0,0 UV-I 0 W/m -3,1 C -11,6 C 22,5 km/h (4 Bft) 97,73 %
20.12.2016 22:44 -2,6 C 96 % 1026,8 hPa 0,0 l/m 14,7 km/h (3 Bft) O-NO 58 0 min 0,000 mm 0,0 UV-I 0 W/m -3,1 C -9,9 C 22,5 km/h (4 Bft) 100,00 %
20.12.2016 22:46 -2,6 C 96 % 1026,9 hPa 0,0 l/m 13,3 km/h (3 Bft) O-NO 57 0 min 0,000 mm 0,0 UV-I 0 W/m -3,1 C -9,0 C 20,9 km/h (4 Bft) 100,00 %
20.12.2016 22:48 -2,6 C 96 % 1026,9 hPa 0,0 l/m 12,2 km/h (2 Bft) O-NO 61 0 min 0,000 mm 0,0 UV-I 0 W/m -3,1 C -8,2 C 17,7 km/h (3 Bft) 96,23 %
20.12.2016 22:50 -2,6 C 96 % 1026,9 hPa 0,0 l/m 10,6 km/h (2 Bft) NO 53 0 min 0,000 mm 0,0 UV-I 0 W/m -3,1 C -6,8 C 17,7 km/h (3 Bft) 100,00 %
20.12.2016 22:52 -2,6 C 96 % 1026,9 hPa 0,0 l/m 13,2 km/h (3 Bft) O-NO 64 0 min 0,000 mm 0,0 UV-I 0 W/m -3,1 C -8,9 C 20,9 km/h (4 Bft) 94,87 %
20.12.2016 22:54 -2,6 C 96 % 1027,0 hPa 0,0 l/m 13,2 km/h (3 Bft) O-NO 63 0 min 0,000 mm 0,0 UV-I 0 W/m -3,1 C -8,9 C 19,3 km/h (3 Bft) 98,11 %
20.12.2016 22:56 -2,6 C 96 % 1027,0 hPa 0,0 l/m 10,0 km/h (2 Bft) O-NO 63 0 min 0,000 mm 0,0 UV-I 0 W/m -3,1 C -6,3 C 14,5 km/h (3 Bft) 100,00 %
20.12.2016 22:58 -2,6 C 96 % 1027,0 hPa 0,0 l/m 9,6 km/h (2 Bft) O-NO 59 0 min 0,000 mm 0,0 UV-I 0 W/m -3,1 C -6,0 C 16,1 km/h (3 Bft) 98,00 %
20.12.2016 23:00 -2,6 C 96 % 1027,0 hPa 0,0 l/m 15,4 km/h (3 Bft) NO 49 0 min 0,000 mm 0,0 UV-I 0 W/m -3,1 C -10,4 C 20,9 km/h (4 Bft) 98,21 %
20.12.2016 23:02 -2,6 C 96 % 1027,1 hPa 0,0 l/m 14,0 km/h (3 Bft) NO 47 0 min 0,000 mm 0,0 UV-I 0 W/m -3,1 C -9,5 C 17,7 km/h (3 Bft) 100,00 %
20.12.2016 23:04 -2,6 C 96 % 1027,1 hPa 0,0 l/m 14,4 km/h (3 Bft) NO 50 0 min 0,000 mm 0,0 UV-I 0 W/m -3,1 C -9,7 C 17,7 km/h (3 Bft) 100,00 %
20.12.2016 23:06 -2,7 C 96 % 1027,2 hPa 0,0 l/m 13,2 km/h (3 Bft) O-NO 64 0 min 0,000 mm 0,0 UV-I 0 W/m -3,2 C -9,0 C 19,3 km/h (3 Bft) 100,00 %
20.12.2016 23:08 -2,7 C 96 % 1027,3 hPa 0,0 l/m 12,1 km/h (2 Bft) NO 51 0 min 0,000 mm 0,0 UV-I 0 W/m -3,2 C -8,2 C 17,7 km/h (3 Bft) 100,00 %
20.12.2016 23:10 -2,7 C 96 % 1027,3 hPa 0,0 l/m 13,0 km/h (3 Bft) NO 38 0 min 0,000 mm 0,0 UV-I 0 W/m -3,2 C -8,9 C 17,7 km/h (3 Bft) 98,00 %
20.12.2016 23:12 -2,7 C 96 % 1027,3 hPa 0,0 l/m 15,4 km/h (3 Bft) NO 47 0 min 0,000 mm 0,0 UV-I 0 W/m -3,2 C -10,5 C 20,9 km/h (4 Bft) 100,00 %
20.12.2016 23:14 -2,7 C 96 % 1027,3 hPa 0,0 l/m 14,5 km/h (3 Bft) O-NO 57 0 min 0,000 mm 0,0 UV-I 0 W/m -3,2 C -9,9 C 20,9 km/h (4 Bft) 100,00 %
20.12.2016 23:16 -2,7 C 96 % 1027,2 hPa 0,0 l/m 12,8 km/h (3 Bft) NO 38 0 min 0,000 mm 0,0 UV-I 0 W/m -3,2 C -8,7 C 19,3 km/h (3 Bft) 98,00 %
20.12.2016 23:18 -2,7 C 96 % 1027,3 hPa 0,0 l/m 13,1 km/h (3 Bft) O-NO 76 0 min 0,000 mm 0,0 UV-I 0 W/m -3,2 C -8,9 C 19,3 km/h (3 Bft) 97,67 %
20.12.2016 23:20 -2,7 C 96 % 1027,4 hPa 0,0 l/m 16,6 km/h (3 Bft) O-NO 70 0 min 0,000 mm 0,0 UV-I 0 W/m -3,2 C -11,3 C 22,5 km/h (4 Bft) 100,00 %
20.12.2016 23:22 -2,7 C 96 % 1027,4 hPa 0,0 l/m 12,5 km/h (3 Bft) NO 44 0 min 0,000 mm 0,0 UV-I 0 W/m -3,2 C -8,5 C 17,7 km/h (3 Bft) 100,00 %
20.12.2016 23:24 -2,7 C 96 % 1027,4 hPa 0,0 l/m 14,4 km/h (3 Bft) NO 56 0 min 0,000 mm 0,0 UV-I 0 W/m -3,2 C -9,9 C 20,9 km/h (4 Bft) 100,00 %
20.12.2016 23:26 -2,7 C 96 % 1027,4 hPa 0,0 l/m 14,0 km/h (3 Bft) O-NO 75 0 min 0,000 mm 0,0 UV-I 0 W/m -3,2 C -9,6 C 22,5 km/h (4 Bft) 97,56 %
20.12.2016 23:28 -2,7 C 96 % 1027,4 hPa 0,0 l/m 12,1 km/h (2 Bft) O-NO 76 0 min 0,000 mm 0,0 UV-I 0 W/m -3,2 C -8,2 C 17,7 km/h (3 Bft) 100,00 %
20.12.2016 23:30 -2,7 C 96 % 1027,4 hPa 0,0 l/m 14,3 km/h (3 Bft) NO 48 0 min 0,000 mm 0,0 UV-I 0 W/m -3,2 C -9,8 C 19,3 km/h (3 Bft) 100,00 %
20.12.2016 23:32 -2,7 C 96 % 1027,5 hPa 0,0 l/m 10,5 km/h (2 Bft) NO 46 0 min 0,000 mm 0,0 UV-I 0 W/m -3,2 C -6,9 C 19,3 km/h (3 Bft) 98,08 %
20.12.2016 23:34 -2,7 C 96 % 1027,5 hPa 0,0 l/m 11,8 km/h (2 Bft) O-NO 59 0 min 0,000 mm 0,0 UV-I 0 W/m -3,2 C -8,0 C 17,7 km/h (3 Bft) 100,00 %
20.12.2016 23:36 -2,7 C 96 % 1027,5 hPa 0,0 l/m 14,4 km/h (3 Bft) O-NO 59 0 min 0,000 mm 0,0 UV-I 0 W/m -3,2 C -9,9 C 20,9 km/h (4 Bft) 100,00 %
20.12.2016 23:38 -2,7 C 96 % 1027,5 hPa 0,0 l/m 9,9 km/h (2 Bft) O-NO 59 0 min 0,000 mm 0,0 UV-I 0 W/m -3,2 C -6,3 C 16,1 km/h (3 Bft) 98,11 %
20.12.2016 23:40 -2,7 C 96 % 1027,5 hPa 0,0 l/m 10,7 km/h (2 Bft) NO 45 0 min 0,000 mm 0,0 UV-I 0 W/m -3,2 C -7,0 C 16,1 km/h (3 Bft) 100,00 %
20.12.2016 23:42 -2,7 C 96 % 1027,5 hPa 0,0 l/m 10,4 km/h (2 Bft) O-NO 66 0 min 0,000 mm 0,0 UV-I 0 W/m -3,2 C -6,8 C 17,7 km/h (3 Bft) 100,00 %
20.12.2016 23:44 -2,7 C 96 % 1027,5 hPa 0,0 l/m 11,1 km/h (2 Bft) NO 35 0 min 0,000 mm 0,0 UV-I 0 W/m -3,2 C -7,4 C 16,1 km/h (3 Bft) 100,00 %
20.12.2016 23:46 -2,7 C 96 % 1027,5 hPa 0,0 l/m 11,4 km/h (2 Bft) O-NO 63 0 min 0,000 mm 0,0 UV-I 0 W/m -3,2 C -7,6 C 16,1 km/h (3 Bft) 100,00 %
20.12.2016 23:48 -2,7 C 96 % 1027,5 hPa 0,0 l/m 12,1 km/h (2 Bft) O-NO 58 0 min 0,000 mm 0,0 UV-I 0 W/m -3,2 C -8,2 C 17,7 km/h (3 Bft) 100,00 %
20.12.2016 23:50 -2,7 C 96 % 1027,5 hPa 0,0 l/m 11,0 km/h (2 Bft) NO 49 0 min 0,000 mm 0,0 UV-I 0 W/m -3,2 C -7,3 C 16,1 km/h (3 Bft) 97,73 %
20.12.2016 23:52 -2,7 C 96 % 1027,6 hPa 0,0 l/m 12,9 km/h (3 Bft) O-NO 57 0 min 0,000 mm 0,0 UV-I 0 W/m -3,2 C -8,8 C 19,3 km/h (3 Bft) 95,45 %
20.12.2016 23:54 -2,7 C 96 % 1027,5 hPa 0,0 l/m 10,6 km/h (2 Bft) O-NO 75 0 min 0,000 mm 0,0 UV-I 0 W/m -3,2 C -7,0 C 17,7 km/h (3 Bft) 98,11 %
20.12.2016 23:56 -2,7 C 96 % 1027,6 hPa 0,0 l/m 10,1 km/h (2 Bft) O-NO 65 0 min 0,000 mm 0,0 UV-I 0 W/m -3,2 C -6,5 C 14,5 km/h (3 Bft) 97,73 %
20.12.2016 23:58 -2,7 C 96 % 1027,6 hPa 0,0 l/m 8,1 km/h (2 Bft) NO 44 0 min 0,000 mm 0,0 UV-I 0 W/m -3,2 C -4,6 C 12,9 km/h (3 Bft) 100,00 %
_ Min-Zeit 23:48 04:48 17:54 - 23:58 - - - - - - 23:06 09:14 23:58 12:18
Minimum _ -2,8 C 94 % 1025,0 hPa - 8,1 km/h (2 Bft) - - - - - - -3,2 C -17,1 C 12,9 km/h (3 Bft) 91,49 %
_ Max-Zeit 00:00 20:10 00:00 00:00 09:14 - - 00:00 11:00 00:00 12:48 00:00 23:58 02:10 00:02
Maximum _ -0,8 C 97 % 1028,5 hPa 0,0 l/m 33,5 km/h
O-NO (5 Bft)
- - 0 min 0,026 mm 0,0 UV-I 116 W/m -1,4 C -4,6 C 45,1 km/h
O (6 Bft)
100,00 %
Durchschnitt _ -1,9 C 95 % 1026,7 hPa #0,0 l/m 21,1 km/h (4 Bft) O-NO - #0 min. #0,152 mm 0,0 UV-I 43 W/m -2,5 C -12,4 C 29,5 km/h (5 Bft) 98,51 %